<?xml version="1.0" encoding="UTF-8" standalone="no" ?>
<gpx xmlns="http://www.topografix.com/GPX/1/1" xmlns:xsi="http://www.w3.org/2001/XMLSchema-instance" xsi:schemaLocation="http://www.topografix.com/GPX/1/1 http://www.topografix.com/GPX/1/1/gpx.xsd" version="1.1" creator="VisuGPX - https://www.visugpx.com">
  <metadata>
    <name>ROCABOUY3 18KM st sauveur</name>
  </metadata>
  <trk>
    <name><![CDATA[ROCABOUY3 18KM]]></name>
    <trkseg>
      <trkpt lat="44.79663" lon="1.61628">
        <ele>103.48</ele>
        <time>2021-06-06T09:22:33Z</time>
      </trkpt>
      <trkpt lat="44.79649" lon="1.61626">
        <ele>103.48</ele>
        <time>2021-06-06T09:22:45Z</time>
      </trkpt>
      <trkpt lat="44.79638" lon="1.61621">
        <ele>103.48</ele>
        <time>2021-06-06T09:22:53Z</time>
      </trkpt>
      <trkpt lat="44.79631" lon="1.61612">
        <ele>104.92</ele>
        <time>2021-06-06T09:23:04Z</time>
      </trkpt>
      <trkpt lat="44.79624" lon="1.61604">
        <ele>105.4</ele>
        <time>2021-06-06T09:23:17Z</time>
      </trkpt>
      <trkpt lat="44.79612" lon="1.6159">
        <ele>106.36</ele>
        <time>2021-06-06T09:23:30Z</time>
      </trkpt>
      <trkpt lat="44.79612" lon="1.61589">
        <ele>106.36</ele>
        <time>2021-06-06T09:23:31Z</time>
      </trkpt>
      <trkpt lat="44.7961" lon="1.61587">
        <ele>106.36</ele>
        <time>2021-06-06T09:23:32Z</time>
      </trkpt>
      <trkpt lat="44.79597" lon="1.61577">
        <ele>107.81</ele>
        <time>2021-06-06T09:23:43Z</time>
      </trkpt>
      <trkpt lat="44.79591" lon="1.61569">
        <ele>108.77</ele>
        <time>2021-06-06T09:23:55Z</time>
      </trkpt>
      <trkpt lat="44.79582" lon="1.61555">
        <ele>110.69</ele>
        <time>2021-06-06T09:24:07Z</time>
      </trkpt>
      <trkpt lat="44.79573" lon="1.61543">
        <ele>112.61</ele>
        <time>2021-06-06T09:24:19Z</time>
      </trkpt>
      <trkpt lat="44.79564" lon="1.61532">
        <ele>115.01</ele>
        <time>2021-06-06T09:24:32Z</time>
      </trkpt>
      <trkpt lat="44.79555" lon="1.61522">
        <ele>116.94</ele>
        <time>2021-06-06T09:24:43Z</time>
      </trkpt>
      <trkpt lat="44.79547" lon="1.61525">
        <ele>117.42</ele>
        <time>2021-06-06T09:24:51Z</time>
      </trkpt>
      <trkpt lat="44.7954" lon="1.61526">
        <ele>119.82</ele>
        <time>2021-06-06T09:25:17Z</time>
      </trkpt>
      <trkpt lat="44.79539" lon="1.61526">
        <ele>119.82</ele>
        <time>2021-06-06T09:25:18Z</time>
      </trkpt>
      <trkpt lat="44.79538" lon="1.61526">
        <ele>123.67</ele>
        <time>2021-06-06T09:25:21Z</time>
      </trkpt>
      <trkpt lat="44.79539" lon="1.61526">
        <ele>124.63</ele>
        <time>2021-06-06T09:25:22Z</time>
      </trkpt>
      <trkpt lat="44.79541" lon="1.61523">
        <ele>127.99</ele>
        <time>2021-06-06T09:25:27Z</time>
      </trkpt>
      <trkpt lat="44.79546" lon="1.61519">
        <ele>127.99</ele>
        <time>2021-06-06T09:25:44Z</time>
      </trkpt>
      <trkpt lat="44.79547" lon="1.61516">
        <ele>127.99</ele>
        <time>2021-06-06T09:26:01Z</time>
      </trkpt>
      <trkpt lat="44.79546" lon="1.61516">
        <ele>129.92</ele>
        <time>2021-06-06T09:26:13Z</time>
      </trkpt>
      <trkpt lat="44.79545" lon="1.61517">
        <ele>133.28</ele>
        <time>2021-06-06T09:26:26Z</time>
      </trkpt>
      <trkpt lat="44.79541" lon="1.61519">
        <ele>133.28</ele>
        <time>2021-06-06T09:26:44Z</time>
      </trkpt>
      <trkpt lat="44.7954" lon="1.61521">
        <ele>136.16</ele>
        <time>2021-06-06T09:26:52Z</time>
      </trkpt>
      <trkpt lat="44.79541" lon="1.61521">
        <ele>137.13</ele>
        <time>2021-06-06T09:26:53Z</time>
      </trkpt>
      <trkpt lat="44.79541" lon="1.61519">
        <ele>139.05</ele>
        <time>2021-06-06T09:27:01Z</time>
      </trkpt>
      <trkpt lat="44.79539" lon="1.61511">
        <ele>139.05</ele>
        <time>2021-06-06T09:27:11Z</time>
      </trkpt>
      <trkpt lat="44.79535" lon="1.61502">
        <ele>140.97</ele>
        <time>2021-06-06T09:27:22Z</time>
      </trkpt>
      <trkpt lat="44.79529" lon="1.61493">
        <ele>142.89</ele>
        <time>2021-06-06T09:27:33Z</time>
      </trkpt>
      <trkpt lat="44.79528" lon="1.61493">
        <ele>142.89</ele>
        <time>2021-06-06T09:27:34Z</time>
      </trkpt>
      <trkpt lat="44.79521" lon="1.61482">
        <ele>145.3</ele>
        <time>2021-06-06T09:27:45Z</time>
      </trkpt>
      <trkpt lat="44.79515" lon="1.61472">
        <ele>146.26</ele>
        <time>2021-06-06T09:27:55Z</time>
      </trkpt>
      <trkpt lat="44.79509" lon="1.61465">
        <ele>148.66</ele>
        <time>2021-06-06T09:28:04Z</time>
      </trkpt>
      <trkpt lat="44.79505" lon="1.61461">
        <ele>149.62</ele>
        <time>2021-06-06T09:28:11Z</time>
      </trkpt>
      <trkpt lat="44.79499" lon="1.61447">
        <ele>151.54</ele>
        <time>2021-06-06T09:28:24Z</time>
      </trkpt>
      <trkpt lat="44.79499" lon="1.61446">
        <ele>152.51</ele>
        <time>2021-06-06T09:28:25Z</time>
      </trkpt>
      <trkpt lat="44.79494" lon="1.61447">
        <ele>156.35</ele>
        <time>2021-06-06T09:28:31Z</time>
      </trkpt>
      <trkpt lat="44.79493" lon="1.61451">
        <ele>159.72</ele>
        <time>2021-06-06T09:28:36Z</time>
      </trkpt>
      <trkpt lat="44.79494" lon="1.61459">
        <ele>162.6</ele>
        <time>2021-06-06T09:28:46Z</time>
      </trkpt>
      <trkpt lat="44.79495" lon="1.61461">
        <ele>164.04</ele>
        <time>2021-06-06T09:28:48Z</time>
      </trkpt>
      <trkpt lat="44.79495" lon="1.61469">
        <ele>167.41</ele>
        <time>2021-06-06T09:28:57Z</time>
      </trkpt>
      <trkpt lat="44.79496" lon="1.6147">
        <ele>167.89</ele>
        <time>2021-06-06T09:28:58Z</time>
      </trkpt>
      <trkpt lat="44.79497" lon="1.61482">
        <ele>170.77</ele>
        <time>2021-06-06T09:29:10Z</time>
      </trkpt>
      <trkpt lat="44.79497" lon="1.61494">
        <ele>173.66</ele>
        <time>2021-06-06T09:29:23Z</time>
      </trkpt>
      <trkpt lat="44.79499" lon="1.61504">
        <ele>175.58</ele>
        <time>2021-06-06T09:29:33Z</time>
      </trkpt>
      <trkpt lat="44.79498" lon="1.61515">
        <ele>177.5</ele>
        <time>2021-06-06T09:29:45Z</time>
      </trkpt>
      <trkpt lat="44.79493" lon="1.61512">
        <ele>178.94</ele>
        <time>2021-06-06T09:29:55Z</time>
      </trkpt>
      <trkpt lat="44.79486" lon="1.61504">
        <ele>180.38</ele>
        <time>2021-06-06T09:30:08Z</time>
      </trkpt>
      <trkpt lat="44.7948" lon="1.61494">
        <ele>182.79</ele>
        <time>2021-06-06T09:30:19Z</time>
      </trkpt>
      <trkpt lat="44.79476" lon="1.61484">
        <ele>184.23</ele>
        <time>2021-06-06T09:30:29Z</time>
      </trkpt>
      <trkpt lat="44.79473" lon="1.61477">
        <ele>185.19</ele>
        <time>2021-06-06T09:30:36Z</time>
      </trkpt>
      <trkpt lat="44.79467" lon="1.61466">
        <ele>187.59</ele>
        <time>2021-06-06T09:30:49Z</time>
      </trkpt>
      <trkpt lat="44.79464" lon="1.61452">
        <ele>190</ele>
        <time>2021-06-06T09:31:02Z</time>
      </trkpt>
      <trkpt lat="44.79462" lon="1.61447">
        <ele>190.48</ele>
        <time>2021-06-06T09:31:06Z</time>
      </trkpt>
      <trkpt lat="44.79459" lon="1.61434">
        <ele>192.88</ele>
        <time>2021-06-06T09:31:18Z</time>
      </trkpt>
      <trkpt lat="44.7946" lon="1.61421">
        <ele>193.84</ele>
        <time>2021-06-06T09:31:29Z</time>
      </trkpt>
      <trkpt lat="44.7946" lon="1.6141">
        <ele>195.28</ele>
        <time>2021-06-06T09:31:42Z</time>
      </trkpt>
      <trkpt lat="44.79461" lon="1.61401">
        <ele>195.28</ele>
        <time>2021-06-06T09:32:01Z</time>
      </trkpt>
      <trkpt lat="44.7946" lon="1.61397">
        <ele>195.77</ele>
        <time>2021-06-06T09:32:13Z</time>
      </trkpt>
      <trkpt lat="44.79459" lon="1.61395">
        <ele>195.77</ele>
        <time>2021-06-06T09:32:29Z</time>
      </trkpt>
      <trkpt lat="44.7946" lon="1.61394">
        <ele>196.25</ele>
        <time>2021-06-06T09:32:47Z</time>
      </trkpt>
      <trkpt lat="44.7946" lon="1.61391">
        <ele>196.25</ele>
        <time>2021-06-06T09:33:01Z</time>
      </trkpt>
      <trkpt lat="44.79458" lon="1.61384">
        <ele>196.25</ele>
        <time>2021-06-06T09:33:12Z</time>
      </trkpt>
      <trkpt lat="44.79455" lon="1.6137">
        <ele>196.25</ele>
        <time>2021-06-06T09:33:23Z</time>
      </trkpt>
      <trkpt lat="44.79453" lon="1.61353">
        <ele>196.25</ele>
        <time>2021-06-06T09:33:36Z</time>
      </trkpt>
      <trkpt lat="44.79461" lon="1.61344">
        <ele>194.8</ele>
        <time>2021-06-06T09:33:46Z</time>
      </trkpt>
      <trkpt lat="44.79468" lon="1.61331">
        <ele>194.8</ele>
        <time>2021-06-06T09:33:56Z</time>
      </trkpt>
      <trkpt lat="44.79477" lon="1.61317">
        <ele>194.32</ele>
        <time>2021-06-06T09:34:09Z</time>
      </trkpt>
      <trkpt lat="44.79486" lon="1.61304">
        <ele>193.84</ele>
        <time>2021-06-06T09:34:22Z</time>
      </trkpt>
      <trkpt lat="44.79488" lon="1.61295">
        <ele>192.88</ele>
        <time>2021-06-06T09:34:27Z</time>
      </trkpt>
      <trkpt lat="44.79495" lon="1.61284">
        <ele>192.88</ele>
        <time>2021-06-06T09:34:36Z</time>
      </trkpt>
      <trkpt lat="44.79502" lon="1.61273">
        <ele>192.88</ele>
        <time>2021-06-06T09:34:45Z</time>
      </trkpt>
      <trkpt lat="44.79506" lon="1.61263">
        <ele>194.32</ele>
        <time>2021-06-06T09:34:51Z</time>
      </trkpt>
      <trkpt lat="44.79517" lon="1.61247">
        <ele>195.77</ele>
        <time>2021-06-06T09:35:05Z</time>
      </trkpt>
      <trkpt lat="44.7952" lon="1.61236">
        <ele>196.25</ele>
        <time>2021-06-06T09:35:12Z</time>
      </trkpt>
      <trkpt lat="44.79532" lon="1.61225">
        <ele>196.73</ele>
        <time>2021-06-06T09:35:24Z</time>
      </trkpt>
      <trkpt lat="44.79544" lon="1.61215">
        <ele>198.65</ele>
        <time>2021-06-06T09:35:36Z</time>
      </trkpt>
      <trkpt lat="44.79553" lon="1.61201">
        <ele>201.05</ele>
        <time>2021-06-06T09:35:49Z</time>
      </trkpt>
      <trkpt lat="44.79557" lon="1.6118">
        <ele>202.49</ele>
        <time>2021-06-06T09:36:01Z</time>
      </trkpt>
      <trkpt lat="44.79559" lon="1.61163">
        <ele>204.42</ele>
        <time>2021-06-06T09:36:12Z</time>
      </trkpt>
      <trkpt lat="44.79561" lon="1.61148">
        <ele>206.34</ele>
        <time>2021-06-06T09:36:24Z</time>
      </trkpt>
      <trkpt lat="44.79559" lon="1.61132">
        <ele>208.26</ele>
        <time>2021-06-06T09:36:36Z</time>
      </trkpt>
      <trkpt lat="44.79557" lon="1.61119">
        <ele>210.19</ele>
        <time>2021-06-06T09:36:47Z</time>
      </trkpt>
      <trkpt lat="44.79556" lon="1.6111">
        <ele>212.11</ele>
        <time>2021-06-06T09:36:56Z</time>
      </trkpt>
      <trkpt lat="44.79553" lon="1.61098">
        <ele>214.03</ele>
        <time>2021-06-06T09:37:08Z</time>
      </trkpt>
      <trkpt lat="44.79547" lon="1.61092">
        <ele>215.95</ele>
        <time>2021-06-06T09:37:20Z</time>
      </trkpt>
      <trkpt lat="44.79544" lon="1.61095">
        <ele>217.4</ele>
        <time>2021-06-06T09:37:26Z</time>
      </trkpt>
      <trkpt lat="44.79535" lon="1.611">
        <ele>218.84</ele>
        <time>2021-06-06T09:37:39Z</time>
      </trkpt>
      <trkpt lat="44.79524" lon="1.61104">
        <ele>221.24</ele>
        <time>2021-06-06T09:37:52Z</time>
      </trkpt>
      <trkpt lat="44.79516" lon="1.61107">
        <ele>223.16</ele>
        <time>2021-06-06T09:38:02Z</time>
      </trkpt>
      <trkpt lat="44.79508" lon="1.61107">
        <ele>224.12</ele>
        <time>2021-06-06T09:38:11Z</time>
      </trkpt>
      <trkpt lat="44.79507" lon="1.61107">
        <ele>224.61</ele>
        <time>2021-06-06T09:38:23Z</time>
      </trkpt>
      <trkpt lat="44.79508" lon="1.61106">
        <ele>224.61</ele>
        <time>2021-06-06T09:38:42Z</time>
      </trkpt>
      <trkpt lat="44.79509" lon="1.61108">
        <ele>224.61</ele>
        <time>2021-06-06T09:39:10Z</time>
      </trkpt>
      <trkpt lat="44.79508" lon="1.61105">
        <ele>224.61</ele>
        <time>2021-06-06T09:39:33Z</time>
      </trkpt>
      <trkpt lat="44.79509" lon="1.61102">
        <ele>224.61</ele>
        <time>2021-06-06T09:39:58Z</time>
      </trkpt>
      <trkpt lat="44.79504" lon="1.61105">
        <ele>225.57</ele>
        <time>2021-06-06T09:40:11Z</time>
      </trkpt>
      <trkpt lat="44.79495" lon="1.6111">
        <ele>226.53</ele>
        <time>2021-06-06T09:40:24Z</time>
      </trkpt>
      <trkpt lat="44.79484" lon="1.61112">
        <ele>228.93</ele>
        <time>2021-06-06T09:40:37Z</time>
      </trkpt>
      <trkpt lat="44.79477" lon="1.61113">
        <ele>229.89</ele>
        <time>2021-06-06T09:40:46Z</time>
      </trkpt>
      <trkpt lat="44.79466" lon="1.61112">
        <ele>232.3</ele>
        <time>2021-06-06T09:40:58Z</time>
      </trkpt>
      <trkpt lat="44.79455" lon="1.61106">
        <ele>234.7</ele>
        <time>2021-06-06T09:41:10Z</time>
      </trkpt>
      <trkpt lat="44.79447" lon="1.61101">
        <ele>236.14</ele>
        <time>2021-06-06T09:41:21Z</time>
      </trkpt>
      <trkpt lat="44.7944" lon="1.61097">
        <ele>239.02</ele>
        <time>2021-06-06T09:41:33Z</time>
      </trkpt>
      <trkpt lat="44.79436" lon="1.61094">
        <ele>239.02</ele>
        <time>2021-06-06T09:41:42Z</time>
      </trkpt>
      <trkpt lat="44.79427" lon="1.61089">
        <ele>241.43</ele>
        <time>2021-06-06T09:41:55Z</time>
      </trkpt>
      <trkpt lat="44.79417" lon="1.61087">
        <ele>243.35</ele>
        <time>2021-06-06T09:42:08Z</time>
      </trkpt>
      <trkpt lat="44.79408" lon="1.61088">
        <ele>245.27</ele>
        <time>2021-06-06T09:42:19Z</time>
      </trkpt>
      <trkpt lat="44.79404" lon="1.61089">
        <ele>247.2</ele>
        <time>2021-06-06T09:42:30Z</time>
      </trkpt>
      <trkpt lat="44.79397" lon="1.61092">
        <ele>248.16</ele>
        <time>2021-06-06T09:42:41Z</time>
      </trkpt>
      <trkpt lat="44.79387" lon="1.61095">
        <ele>250.08</ele>
        <time>2021-06-06T09:42:52Z</time>
      </trkpt>
      <trkpt lat="44.79378" lon="1.61098">
        <ele>252</ele>
        <time>2021-06-06T09:43:03Z</time>
      </trkpt>
      <trkpt lat="44.7937" lon="1.61102">
        <ele>253.44</ele>
        <time>2021-06-06T09:43:14Z</time>
      </trkpt>
      <trkpt lat="44.7936" lon="1.61105">
        <ele>255.85</ele>
        <time>2021-06-06T09:43:26Z</time>
      </trkpt>
      <trkpt lat="44.79357" lon="1.61107">
        <ele>256.81</ele>
        <time>2021-06-06T09:43:30Z</time>
      </trkpt>
      <trkpt lat="44.7935" lon="1.61109">
        <ele>257.77</ele>
        <time>2021-06-06T09:43:38Z</time>
      </trkpt>
      <trkpt lat="44.79338" lon="1.61112">
        <ele>259.21</ele>
        <time>2021-06-06T09:43:51Z</time>
      </trkpt>
      <trkpt lat="44.79333" lon="1.61115">
        <ele>260.17</ele>
        <time>2021-06-06T09:44:03Z</time>
      </trkpt>
      <trkpt lat="44.79332" lon="1.61116">
        <ele>260.17</ele>
        <time>2021-06-06T09:44:16Z</time>
      </trkpt>
      <trkpt lat="44.79328" lon="1.61116">
        <ele>260.65</ele>
        <time>2021-06-06T09:44:27Z</time>
      </trkpt>
      <trkpt lat="44.7932" lon="1.61119">
        <ele>262.1</ele>
        <time>2021-06-06T09:44:40Z</time>
      </trkpt>
      <trkpt lat="44.79319" lon="1.61121">
        <ele>262.1</ele>
        <time>2021-06-06T09:44:56Z</time>
      </trkpt>
      <trkpt lat="44.79319" lon="1.61121">
        <ele>262.1</ele>
        <time>2021-06-06T09:45:06Z</time>
      </trkpt>
      <trkpt lat="44.79312" lon="1.61123">
        <ele>262.1</ele>
        <time>2021-06-06T09:45:15Z</time>
      </trkpt>
      <trkpt lat="44.79299" lon="1.61118">
        <ele>263.06</ele>
        <time>2021-06-06T09:45:28Z</time>
      </trkpt>
      <trkpt lat="44.79284" lon="1.61112">
        <ele>264.98</ele>
        <time>2021-06-06T09:45:42Z</time>
      </trkpt>
      <trkpt lat="44.79272" lon="1.61107">
        <ele>265.46</ele>
        <time>2021-06-06T09:45:53Z</time>
      </trkpt>
      <trkpt lat="44.79255" lon="1.61103">
        <ele>266.9</ele>
        <time>2021-06-06T09:46:07Z</time>
      </trkpt>
      <trkpt lat="44.79237" lon="1.61098">
        <ele>266.9</ele>
        <time>2021-06-06T09:46:20Z</time>
      </trkpt>
      <trkpt lat="44.79219" lon="1.61094">
        <ele>267.38</ele>
        <time>2021-06-06T09:46:34Z</time>
      </trkpt>
      <trkpt lat="44.79201" lon="1.61088">
        <ele>267.38</ele>
        <time>2021-06-06T09:46:48Z</time>
      </trkpt>
      <trkpt lat="44.79184" lon="1.61085">
        <ele>267.86</ele>
        <time>2021-06-06T09:47:01Z</time>
      </trkpt>
      <trkpt lat="44.79164" lon="1.61078">
        <ele>267.86</ele>
        <time>2021-06-06T09:47:17Z</time>
      </trkpt>
      <trkpt lat="44.79144" lon="1.61071">
        <ele>267.86</ele>
        <time>2021-06-06T09:47:32Z</time>
      </trkpt>
      <trkpt lat="44.79119" lon="1.61062">
        <ele>267.86</ele>
        <time>2021-06-06T09:47:51Z</time>
      </trkpt>
      <trkpt lat="44.79113" lon="1.61059">
        <ele>266.42</ele>
        <time>2021-06-06T09:47:56Z</time>
      </trkpt>
      <trkpt lat="44.79096" lon="1.61053">
        <ele>265.94</ele>
        <time>2021-06-06T09:48:10Z</time>
      </trkpt>
      <trkpt lat="44.79077" lon="1.61045">
        <ele>265.46</ele>
        <time>2021-06-06T09:48:26Z</time>
      </trkpt>
      <trkpt lat="44.79057" lon="1.61038">
        <ele>264.98</ele>
        <time>2021-06-06T09:48:41Z</time>
      </trkpt>
      <trkpt lat="44.79038" lon="1.61026">
        <ele>264.5</ele>
        <time>2021-06-06T09:48:56Z</time>
      </trkpt>
      <trkpt lat="44.7902" lon="1.61017">
        <ele>263.54</ele>
        <time>2021-06-06T09:49:11Z</time>
      </trkpt>
      <trkpt lat="44.79" lon="1.61005">
        <ele>263.54</ele>
        <time>2021-06-06T09:49:28Z</time>
      </trkpt>
      <trkpt lat="44.78987" lon="1.60993">
        <ele>263.54</ele>
        <time>2021-06-06T09:49:39Z</time>
      </trkpt>
      <trkpt lat="44.78972" lon="1.60981">
        <ele>263.54</ele>
        <time>2021-06-06T09:49:53Z</time>
      </trkpt>
      <trkpt lat="44.78958" lon="1.60972">
        <ele>263.06</ele>
        <time>2021-06-06T09:50:05Z</time>
      </trkpt>
      <trkpt lat="44.78956" lon="1.60969">
        <ele>263.06</ele>
        <time>2021-06-06T09:50:08Z</time>
      </trkpt>
      <trkpt lat="44.78954" lon="1.60968">
        <ele>263.06</ele>
        <time>2021-06-06T09:50:10Z</time>
      </trkpt>
      <trkpt lat="44.78943" lon="1.60965">
        <ele>263.06</ele>
        <time>2021-06-06T09:50:20Z</time>
      </trkpt>
      <trkpt lat="44.78941" lon="1.60964">
        <ele>263.06</ele>
        <time>2021-06-06T09:50:23Z</time>
      </trkpt>
      <trkpt lat="44.78925" lon="1.60962">
        <ele>263.06</ele>
        <time>2021-06-06T09:50:37Z</time>
      </trkpt>
      <trkpt lat="44.7891" lon="1.60955">
        <ele>263.06</ele>
        <time>2021-06-06T09:50:51Z</time>
      </trkpt>
      <trkpt lat="44.78906" lon="1.60952">
        <ele>263.06</ele>
        <time>2021-06-06T09:51:00Z</time>
      </trkpt>
      <trkpt lat="44.78904" lon="1.6095">
        <ele>263.06</ele>
        <time>2021-06-06T09:51:02Z</time>
      </trkpt>
      <trkpt lat="44.78893" lon="1.60947">
        <ele>263.06</ele>
        <time>2021-06-06T09:51:13Z</time>
      </trkpt>
      <trkpt lat="44.78879" lon="1.60939">
        <ele>263.06</ele>
        <time>2021-06-06T09:51:25Z</time>
      </trkpt>
      <trkpt lat="44.78864" lon="1.60929">
        <ele>263.06</ele>
        <time>2021-06-06T09:51:39Z</time>
      </trkpt>
      <trkpt lat="44.78851" lon="1.60917">
        <ele>262.58</ele>
        <time>2021-06-06T09:51:53Z</time>
      </trkpt>
      <trkpt lat="44.78837" lon="1.60905">
        <ele>262.1</ele>
        <time>2021-06-06T09:52:06Z</time>
      </trkpt>
      <trkpt lat="44.7882" lon="1.60891">
        <ele>261.14</ele>
        <time>2021-06-06T09:52:21Z</time>
      </trkpt>
      <trkpt lat="44.78809" lon="1.60883">
        <ele>261.14</ele>
        <time>2021-06-06T09:52:33Z</time>
      </trkpt>
      <trkpt lat="44.78807" lon="1.60882">
        <ele>260.65</ele>
        <time>2021-06-06T09:52:43Z</time>
      </trkpt>
      <trkpt lat="44.78807" lon="1.6088">
        <ele>261.14</ele>
        <time>2021-06-06T09:53:01Z</time>
      </trkpt>
      <trkpt lat="44.78808" lon="1.60882">
        <ele>261.14</ele>
        <time>2021-06-06T09:53:09Z</time>
      </trkpt>
      <trkpt lat="44.78795" lon="1.60899">
        <ele>261.14</ele>
        <time>2021-06-06T09:53:23Z</time>
      </trkpt>
      <trkpt lat="44.78788" lon="1.60924">
        <ele>263.06</ele>
        <time>2021-06-06T09:53:39Z</time>
      </trkpt>
      <trkpt lat="44.78783" lon="1.60959">
        <ele>264.5</ele>
        <time>2021-06-06T09:53:57Z</time>
      </trkpt>
      <trkpt lat="44.78779" lon="1.60986">
        <ele>264.5</ele>
        <time>2021-06-06T09:54:12Z</time>
      </trkpt>
      <trkpt lat="44.78773" lon="1.61011">
        <ele>264.98</ele>
        <time>2021-06-06T09:54:27Z</time>
      </trkpt>
      <trkpt lat="44.78765" lon="1.61033">
        <ele>265.94</ele>
        <time>2021-06-06T09:54:40Z</time>
      </trkpt>
      <trkpt lat="44.78753" lon="1.61059">
        <ele>266.42</ele>
        <time>2021-06-06T09:54:56Z</time>
      </trkpt>
      <trkpt lat="44.78747" lon="1.61073">
        <ele>266.42</ele>
        <time>2021-06-06T09:55:06Z</time>
      </trkpt>
      <trkpt lat="44.78744" lon="1.6108">
        <ele>266.42</ele>
        <time>2021-06-06T09:55:11Z</time>
      </trkpt>
      <trkpt lat="44.78734" lon="1.61106">
        <ele>266.9</ele>
        <time>2021-06-06T09:55:28Z</time>
      </trkpt>
      <trkpt lat="44.78727" lon="1.61124">
        <ele>267.38</ele>
        <time>2021-06-06T09:55:40Z</time>
      </trkpt>
      <trkpt lat="44.7872" lon="1.61146">
        <ele>267.38</ele>
        <time>2021-06-06T09:55:54Z</time>
      </trkpt>
      <trkpt lat="44.78716" lon="1.61167">
        <ele>268.35</ele>
        <time>2021-06-06T09:56:07Z</time>
      </trkpt>
      <trkpt lat="44.78709" lon="1.61185">
        <ele>269.31</ele>
        <time>2021-06-06T09:56:18Z</time>
      </trkpt>
      <trkpt lat="44.78704" lon="1.61206">
        <ele>270.27</ele>
        <time>2021-06-06T09:56:33Z</time>
      </trkpt>
      <trkpt lat="44.78701" lon="1.61228">
        <ele>270.75</ele>
        <time>2021-06-06T09:56:47Z</time>
      </trkpt>
      <trkpt lat="44.78697" lon="1.61252">
        <ele>270.75</ele>
        <time>2021-06-06T09:57:01Z</time>
      </trkpt>
      <trkpt lat="44.78696" lon="1.61266">
        <ele>271.23</ele>
        <time>2021-06-06T09:57:09Z</time>
      </trkpt>
      <trkpt lat="44.78694" lon="1.61276">
        <ele>271.71</ele>
        <time>2021-06-06T09:57:15Z</time>
      </trkpt>
      <trkpt lat="44.78692" lon="1.61285">
        <ele>272.19</ele>
        <time>2021-06-06T09:57:21Z</time>
      </trkpt>
      <trkpt lat="44.78682" lon="1.61308">
        <ele>273.15</ele>
        <time>2021-06-06T09:57:37Z</time>
      </trkpt>
      <trkpt lat="44.78676" lon="1.61324">
        <ele>274.59</ele>
        <time>2021-06-06T09:57:48Z</time>
      </trkpt>
      <trkpt lat="44.78677" lon="1.61329">
        <ele>274.59</ele>
        <time>2021-06-06T09:57:58Z</time>
      </trkpt>
      <trkpt lat="44.78678" lon="1.6133">
        <ele>274.59</ele>
        <time>2021-06-06T09:58:15Z</time>
      </trkpt>
      <trkpt lat="44.78677" lon="1.6133">
        <ele>274.59</ele>
        <time>2021-06-06T09:58:32Z</time>
      </trkpt>
      <trkpt lat="44.78678" lon="1.61329">
        <ele>274.59</ele>
        <time>2021-06-06T09:58:47Z</time>
      </trkpt>
      <trkpt lat="44.78677" lon="1.61328">
        <ele>274.59</ele>
        <time>2021-06-06T09:59:01Z</time>
      </trkpt>
      <trkpt lat="44.78678" lon="1.61329">
        <ele>274.59</ele>
        <time>2021-06-06T09:59:12Z</time>
      </trkpt>
      <trkpt lat="44.78676" lon="1.61329">
        <ele>274.59</ele>
        <time>2021-06-06T09:59:28Z</time>
      </trkpt>
      <trkpt lat="44.78676" lon="1.6133">
        <ele>274.59</ele>
        <time>2021-06-06T09:59:44Z</time>
      </trkpt>
      <trkpt lat="44.78677" lon="1.61327">
        <ele>274.59</ele>
        <time>2021-06-06T09:59:53Z</time>
      </trkpt>
      <trkpt lat="44.78677" lon="1.61326">
        <ele>274.59</ele>
        <time>2021-06-06T10:00:11Z</time>
      </trkpt>
      <trkpt lat="44.78677" lon="1.61326">
        <ele>274.11</ele>
        <time>2021-06-06T10:00:30Z</time>
      </trkpt>
      <trkpt lat="44.78677" lon="1.61326">
        <ele>274.11</ele>
        <time>2021-06-06T10:00:55Z</time>
      </trkpt>
      <trkpt lat="44.78677" lon="1.61325">
        <ele>274.11</ele>
        <time>2021-06-06T10:01:16Z</time>
      </trkpt>
      <trkpt lat="44.78677" lon="1.61324">
        <ele>274.11</ele>
        <time>2021-06-06T10:01:29Z</time>
      </trkpt>
      <trkpt lat="44.78677" lon="1.61326">
        <ele>274.11</ele>
        <time>2021-06-06T10:01:38Z</time>
      </trkpt>
      <trkpt lat="44.78678" lon="1.61324">
        <ele>274.11</ele>
        <time>2021-06-06T10:01:49Z</time>
      </trkpt>
      <trkpt lat="44.78678" lon="1.61322">
        <ele>274.11</ele>
        <time>2021-06-06T10:01:51Z</time>
      </trkpt>
      <trkpt lat="44.78679" lon="1.61319">
        <ele>274.11</ele>
        <time>2021-06-06T10:01:54Z</time>
      </trkpt>
      <trkpt lat="44.78685" lon="1.61307">
        <ele>273.15</ele>
        <time>2021-06-06T10:02:05Z</time>
      </trkpt>
      <trkpt lat="44.7869" lon="1.61299">
        <ele>272.67</ele>
        <time>2021-06-06T10:02:12Z</time>
      </trkpt>
      <trkpt lat="44.78693" lon="1.61294">
        <ele>272.19</ele>
        <time>2021-06-06T10:02:16Z</time>
      </trkpt>
      <trkpt lat="44.78694" lon="1.6129">
        <ele>271.71</ele>
        <time>2021-06-06T10:02:19Z</time>
      </trkpt>
      <trkpt lat="44.78696" lon="1.61285">
        <ele>271.71</ele>
        <time>2021-06-06T10:02:23Z</time>
      </trkpt>
      <trkpt lat="44.78697" lon="1.61279">
        <ele>271.71</ele>
        <time>2021-06-06T10:02:27Z</time>
      </trkpt>
      <trkpt lat="44.787" lon="1.61258">
        <ele>270.27</ele>
        <time>2021-06-06T10:02:41Z</time>
      </trkpt>
      <trkpt lat="44.78702" lon="1.61239">
        <ele>270.27</ele>
        <time>2021-06-06T10:02:54Z</time>
      </trkpt>
      <trkpt lat="44.78703" lon="1.61236">
        <ele>270.27</ele>
        <time>2021-06-06T10:02:57Z</time>
      </trkpt>
      <trkpt lat="44.78705" lon="1.6122">
        <ele>269.79</ele>
        <time>2021-06-06T10:03:09Z</time>
      </trkpt>
      <trkpt lat="44.78709" lon="1.61198">
        <ele>268.83</ele>
        <time>2021-06-06T10:03:24Z</time>
      </trkpt>
      <trkpt lat="44.78714" lon="1.6118">
        <ele>268.83</ele>
        <time>2021-06-06T10:03:37Z</time>
      </trkpt>
      <trkpt lat="44.78717" lon="1.61166">
        <ele>268.35</ele>
        <time>2021-06-06T10:03:46Z</time>
      </trkpt>
      <trkpt lat="44.78719" lon="1.61159">
        <ele>268.35</ele>
        <time>2021-06-06T10:03:50Z</time>
      </trkpt>
      <trkpt lat="44.78724" lon="1.61138">
        <ele>267.38</ele>
        <time>2021-06-06T10:04:03Z</time>
      </trkpt>
      <trkpt lat="44.78732" lon="1.61115">
        <ele>267.38</ele>
        <time>2021-06-06T10:04:18Z</time>
      </trkpt>
      <trkpt lat="44.78737" lon="1.61095">
        <ele>266.42</ele>
        <time>2021-06-06T10:04:31Z</time>
      </trkpt>
      <trkpt lat="44.78745" lon="1.61077">
        <ele>266.42</ele>
        <time>2021-06-06T10:04:43Z</time>
      </trkpt>
      <trkpt lat="44.78754" lon="1.61059">
        <ele>265.94</ele>
        <time>2021-06-06T10:04:56Z</time>
      </trkpt>
      <trkpt lat="44.78764" lon="1.6104">
        <ele>265.46</ele>
        <time>2021-06-06T10:05:10Z</time>
      </trkpt>
      <trkpt lat="44.7877" lon="1.61019">
        <ele>264.98</ele>
        <time>2021-06-06T10:05:23Z</time>
      </trkpt>
      <trkpt lat="44.78777" lon="1.60993">
        <ele>264.5</ele>
        <time>2021-06-06T10:05:39Z</time>
      </trkpt>
      <trkpt lat="44.78782" lon="1.60966">
        <ele>264.02</ele>
        <time>2021-06-06T10:05:55Z</time>
      </trkpt>
      <trkpt lat="44.78785" lon="1.6094">
        <ele>263.06</ele>
        <time>2021-06-06T10:06:11Z</time>
      </trkpt>
      <trkpt lat="44.7879" lon="1.60913">
        <ele>262.1</ele>
        <time>2021-06-06T10:06:27Z</time>
      </trkpt>
      <trkpt lat="44.78796" lon="1.60892">
        <ele>261.62</ele>
        <time>2021-06-06T10:06:40Z</time>
      </trkpt>
      <trkpt lat="44.78805" lon="1.60867">
        <ele>261.14</ele>
        <time>2021-06-06T10:06:55Z</time>
      </trkpt>
      <trkpt lat="44.7881" lon="1.60842">
        <ele>260.17</ele>
        <time>2021-06-06T10:07:10Z</time>
      </trkpt>
      <trkpt lat="44.78811" lon="1.60819">
        <ele>257.77</ele>
        <time>2021-06-06T10:07:25Z</time>
      </trkpt>
      <trkpt lat="44.7881" lon="1.60806">
        <ele>256.81</ele>
        <time>2021-06-06T10:07:33Z</time>
      </trkpt>
      <trkpt lat="44.78807" lon="1.60784">
        <ele>255.37</ele>
        <time>2021-06-06T10:07:47Z</time>
      </trkpt>
      <trkpt lat="44.78803" lon="1.60764">
        <ele>252.48</ele>
        <time>2021-06-06T10:08:01Z</time>
      </trkpt>
      <trkpt lat="44.78799" lon="1.60749">
        <ele>250.08</ele>
        <time>2021-06-06T10:08:13Z</time>
      </trkpt>
      <trkpt lat="44.78798" lon="1.60729">
        <ele>247.68</ele>
        <time>2021-06-06T10:08:25Z</time>
      </trkpt>
      <trkpt lat="44.78795" lon="1.60723">
        <ele>247.2</ele>
        <time>2021-06-06T10:08:30Z</time>
      </trkpt>
      <trkpt lat="44.7879" lon="1.60707">
        <ele>245.27</ele>
        <time>2021-06-06T10:08:42Z</time>
      </trkpt>
      <trkpt lat="44.78787" lon="1.60688">
        <ele>243.35</ele>
        <time>2021-06-06T10:08:56Z</time>
      </trkpt>
      <trkpt lat="44.78785" lon="1.60674">
        <ele>241.43</ele>
        <time>2021-06-06T10:09:07Z</time>
      </trkpt>
      <trkpt lat="44.78785" lon="1.60655">
        <ele>239.51</ele>
        <time>2021-06-06T10:09:20Z</time>
      </trkpt>
      <trkpt lat="44.78784" lon="1.6064">
        <ele>237.58</ele>
        <time>2021-06-06T10:09:31Z</time>
      </trkpt>
      <trkpt lat="44.78782" lon="1.60621">
        <ele>235.66</ele>
        <time>2021-06-06T10:09:43Z</time>
      </trkpt>
      <trkpt lat="44.78779" lon="1.60604">
        <ele>233.74</ele>
        <time>2021-06-06T10:09:53Z</time>
      </trkpt>
      <trkpt lat="44.78779" lon="1.60595">
        <ele>233.26</ele>
        <time>2021-06-06T10:09:58Z</time>
      </trkpt>
      <trkpt lat="44.78775" lon="1.60576">
        <ele>231.33</ele>
        <time>2021-06-06T10:10:11Z</time>
      </trkpt>
      <trkpt lat="44.78775" lon="1.60575">
        <ele>231.33</ele>
        <time>2021-06-06T10:10:12Z</time>
      </trkpt>
      <trkpt lat="44.78772" lon="1.60556">
        <ele>229.41</ele>
        <time>2021-06-06T10:10:25Z</time>
      </trkpt>
      <trkpt lat="44.7877" lon="1.60539">
        <ele>227.97</ele>
        <time>2021-06-06T10:10:37Z</time>
      </trkpt>
      <trkpt lat="44.78771" lon="1.60521">
        <ele>227.01</ele>
        <time>2021-06-06T10:10:47Z</time>
      </trkpt>
      <trkpt lat="44.78767" lon="1.60503">
        <ele>225.09</ele>
        <time>2021-06-06T10:11:00Z</time>
      </trkpt>
      <trkpt lat="44.78766" lon="1.60494">
        <ele>224.61</ele>
        <time>2021-06-06T10:11:05Z</time>
      </trkpt>
      <trkpt lat="44.78763" lon="1.60475">
        <ele>223.16</ele>
        <time>2021-06-06T10:11:17Z</time>
      </trkpt>
      <trkpt lat="44.7876" lon="1.6046">
        <ele>221.72</ele>
        <time>2021-06-06T10:11:29Z</time>
      </trkpt>
      <trkpt lat="44.78757" lon="1.60443">
        <ele>219.32</ele>
        <time>2021-06-06T10:11:42Z</time>
      </trkpt>
      <trkpt lat="44.78757" lon="1.60431">
        <ele>218.36</ele>
        <time>2021-06-06T10:11:51Z</time>
      </trkpt>
      <trkpt lat="44.78761" lon="1.60412">
        <ele>216.91</ele>
        <time>2021-06-06T10:12:04Z</time>
      </trkpt>
      <trkpt lat="44.78764" lon="1.60393">
        <ele>214.51</ele>
        <time>2021-06-06T10:12:16Z</time>
      </trkpt>
      <trkpt lat="44.78766" lon="1.60377">
        <ele>213.55</ele>
        <time>2021-06-06T10:12:28Z</time>
      </trkpt>
      <trkpt lat="44.78768" lon="1.60362">
        <ele>213.07</ele>
        <time>2021-06-06T10:12:39Z</time>
      </trkpt>
      <trkpt lat="44.7877" lon="1.60347">
        <ele>210.67</ele>
        <time>2021-06-06T10:12:49Z</time>
      </trkpt>
      <trkpt lat="44.78773" lon="1.60329">
        <ele>209.7</ele>
        <time>2021-06-06T10:13:01Z</time>
      </trkpt>
      <trkpt lat="44.78773" lon="1.60307">
        <ele>208.26</ele>
        <time>2021-06-06T10:13:13Z</time>
      </trkpt>
      <trkpt lat="44.78772" lon="1.60295">
        <ele>207.3</ele>
        <time>2021-06-06T10:13:22Z</time>
      </trkpt>
      <trkpt lat="44.7877" lon="1.60279">
        <ele>205.86</ele>
        <time>2021-06-06T10:13:32Z</time>
      </trkpt>
      <trkpt lat="44.78768" lon="1.60259">
        <ele>203.94</ele>
        <time>2021-06-06T10:13:46Z</time>
      </trkpt>
      <trkpt lat="44.78765" lon="1.60239">
        <ele>202.49</ele>
        <time>2021-06-06T10:13:59Z</time>
      </trkpt>
      <trkpt lat="44.78762" lon="1.60224">
        <ele>201.05</ele>
        <time>2021-06-06T10:14:10Z</time>
      </trkpt>
      <trkpt lat="44.7876" lon="1.6021">
        <ele>200.09</ele>
        <time>2021-06-06T10:14:21Z</time>
      </trkpt>
      <trkpt lat="44.78759" lon="1.60192">
        <ele>198.65</ele>
        <time>2021-06-06T10:14:33Z</time>
      </trkpt>
      <trkpt lat="44.78757" lon="1.60174">
        <ele>196.73</ele>
        <time>2021-06-06T10:14:46Z</time>
      </trkpt>
      <trkpt lat="44.78757" lon="1.60156">
        <ele>195.77</ele>
        <time>2021-06-06T10:14:58Z</time>
      </trkpt>
      <trkpt lat="44.78759" lon="1.60136">
        <ele>193.84</ele>
        <time>2021-06-06T10:15:11Z</time>
      </trkpt>
      <trkpt lat="44.78759" lon="1.6013">
        <ele>192.4</ele>
        <time>2021-06-06T10:15:15Z</time>
      </trkpt>
      <trkpt lat="44.78759" lon="1.60114">
        <ele>190.96</ele>
        <time>2021-06-06T10:15:26Z</time>
      </trkpt>
      <trkpt lat="44.78761" lon="1.60091">
        <ele>189.04</ele>
        <time>2021-06-06T10:15:41Z</time>
      </trkpt>
      <trkpt lat="44.78762" lon="1.60076">
        <ele>187.59</ele>
        <time>2021-06-06T10:15:51Z</time>
      </trkpt>
      <trkpt lat="44.78764" lon="1.60055">
        <ele>186.15</ele>
        <time>2021-06-06T10:16:03Z</time>
      </trkpt>
      <trkpt lat="44.78767" lon="1.60031">
        <ele>184.23</ele>
        <time>2021-06-06T10:16:17Z</time>
      </trkpt>
      <trkpt lat="44.78768" lon="1.60016">
        <ele>183.27</ele>
        <time>2021-06-06T10:16:27Z</time>
      </trkpt>
      <trkpt lat="44.78769" lon="1.59999">
        <ele>181.35</ele>
        <time>2021-06-06T10:16:38Z</time>
      </trkpt>
      <trkpt lat="44.78771" lon="1.59983">
        <ele>179.9</ele>
        <time>2021-06-06T10:16:49Z</time>
      </trkpt>
      <trkpt lat="44.78774" lon="1.59963">
        <ele>178.46</ele>
        <time>2021-06-06T10:17:01Z</time>
      </trkpt>
      <trkpt lat="44.78777" lon="1.59943">
        <ele>176.54</ele>
        <time>2021-06-06T10:17:13Z</time>
      </trkpt>
      <trkpt lat="44.7878" lon="1.59927">
        <ele>175.1</ele>
        <time>2021-06-06T10:17:23Z</time>
      </trkpt>
      <trkpt lat="44.78781" lon="1.5991">
        <ele>174.14</ele>
        <time>2021-06-06T10:17:34Z</time>
      </trkpt>
      <trkpt lat="44.78784" lon="1.59889">
        <ele>172.69</ele>
        <time>2021-06-06T10:17:45Z</time>
      </trkpt>
      <trkpt lat="44.78788" lon="1.59865">
        <ele>170.77</ele>
        <time>2021-06-06T10:17:59Z</time>
      </trkpt>
      <trkpt lat="44.78791" lon="1.59849">
        <ele>169.33</ele>
        <time>2021-06-06T10:18:10Z</time>
      </trkpt>
      <trkpt lat="44.78795" lon="1.59832">
        <ele>168.37</ele>
        <time>2021-06-06T10:18:22Z</time>
      </trkpt>
      <trkpt lat="44.78799" lon="1.59815">
        <ele>166.93</ele>
        <time>2021-06-06T10:18:34Z</time>
      </trkpt>
      <trkpt lat="44.78801" lon="1.598">
        <ele>165.48</ele>
        <time>2021-06-06T10:18:46Z</time>
      </trkpt>
      <trkpt lat="44.78806" lon="1.59787">
        <ele>164.52</ele>
        <time>2021-06-06T10:18:57Z</time>
      </trkpt>
      <trkpt lat="44.78809" lon="1.59773">
        <ele>163.56</ele>
        <time>2021-06-06T10:19:08Z</time>
      </trkpt>
      <trkpt lat="44.78813" lon="1.59757">
        <ele>162.12</ele>
        <time>2021-06-06T10:19:19Z</time>
      </trkpt>
      <trkpt lat="44.78815" lon="1.59742">
        <ele>161.64</ele>
        <time>2021-06-06T10:19:29Z</time>
      </trkpt>
      <trkpt lat="44.78817" lon="1.59729">
        <ele>160.68</ele>
        <time>2021-06-06T10:19:38Z</time>
      </trkpt>
      <trkpt lat="44.78821" lon="1.59709">
        <ele>159.72</ele>
        <time>2021-06-06T10:19:50Z</time>
      </trkpt>
      <trkpt lat="44.78822" lon="1.59704">
        <ele>159.24</ele>
        <time>2021-06-06T10:19:53Z</time>
      </trkpt>
      <trkpt lat="44.78822" lon="1.59702">
        <ele>159.24</ele>
        <time>2021-06-06T10:19:54Z</time>
      </trkpt>
      <trkpt lat="44.78823" lon="1.5968">
        <ele>157.79</ele>
        <time>2021-06-06T10:20:07Z</time>
      </trkpt>
      <trkpt lat="44.78823" lon="1.5966">
        <ele>156.83</ele>
        <time>2021-06-06T10:20:20Z</time>
      </trkpt>
      <trkpt lat="44.78824" lon="1.59656">
        <ele>156.83</ele>
        <time>2021-06-06T10:20:23Z</time>
      </trkpt>
      <trkpt lat="44.78825" lon="1.5964">
        <ele>155.87</ele>
        <time>2021-06-06T10:20:29Z</time>
      </trkpt>
      <trkpt lat="44.78828" lon="1.59614">
        <ele>154.91</ele>
        <time>2021-06-06T10:20:42Z</time>
      </trkpt>
      <trkpt lat="44.78829" lon="1.59595">
        <ele>153.47</ele>
        <time>2021-06-06T10:20:54Z</time>
      </trkpt>
      <trkpt lat="44.78832" lon="1.59577">
        <ele>152.99</ele>
        <time>2021-06-06T10:21:07Z</time>
      </trkpt>
      <trkpt lat="44.78829" lon="1.59552">
        <ele>151.06</ele>
        <time>2021-06-06T10:21:21Z</time>
      </trkpt>
      <trkpt lat="44.78829" lon="1.59532">
        <ele>150.1</ele>
        <time>2021-06-06T10:21:33Z</time>
      </trkpt>
      <trkpt lat="44.78827" lon="1.59517">
        <ele>148.66</ele>
        <time>2021-06-06T10:21:45Z</time>
      </trkpt>
      <trkpt lat="44.78825" lon="1.59499">
        <ele>147.7</ele>
        <time>2021-06-06T10:21:56Z</time>
      </trkpt>
      <trkpt lat="44.78826" lon="1.59473">
        <ele>146.26</ele>
        <time>2021-06-06T10:22:10Z</time>
      </trkpt>
      <trkpt lat="44.7883" lon="1.59452">
        <ele>145.3</ele>
        <time>2021-06-06T10:22:24Z</time>
      </trkpt>
      <trkpt lat="44.78831" lon="1.59433">
        <ele>143.85</ele>
        <time>2021-06-06T10:22:37Z</time>
      </trkpt>
      <trkpt lat="44.78833" lon="1.59418">
        <ele>142.89</ele>
        <time>2021-06-06T10:22:47Z</time>
      </trkpt>
      <trkpt lat="44.78833" lon="1.59403">
        <ele>140.97</ele>
        <time>2021-06-06T10:22:57Z</time>
      </trkpt>
      <trkpt lat="44.78834" lon="1.59401">
        <ele>140.97</ele>
        <time>2021-06-06T10:22:58Z</time>
      </trkpt>
      <trkpt lat="44.7884" lon="1.59379">
        <ele>139.53</ele>
        <time>2021-06-06T10:23:10Z</time>
      </trkpt>
      <trkpt lat="44.78842" lon="1.59374">
        <ele>139.05</ele>
        <time>2021-06-06T10:23:15Z</time>
      </trkpt>
      <trkpt lat="44.78849" lon="1.59362">
        <ele>138.09</ele>
        <time>2021-06-06T10:23:27Z</time>
      </trkpt>
      <trkpt lat="44.78859" lon="1.59354">
        <ele>137.13</ele>
        <time>2021-06-06T10:23:39Z</time>
      </trkpt>
      <trkpt lat="44.78868" lon="1.59353">
        <ele>137.13</ele>
        <time>2021-06-06T10:23:48Z</time>
      </trkpt>
      <trkpt lat="44.7888" lon="1.59351">
        <ele>136.64</ele>
        <time>2021-06-06T10:23:59Z</time>
      </trkpt>
      <trkpt lat="44.78892" lon="1.59345">
        <ele>136.16</ele>
        <time>2021-06-06T10:24:11Z</time>
      </trkpt>
      <trkpt lat="44.78903" lon="1.59339">
        <ele>136.16</ele>
        <time>2021-06-06T10:24:22Z</time>
      </trkpt>
      <trkpt lat="44.78908" lon="1.59339">
        <ele>136.16</ele>
        <time>2021-06-06T10:24:24Z</time>
      </trkpt>
      <trkpt lat="44.78926" lon="1.59336">
        <ele>135.68</ele>
        <time>2021-06-06T10:24:37Z</time>
      </trkpt>
      <trkpt lat="44.78938" lon="1.59335">
        <ele>135.2</ele>
        <time>2021-06-06T10:24:48Z</time>
      </trkpt>
      <trkpt lat="44.78948" lon="1.59332">
        <ele>134.24</ele>
        <time>2021-06-06T10:24:57Z</time>
      </trkpt>
      <trkpt lat="44.78959" lon="1.59339">
        <ele>133.76</ele>
        <time>2021-06-06T10:25:10Z</time>
      </trkpt>
      <trkpt lat="44.78979" lon="1.59334">
        <ele>133.76</ele>
        <time>2021-06-06T10:25:22Z</time>
      </trkpt>
      <trkpt lat="44.78994" lon="1.59335">
        <ele>133.76</ele>
        <time>2021-06-06T10:25:36Z</time>
      </trkpt>
      <trkpt lat="44.79005" lon="1.59337">
        <ele>133.76</ele>
        <time>2021-06-06T10:25:47Z</time>
      </trkpt>
      <trkpt lat="44.79012" lon="1.59336">
        <ele>133.76</ele>
        <time>2021-06-06T10:25:52Z</time>
      </trkpt>
      <trkpt lat="44.79029" lon="1.59335">
        <ele>133.28</ele>
        <time>2021-06-06T10:26:04Z</time>
      </trkpt>
      <trkpt lat="44.79035" lon="1.59333">
        <ele>132.8</ele>
        <time>2021-06-06T10:26:08Z</time>
      </trkpt>
      <trkpt lat="44.79052" lon="1.59324">
        <ele>132.8</ele>
        <time>2021-06-06T10:26:23Z</time>
      </trkpt>
      <trkpt lat="44.79063" lon="1.59309">
        <ele>132.8</ele>
        <time>2021-06-06T10:26:35Z</time>
      </trkpt>
      <trkpt lat="44.79073" lon="1.59296">
        <ele>131.36</ele>
        <time>2021-06-06T10:26:48Z</time>
      </trkpt>
      <trkpt lat="44.7908" lon="1.59289">
        <ele>131.36</ele>
        <time>2021-06-06T10:26:58Z</time>
      </trkpt>
      <trkpt lat="44.79082" lon="1.59292">
        <ele>129.43</ele>
        <time>2021-06-06T10:27:04Z</time>
      </trkpt>
      <trkpt lat="44.79084" lon="1.59295">
        <ele>129.43</ele>
        <time>2021-06-06T10:27:07Z</time>
      </trkpt>
      <trkpt lat="44.79086" lon="1.59302">
        <ele>127.99</ele>
        <time>2021-06-06T10:27:16Z</time>
      </trkpt>
      <trkpt lat="44.7909" lon="1.59315">
        <ele>127.99</ele>
        <time>2021-06-06T10:27:26Z</time>
      </trkpt>
      <trkpt lat="44.79091" lon="1.59317">
        <ele>127.99</ele>
        <time>2021-06-06T10:27:36Z</time>
      </trkpt>
      <trkpt lat="44.79091" lon="1.59315">
        <ele>127.51</ele>
        <time>2021-06-06T10:27:50Z</time>
      </trkpt>
      <trkpt lat="44.79092" lon="1.59313">
        <ele>127.51</ele>
        <time>2021-06-06T10:28:10Z</time>
      </trkpt>
      <trkpt lat="44.79092" lon="1.5931">
        <ele>127.51</ele>
        <time>2021-06-06T10:28:28Z</time>
      </trkpt>
      <trkpt lat="44.79093" lon="1.59313">
        <ele>127.51</ele>
        <time>2021-06-06T10:28:40Z</time>
      </trkpt>
      <trkpt lat="44.79094" lon="1.59321">
        <ele>128.47</ele>
        <time>2021-06-06T10:28:46Z</time>
      </trkpt>
      <trkpt lat="44.79096" lon="1.59326">
        <ele>128.95</ele>
        <time>2021-06-06T10:29:00Z</time>
      </trkpt>
      <trkpt lat="44.79098" lon="1.59321">
        <ele>129.43</ele>
        <time>2021-06-06T10:29:10Z</time>
      </trkpt>
      <trkpt lat="44.79095" lon="1.59304">
        <ele>130.88</ele>
        <time>2021-06-06T10:29:22Z</time>
      </trkpt>
      <trkpt lat="44.79089" lon="1.59289">
        <ele>132.32</ele>
        <time>2021-06-06T10:29:33Z</time>
      </trkpt>
      <trkpt lat="44.79093" lon="1.59288">
        <ele>132.8</ele>
        <time>2021-06-06T10:29:44Z</time>
      </trkpt>
      <trkpt lat="44.79089" lon="1.59282">
        <ele>132.8</ele>
        <time>2021-06-06T10:29:56Z</time>
      </trkpt>
      <trkpt lat="44.79089" lon="1.59282">
        <ele>132.8</ele>
        <time>2021-06-06T10:30:14Z</time>
      </trkpt>
      <trkpt lat="44.79092" lon="1.5928">
        <ele>132.8</ele>
        <time>2021-06-06T10:30:25Z</time>
      </trkpt>
      <trkpt lat="44.79095" lon="1.59277">
        <ele>133.28</ele>
        <time>2021-06-06T10:30:34Z</time>
      </trkpt>
      <trkpt lat="44.79098" lon="1.59266">
        <ele>134.72</ele>
        <time>2021-06-06T10:30:46Z</time>
      </trkpt>
      <trkpt lat="44.79104" lon="1.59256">
        <ele>134.72</ele>
        <time>2021-06-06T10:30:57Z</time>
      </trkpt>
      <trkpt lat="44.79106" lon="1.59241">
        <ele>134.72</ele>
        <time>2021-06-06T10:31:08Z</time>
      </trkpt>
      <trkpt lat="44.79113" lon="1.59226">
        <ele>133.28</ele>
        <time>2021-06-06T10:31:19Z</time>
      </trkpt>
      <trkpt lat="44.79116" lon="1.59221">
        <ele>133.28</ele>
        <time>2021-06-06T10:31:21Z</time>
      </trkpt>
      <trkpt lat="44.7912" lon="1.59202">
        <ele>133.28</ele>
        <time>2021-06-06T10:31:33Z</time>
      </trkpt>
      <trkpt lat="44.79124" lon="1.59182">
        <ele>133.28</ele>
        <time>2021-06-06T10:31:45Z</time>
      </trkpt>
      <trkpt lat="44.7913" lon="1.59165">
        <ele>132.8</ele>
        <time>2021-06-06T10:31:58Z</time>
      </trkpt>
      <trkpt lat="44.79137" lon="1.59145">
        <ele>132.8</ele>
        <time>2021-06-06T10:32:12Z</time>
      </trkpt>
      <trkpt lat="44.79142" lon="1.59127">
        <ele>132.32</ele>
        <time>2021-06-06T10:32:23Z</time>
      </trkpt>
      <trkpt lat="44.79149" lon="1.59111">
        <ele>131.36</ele>
        <time>2021-06-06T10:32:35Z</time>
      </trkpt>
      <trkpt lat="44.79158" lon="1.59098">
        <ele>131.36</ele>
        <time>2021-06-06T10:32:47Z</time>
      </trkpt>
      <trkpt lat="44.79166" lon="1.59088">
        <ele>131.36</ele>
        <time>2021-06-06T10:32:59Z</time>
      </trkpt>
      <trkpt lat="44.79176" lon="1.59075">
        <ele>131.36</ele>
        <time>2021-06-06T10:33:11Z</time>
      </trkpt>
      <trkpt lat="44.79178" lon="1.5907">
        <ele>131.36</ele>
        <time>2021-06-06T10:33:17Z</time>
      </trkpt>
      <trkpt lat="44.79185" lon="1.59058">
        <ele>131.36</ele>
        <time>2021-06-06T10:33:28Z</time>
      </trkpt>
      <trkpt lat="44.79188" lon="1.5905">
        <ele>131.36</ele>
        <time>2021-06-06T10:33:34Z</time>
      </trkpt>
      <trkpt lat="44.79191" lon="1.59029">
        <ele>130.88</ele>
        <time>2021-06-06T10:33:47Z</time>
      </trkpt>
      <trkpt lat="44.79192" lon="1.59014">
        <ele>130.88</ele>
        <time>2021-06-06T10:33:57Z</time>
      </trkpt>
      <trkpt lat="44.79191" lon="1.58996">
        <ele>130.88</ele>
        <time>2021-06-06T10:34:08Z</time>
      </trkpt>
      <trkpt lat="44.79187" lon="1.58984">
        <ele>131.36</ele>
        <time>2021-06-06T10:34:19Z</time>
      </trkpt>
      <trkpt lat="44.79184" lon="1.5897">
        <ele>131.36</ele>
        <time>2021-06-06T10:34:30Z</time>
      </trkpt>
      <trkpt lat="44.79183" lon="1.58957">
        <ele>131.36</ele>
        <time>2021-06-06T10:34:42Z</time>
      </trkpt>
      <trkpt lat="44.79186" lon="1.58943">
        <ele>130.88</ele>
        <time>2021-06-06T10:34:52Z</time>
      </trkpt>
      <trkpt lat="44.79187" lon="1.58932">
        <ele>131.36</ele>
        <time>2021-06-06T10:35:02Z</time>
      </trkpt>
      <trkpt lat="44.79188" lon="1.58923">
        <ele>131.36</ele>
        <time>2021-06-06T10:35:11Z</time>
      </trkpt>
      <trkpt lat="44.79191" lon="1.58911">
        <ele>131.36</ele>
        <time>2021-06-06T10:35:20Z</time>
      </trkpt>
      <trkpt lat="44.79195" lon="1.58897">
        <ele>131.84</ele>
        <time>2021-06-06T10:35:30Z</time>
      </trkpt>
      <trkpt lat="44.79198" lon="1.5888">
        <ele>132.32</ele>
        <time>2021-06-06T10:35:41Z</time>
      </trkpt>
      <trkpt lat="44.79199" lon="1.58863">
        <ele>132.32</ele>
        <time>2021-06-06T10:35:52Z</time>
      </trkpt>
      <trkpt lat="44.79199" lon="1.58843">
        <ele>132.32</ele>
        <time>2021-06-06T10:36:03Z</time>
      </trkpt>
      <trkpt lat="44.79202" lon="1.58825">
        <ele>132.32</ele>
        <time>2021-06-06T10:36:15Z</time>
      </trkpt>
      <trkpt lat="44.79202" lon="1.58819">
        <ele>132.8</ele>
        <time>2021-06-06T10:36:22Z</time>
      </trkpt>
      <trkpt lat="44.79205" lon="1.58794">
        <ele>132.8</ele>
        <time>2021-06-06T10:36:33Z</time>
      </trkpt>
      <trkpt lat="44.79205" lon="1.58791">
        <ele>132.8</ele>
        <time>2021-06-06T10:36:34Z</time>
      </trkpt>
      <trkpt lat="44.79204" lon="1.58774">
        <ele>133.28</ele>
        <time>2021-06-06T10:36:44Z</time>
      </trkpt>
      <trkpt lat="44.79202" lon="1.58759">
        <ele>133.28</ele>
        <time>2021-06-06T10:36:54Z</time>
      </trkpt>
      <trkpt lat="44.79202" lon="1.58735">
        <ele>133.76</ele>
        <time>2021-06-06T10:37:07Z</time>
      </trkpt>
      <trkpt lat="44.79202" lon="1.58724">
        <ele>133.76</ele>
        <time>2021-06-06T10:37:16Z</time>
      </trkpt>
      <trkpt lat="44.79201" lon="1.587">
        <ele>133.76</ele>
        <time>2021-06-06T10:37:30Z</time>
      </trkpt>
      <trkpt lat="44.79196" lon="1.58682">
        <ele>133.76</ele>
        <time>2021-06-06T10:37:42Z</time>
      </trkpt>
      <trkpt lat="44.79193" lon="1.58666">
        <ele>134.24</ele>
        <time>2021-06-06T10:37:52Z</time>
      </trkpt>
      <trkpt lat="44.79188" lon="1.5865">
        <ele>134.24</ele>
        <time>2021-06-06T10:38:03Z</time>
      </trkpt>
      <trkpt lat="44.79183" lon="1.58639">
        <ele>133.76</ele>
        <time>2021-06-06T10:38:13Z</time>
      </trkpt>
      <trkpt lat="44.79175" lon="1.58634">
        <ele>134.24</ele>
        <time>2021-06-06T10:38:25Z</time>
      </trkpt>
      <trkpt lat="44.79166" lon="1.58631">
        <ele>134.24</ele>
        <time>2021-06-06T10:38:36Z</time>
      </trkpt>
      <trkpt lat="44.79155" lon="1.58628">
        <ele>134.72</ele>
        <time>2021-06-06T10:38:47Z</time>
      </trkpt>
      <trkpt lat="44.79143" lon="1.58622">
        <ele>135.2</ele>
        <time>2021-06-06T10:38:59Z</time>
      </trkpt>
      <trkpt lat="44.79132" lon="1.58604">
        <ele>136.16</ele>
        <time>2021-06-06T10:39:12Z</time>
      </trkpt>
      <trkpt lat="44.79119" lon="1.58577">
        <ele>135.68</ele>
        <time>2021-06-06T10:39:25Z</time>
      </trkpt>
      <trkpt lat="44.7911" lon="1.58561">
        <ele>136.16</ele>
        <time>2021-06-06T10:39:34Z</time>
      </trkpt>
      <trkpt lat="44.79105" lon="1.58542">
        <ele>136.64</ele>
        <time>2021-06-06T10:39:46Z</time>
      </trkpt>
      <trkpt lat="44.79099" lon="1.58523">
        <ele>136.64</ele>
        <time>2021-06-06T10:39:58Z</time>
      </trkpt>
      <trkpt lat="44.79098" lon="1.58508">
        <ele>137.13</ele>
        <time>2021-06-06T10:40:09Z</time>
      </trkpt>
      <trkpt lat="44.79098" lon="1.58503">
        <ele>139.53</ele>
        <time>2021-06-06T10:40:11Z</time>
      </trkpt>
      <trkpt lat="44.79096" lon="1.585">
        <ele>137.61</ele>
        <time>2021-06-06T10:40:13Z</time>
      </trkpt>
      <trkpt lat="44.79088" lon="1.58481">
        <ele>137.13</ele>
        <time>2021-06-06T10:40:24Z</time>
      </trkpt>
      <trkpt lat="44.7908" lon="1.58469">
        <ele>137.13</ele>
        <time>2021-06-06T10:40:34Z</time>
      </trkpt>
      <trkpt lat="44.79065" lon="1.58459">
        <ele>137.13</ele>
        <time>2021-06-06T10:40:53Z</time>
      </trkpt>
      <trkpt lat="44.79058" lon="1.58452">
        <ele>129.43</ele>
        <time>2021-06-06T10:41:09Z</time>
      </trkpt>
      <trkpt lat="44.79058" lon="1.58452">
        <ele>137.61</ele>
        <time>2021-06-06T10:41:10Z</time>
      </trkpt>
      <trkpt lat="44.79055" lon="1.58452">
        <ele>139.53</ele>
        <time>2021-06-06T10:41:17Z</time>
      </trkpt>
      <trkpt lat="44.79048" lon="1.58452">
        <ele>139.53</ele>
        <time>2021-06-06T10:41:27Z</time>
      </trkpt>
      <trkpt lat="44.79036" lon="1.5845">
        <ele>139.53</ele>
        <time>2021-06-06T10:41:38Z</time>
      </trkpt>
      <trkpt lat="44.79028" lon="1.58449">
        <ele>138.09</ele>
        <time>2021-06-06T10:41:45Z</time>
      </trkpt>
      <trkpt lat="44.79022" lon="1.58448">
        <ele>137.61</ele>
        <time>2021-06-06T10:41:56Z</time>
      </trkpt>
      <trkpt lat="44.79011" lon="1.58444">
        <ele>137.13</ele>
        <time>2021-06-06T10:42:08Z</time>
      </trkpt>
      <trkpt lat="44.79009" lon="1.58443">
        <ele>139.05</ele>
        <time>2021-06-06T10:42:10Z</time>
      </trkpt>
      <trkpt lat="44.79005" lon="1.58438">
        <ele>139.53</ele>
        <time>2021-06-06T10:42:21Z</time>
      </trkpt>
      <trkpt lat="44.79004" lon="1.58437">
        <ele>139.53</ele>
        <time>2021-06-06T10:42:23Z</time>
      </trkpt>
      <trkpt lat="44.79004" lon="1.58431">
        <ele>138.09</ele>
        <time>2021-06-06T10:42:28Z</time>
      </trkpt>
      <trkpt lat="44.79004" lon="1.58422">
        <ele>138.09</ele>
        <time>2021-06-06T10:42:35Z</time>
      </trkpt>
      <trkpt lat="44.79003" lon="1.58407">
        <ele>137.13</ele>
        <time>2021-06-06T10:42:46Z</time>
      </trkpt>
      <trkpt lat="44.79001" lon="1.58395">
        <ele>138.57</ele>
        <time>2021-06-06T10:42:54Z</time>
      </trkpt>
      <trkpt lat="44.78999" lon="1.58377">
        <ele>140.49</ele>
        <time>2021-06-06T10:43:06Z</time>
      </trkpt>
      <trkpt lat="44.79" lon="1.58362">
        <ele>142.41</ele>
        <time>2021-06-06T10:43:17Z</time>
      </trkpt>
      <trkpt lat="44.79002" lon="1.58351">
        <ele>143.85</ele>
        <time>2021-06-06T10:43:27Z</time>
      </trkpt>
      <trkpt lat="44.79002" lon="1.5835">
        <ele>143.85</ele>
        <time>2021-06-06T10:43:28Z</time>
      </trkpt>
      <trkpt lat="44.79005" lon="1.58333">
        <ele>145.3</ele>
        <time>2021-06-06T10:43:41Z</time>
      </trkpt>
      <trkpt lat="44.79006" lon="1.58323">
        <ele>145.78</ele>
        <time>2021-06-06T10:43:48Z</time>
      </trkpt>
      <trkpt lat="44.79008" lon="1.58317">
        <ele>147.22</ele>
        <time>2021-06-06T10:43:51Z</time>
      </trkpt>
      <trkpt lat="44.79005" lon="1.58301">
        <ele>148.66</ele>
        <time>2021-06-06T10:44:03Z</time>
      </trkpt>
      <trkpt lat="44.7901" lon="1.58275">
        <ele>149.14</ele>
        <time>2021-06-06T10:44:17Z</time>
      </trkpt>
      <trkpt lat="44.7901" lon="1.58254">
        <ele>148.66</ele>
        <time>2021-06-06T10:44:29Z</time>
      </trkpt>
      <trkpt lat="44.79009" lon="1.5823">
        <ele>147.7</ele>
        <time>2021-06-06T10:44:43Z</time>
      </trkpt>
      <trkpt lat="44.79007" lon="1.58211">
        <ele>146.74</ele>
        <time>2021-06-06T10:44:55Z</time>
      </trkpt>
      <trkpt lat="44.79004" lon="1.58191">
        <ele>145.78</ele>
        <time>2021-06-06T10:45:08Z</time>
      </trkpt>
      <trkpt lat="44.79006" lon="1.58173">
        <ele>145.3</ele>
        <time>2021-06-06T10:45:19Z</time>
      </trkpt>
      <trkpt lat="44.79009" lon="1.58161">
        <ele>145.3</ele>
        <time>2021-06-06T10:45:27Z</time>
      </trkpt>
      <trkpt lat="44.79004" lon="1.58142">
        <ele>145.3</ele>
        <time>2021-06-06T10:45:39Z</time>
      </trkpt>
      <trkpt lat="44.79003" lon="1.58124">
        <ele>145.3</ele>
        <time>2021-06-06T10:45:51Z</time>
      </trkpt>
      <trkpt lat="44.79002" lon="1.58107">
        <ele>144.34</ele>
        <time>2021-06-06T10:46:01Z</time>
      </trkpt>
      <trkpt lat="44.79002" lon="1.58089">
        <ele>144.82</ele>
        <time>2021-06-06T10:46:12Z</time>
      </trkpt>
      <trkpt lat="44.79002" lon="1.58066">
        <ele>144.34</ele>
        <time>2021-06-06T10:46:25Z</time>
      </trkpt>
      <trkpt lat="44.78999" lon="1.58046">
        <ele>144.34</ele>
        <time>2021-06-06T10:46:37Z</time>
      </trkpt>
      <trkpt lat="44.78997" lon="1.58023">
        <ele>143.85</ele>
        <time>2021-06-06T10:46:51Z</time>
      </trkpt>
      <trkpt lat="44.78994" lon="1.58005">
        <ele>142.89</ele>
        <time>2021-06-06T10:47:02Z</time>
      </trkpt>
      <trkpt lat="44.7899" lon="1.57986">
        <ele>141.93</ele>
        <time>2021-06-06T10:47:15Z</time>
      </trkpt>
      <trkpt lat="44.78992" lon="1.57969">
        <ele>139.05</ele>
        <time>2021-06-06T10:47:28Z</time>
      </trkpt>
      <trkpt lat="44.78992" lon="1.57961">
        <ele>139.53</ele>
        <time>2021-06-06T10:47:32Z</time>
      </trkpt>
      <trkpt lat="44.78994" lon="1.57951">
        <ele>138.57</ele>
        <time>2021-06-06T10:47:39Z</time>
      </trkpt>
      <trkpt lat="44.79" lon="1.57935">
        <ele>137.61</ele>
        <time>2021-06-06T10:47:49Z</time>
      </trkpt>
      <trkpt lat="44.79002" lon="1.57925">
        <ele>135.68</ele>
        <time>2021-06-06T10:47:55Z</time>
      </trkpt>
      <trkpt lat="44.79003" lon="1.57919">
        <ele>137.13</ele>
        <time>2021-06-06T10:47:58Z</time>
      </trkpt>
      <trkpt lat="44.79003" lon="1.57915">
        <ele>137.13</ele>
        <time>2021-06-06T10:48:00Z</time>
      </trkpt>
      <trkpt lat="44.78999" lon="1.57896">
        <ele>136.16</ele>
        <time>2021-06-06T10:48:10Z</time>
      </trkpt>
      <trkpt lat="44.78997" lon="1.57888">
        <ele>136.16</ele>
        <time>2021-06-06T10:48:14Z</time>
      </trkpt>
      <trkpt lat="44.78988" lon="1.57859">
        <ele>136.64</ele>
        <time>2021-06-06T10:48:29Z</time>
      </trkpt>
      <trkpt lat="44.78972" lon="1.57833">
        <ele>137.61</ele>
        <time>2021-06-06T10:48:42Z</time>
      </trkpt>
      <trkpt lat="44.78972" lon="1.57831">
        <ele>137.61</ele>
        <time>2021-06-06T10:48:43Z</time>
      </trkpt>
      <trkpt lat="44.78971" lon="1.5781">
        <ele>137.61</ele>
        <time>2021-06-06T10:48:56Z</time>
      </trkpt>
      <trkpt lat="44.78974" lon="1.57793">
        <ele>138.09</ele>
        <time>2021-06-06T10:49:08Z</time>
      </trkpt>
      <trkpt lat="44.78978" lon="1.5777">
        <ele>138.57</ele>
        <time>2021-06-06T10:49:23Z</time>
      </trkpt>
      <trkpt lat="44.78982" lon="1.57753">
        <ele>140.01</ele>
        <time>2021-06-06T10:49:36Z</time>
      </trkpt>
      <trkpt lat="44.78985" lon="1.5774">
        <ele>140.97</ele>
        <time>2021-06-06T10:49:44Z</time>
      </trkpt>
      <trkpt lat="44.78985" lon="1.57725">
        <ele>141.93</ele>
        <time>2021-06-06T10:49:53Z</time>
      </trkpt>
      <trkpt lat="44.78986" lon="1.57704">
        <ele>143.37</ele>
        <time>2021-06-06T10:50:05Z</time>
      </trkpt>
      <trkpt lat="44.78992" lon="1.57679">
        <ele>145.3</ele>
        <time>2021-06-06T10:50:20Z</time>
      </trkpt>
      <trkpt lat="44.78999" lon="1.57662">
        <ele>147.7</ele>
        <time>2021-06-06T10:50:32Z</time>
      </trkpt>
      <trkpt lat="44.79008" lon="1.57648">
        <ele>148.66</ele>
        <time>2021-06-06T10:50:43Z</time>
      </trkpt>
      <trkpt lat="44.79015" lon="1.57631">
        <ele>150.58</ele>
        <time>2021-06-06T10:50:57Z</time>
      </trkpt>
      <trkpt lat="44.79019" lon="1.57627">
        <ele>150.58</ele>
        <time>2021-06-06T10:51:02Z</time>
      </trkpt>
      <trkpt lat="44.79022" lon="1.57625">
        <ele>150.58</ele>
        <time>2021-06-06T10:51:05Z</time>
      </trkpt>
      <trkpt lat="44.79033" lon="1.57605">
        <ele>150.58</ele>
        <time>2021-06-06T10:51:20Z</time>
      </trkpt>
      <trkpt lat="44.7904" lon="1.57583">
        <ele>152.99</ele>
        <time>2021-06-06T10:51:34Z</time>
      </trkpt>
      <trkpt lat="44.79045" lon="1.57567">
        <ele>154.91</ele>
        <time>2021-06-06T10:51:46Z</time>
      </trkpt>
      <trkpt lat="44.79049" lon="1.5755">
        <ele>156.35</ele>
        <time>2021-06-06T10:51:58Z</time>
      </trkpt>
      <trkpt lat="44.79056" lon="1.57534">
        <ele>156.83</ele>
        <time>2021-06-06T10:52:09Z</time>
      </trkpt>
      <trkpt lat="44.79062" lon="1.57524">
        <ele>157.79</ele>
        <time>2021-06-06T10:52:19Z</time>
      </trkpt>
      <trkpt lat="44.7907" lon="1.57509">
        <ele>157.79</ele>
        <time>2021-06-06T10:52:32Z</time>
      </trkpt>
      <trkpt lat="44.79075" lon="1.57493">
        <ele>158.27</ele>
        <time>2021-06-06T10:52:43Z</time>
      </trkpt>
      <trkpt lat="44.79082" lon="1.57482">
        <ele>158.27</ele>
        <time>2021-06-06T10:52:55Z</time>
      </trkpt>
      <trkpt lat="44.79089" lon="1.57471">
        <ele>159.24</ele>
        <time>2021-06-06T10:53:05Z</time>
      </trkpt>
      <trkpt lat="44.79098" lon="1.57457">
        <ele>159.72</ele>
        <time>2021-06-06T10:53:16Z</time>
      </trkpt>
      <trkpt lat="44.79105" lon="1.5744">
        <ele>159.72</ele>
        <time>2021-06-06T10:53:28Z</time>
      </trkpt>
      <trkpt lat="44.79115" lon="1.57423">
        <ele>159.72</ele>
        <time>2021-06-06T10:53:40Z</time>
      </trkpt>
      <trkpt lat="44.79115" lon="1.57412">
        <ele>159.72</ele>
        <time>2021-06-06T10:53:47Z</time>
      </trkpt>
      <trkpt lat="44.79115" lon="1.57407">
        <ele>159.72</ele>
        <time>2021-06-06T10:53:49Z</time>
      </trkpt>
      <trkpt lat="44.79128" lon="1.57384">
        <ele>158.27</ele>
        <time>2021-06-06T10:54:04Z</time>
      </trkpt>
      <trkpt lat="44.79129" lon="1.57382">
        <ele>158.27</ele>
        <time>2021-06-06T10:54:05Z</time>
      </trkpt>
      <trkpt lat="44.79139" lon="1.5736">
        <ele>158.27</ele>
        <time>2021-06-06T10:54:20Z</time>
      </trkpt>
      <trkpt lat="44.79147" lon="1.57337">
        <ele>158.27</ele>
        <time>2021-06-06T10:54:32Z</time>
      </trkpt>
      <trkpt lat="44.79155" lon="1.5731">
        <ele>158.27</ele>
        <time>2021-06-06T10:54:46Z</time>
      </trkpt>
      <trkpt lat="44.79158" lon="1.57284">
        <ele>157.31</ele>
        <time>2021-06-06T10:55:00Z</time>
      </trkpt>
      <trkpt lat="44.79159" lon="1.5726">
        <ele>157.31</ele>
        <time>2021-06-06T10:55:13Z</time>
      </trkpt>
      <trkpt lat="44.79163" lon="1.57236">
        <ele>156.83</ele>
        <time>2021-06-06T10:55:27Z</time>
      </trkpt>
      <trkpt lat="44.79165" lon="1.5721">
        <ele>156.35</ele>
        <time>2021-06-06T10:55:42Z</time>
      </trkpt>
      <trkpt lat="44.79162" lon="1.57189">
        <ele>155.87</ele>
        <time>2021-06-06T10:55:54Z</time>
      </trkpt>
      <trkpt lat="44.79155" lon="1.57167">
        <ele>156.83</ele>
        <time>2021-06-06T10:56:09Z</time>
      </trkpt>
      <trkpt lat="44.79149" lon="1.57164">
        <ele>156.83</ele>
        <time>2021-06-06T10:56:18Z</time>
      </trkpt>
      <trkpt lat="44.79145" lon="1.57166">
        <ele>155.39</ele>
        <time>2021-06-06T10:56:33Z</time>
      </trkpt>
      <trkpt lat="44.79144" lon="1.57168">
        <ele>156.35</ele>
        <time>2021-06-06T10:56:47Z</time>
      </trkpt>
      <trkpt lat="44.79145" lon="1.57165">
        <ele>156.35</ele>
        <time>2021-06-06T10:56:58Z</time>
      </trkpt>
      <trkpt lat="44.79146" lon="1.57164">
        <ele>156.35</ele>
        <time>2021-06-06T10:57:09Z</time>
      </trkpt>
      <trkpt lat="44.79145" lon="1.57163">
        <ele>154.91</ele>
        <time>2021-06-06T10:57:12Z</time>
      </trkpt>
      <trkpt lat="44.79146" lon="1.5716">
        <ele>155.87</ele>
        <time>2021-06-06T10:57:22Z</time>
      </trkpt>
      <trkpt lat="44.79145" lon="1.57154">
        <ele>155.39</ele>
        <time>2021-06-06T10:57:33Z</time>
      </trkpt>
      <trkpt lat="44.79144" lon="1.57148">
        <ele>154.91</ele>
        <time>2021-06-06T10:57:40Z</time>
      </trkpt>
      <trkpt lat="44.79139" lon="1.57131">
        <ele>154.91</ele>
        <time>2021-06-06T10:57:54Z</time>
      </trkpt>
      <trkpt lat="44.79134" lon="1.5712">
        <ele>153.95</ele>
        <time>2021-06-06T10:58:04Z</time>
      </trkpt>
      <trkpt lat="44.79126" lon="1.57111">
        <ele>152.51</ele>
        <time>2021-06-06T10:58:13Z</time>
      </trkpt>
      <trkpt lat="44.79117" lon="1.57103">
        <ele>151.06</ele>
        <time>2021-06-06T10:58:24Z</time>
      </trkpt>
      <trkpt lat="44.79107" lon="1.57096">
        <ele>149.14</ele>
        <time>2021-06-06T10:58:35Z</time>
      </trkpt>
      <trkpt lat="44.79089" lon="1.5709">
        <ele>148.18</ele>
        <time>2021-06-06T10:58:50Z</time>
      </trkpt>
      <trkpt lat="44.79077" lon="1.57081">
        <ele>148.18</ele>
        <time>2021-06-06T10:59:02Z</time>
      </trkpt>
      <trkpt lat="44.79074" lon="1.57065">
        <ele>149.14</ele>
        <time>2021-06-06T10:59:15Z</time>
      </trkpt>
      <trkpt lat="44.79075" lon="1.57063">
        <ele>149.14</ele>
        <time>2021-06-06T10:59:17Z</time>
      </trkpt>
      <trkpt lat="44.79083" lon="1.57053">
        <ele>147.7</ele>
        <time>2021-06-06T10:59:28Z</time>
      </trkpt>
      <trkpt lat="44.79084" lon="1.57052">
        <ele>147.7</ele>
        <time>2021-06-06T10:59:29Z</time>
      </trkpt>
      <trkpt lat="44.79096" lon="1.57045">
        <ele>146.74</ele>
        <time>2021-06-06T10:59:40Z</time>
      </trkpt>
      <trkpt lat="44.79105" lon="1.57038">
        <ele>144.82</ele>
        <time>2021-06-06T10:59:49Z</time>
      </trkpt>
      <trkpt lat="44.79108" lon="1.57036">
        <ele>143.85</ele>
        <time>2021-06-06T10:59:53Z</time>
      </trkpt>
      <trkpt lat="44.79112" lon="1.57024">
        <ele>142.41</ele>
        <time>2021-06-06T11:00:02Z</time>
      </trkpt>
      <trkpt lat="44.79113" lon="1.57022">
        <ele>142.41</ele>
        <time>2021-06-06T11:00:03Z</time>
      </trkpt>
      <trkpt lat="44.79114" lon="1.5702">
        <ele>142.41</ele>
        <time>2021-06-06T11:00:04Z</time>
      </trkpt>
      <trkpt lat="44.79114" lon="1.57017">
        <ele>142.41</ele>
        <time>2021-06-06T11:00:06Z</time>
      </trkpt>
      <trkpt lat="44.79114" lon="1.57011">
        <ele>141.93</ele>
        <time>2021-06-06T11:00:09Z</time>
      </trkpt>
      <trkpt lat="44.79118" lon="1.56993">
        <ele>140.97</ele>
        <time>2021-06-06T11:00:20Z</time>
      </trkpt>
      <trkpt lat="44.79118" lon="1.56975">
        <ele>140.49</ele>
        <time>2021-06-06T11:00:31Z</time>
      </trkpt>
      <trkpt lat="44.79118" lon="1.56953">
        <ele>139.53</ele>
        <time>2021-06-06T11:00:43Z</time>
      </trkpt>
      <trkpt lat="44.7912" lon="1.56936">
        <ele>139.05</ele>
        <time>2021-06-06T11:00:54Z</time>
      </trkpt>
      <trkpt lat="44.79113" lon="1.56927">
        <ele>140.01</ele>
        <time>2021-06-06T11:01:02Z</time>
      </trkpt>
      <trkpt lat="44.79111" lon="1.56926">
        <ele>140.01</ele>
        <time>2021-06-06T11:01:05Z</time>
      </trkpt>
      <trkpt lat="44.79103" lon="1.56923">
        <ele>138.57</ele>
        <time>2021-06-06T11:01:12Z</time>
      </trkpt>
      <trkpt lat="44.79086" lon="1.5692">
        <ele>137.13</ele>
        <time>2021-06-06T11:01:24Z</time>
      </trkpt>
      <trkpt lat="44.79066" lon="1.56913">
        <ele>135.2</ele>
        <time>2021-06-06T11:01:38Z</time>
      </trkpt>
      <trkpt lat="44.79059" lon="1.56912">
        <ele>135.68</ele>
        <time>2021-06-06T11:01:46Z</time>
      </trkpt>
      <trkpt lat="44.79052" lon="1.56909">
        <ele>134.24</ele>
        <time>2021-06-06T11:02:03Z</time>
      </trkpt>
      <trkpt lat="44.79047" lon="1.56905">
        <ele>135.2</ele>
        <time>2021-06-06T11:02:15Z</time>
      </trkpt>
      <trkpt lat="44.79042" lon="1.56895">
        <ele>134.72</ele>
        <time>2021-06-06T11:02:42Z</time>
      </trkpt>
      <trkpt lat="44.79037" lon="1.56887">
        <ele>135.68</ele>
        <time>2021-06-06T11:03:08Z</time>
      </trkpt>
      <trkpt lat="44.79032" lon="1.56884">
        <ele>133.76</ele>
        <time>2021-06-06T11:03:33Z</time>
      </trkpt>
      <trkpt lat="44.79033" lon="1.56885">
        <ele>135.68</ele>
        <time>2021-06-06T11:03:54Z</time>
      </trkpt>
      <trkpt lat="44.79047" lon="1.56888">
        <ele>135.68</ele>
        <time>2021-06-06T11:04:24Z</time>
      </trkpt>
      <trkpt lat="44.79045" lon="1.56888">
        <ele>135.68</ele>
        <time>2021-06-06T11:04:31Z</time>
      </trkpt>
      <trkpt lat="44.79043" lon="1.56889">
        <ele>134.24</ele>
        <time>2021-06-06T11:04:36Z</time>
      </trkpt>
      <trkpt lat="44.79043" lon="1.56888">
        <ele>135.2</ele>
        <time>2021-06-06T11:04:39Z</time>
      </trkpt>
      <trkpt lat="44.79037" lon="1.56891">
        <ele>135.2</ele>
        <time>2021-06-06T11:04:50Z</time>
      </trkpt>
      <trkpt lat="44.79032" lon="1.56894">
        <ele>135.2</ele>
        <time>2021-06-06T11:04:59Z</time>
      </trkpt>
      <trkpt lat="44.79027" lon="1.56893">
        <ele>135.2</ele>
        <time>2021-06-06T11:05:08Z</time>
      </trkpt>
      <trkpt lat="44.79028" lon="1.56897">
        <ele>135.2</ele>
        <time>2021-06-06T11:05:19Z</time>
      </trkpt>
      <trkpt lat="44.79025" lon="1.56901">
        <ele>134.24</ele>
        <time>2021-06-06T11:05:30Z</time>
      </trkpt>
      <trkpt lat="44.79026" lon="1.569">
        <ele>135.2</ele>
        <time>2021-06-06T11:05:42Z</time>
      </trkpt>
      <trkpt lat="44.79026" lon="1.56898">
        <ele>135.2</ele>
        <time>2021-06-06T11:05:53Z</time>
      </trkpt>
      <trkpt lat="44.7903" lon="1.5689">
        <ele>135.2</ele>
        <time>2021-06-06T11:06:06Z</time>
      </trkpt>
      <trkpt lat="44.7903" lon="1.56889">
        <ele>135.2</ele>
        <time>2021-06-06T11:06:17Z</time>
      </trkpt>
      <trkpt lat="44.79033" lon="1.5688">
        <ele>136.64</ele>
        <time>2021-06-06T11:06:28Z</time>
      </trkpt>
      <trkpt lat="44.79039" lon="1.56877">
        <ele>135.2</ele>
        <time>2021-06-06T11:06:39Z</time>
      </trkpt>
      <trkpt lat="44.79044" lon="1.56872">
        <ele>135.2</ele>
        <time>2021-06-06T11:06:50Z</time>
      </trkpt>
      <trkpt lat="44.79044" lon="1.56871">
        <ele>134.72</ele>
        <time>2021-06-06T11:07:08Z</time>
      </trkpt>
      <trkpt lat="44.79044" lon="1.56875">
        <ele>134.24</ele>
        <time>2021-06-06T11:07:15Z</time>
      </trkpt>
      <trkpt lat="44.79056" lon="1.56875">
        <ele>135.2</ele>
        <time>2021-06-06T11:07:26Z</time>
      </trkpt>
      <trkpt lat="44.79063" lon="1.56874">
        <ele>133.76</ele>
        <time>2021-06-06T11:07:32Z</time>
      </trkpt>
      <trkpt lat="44.79068" lon="1.56868">
        <ele>133.76</ele>
        <time>2021-06-06T11:07:44Z</time>
      </trkpt>
      <trkpt lat="44.79074" lon="1.56864">
        <ele>133.76</ele>
        <time>2021-06-06T11:07:57Z</time>
      </trkpt>
      <trkpt lat="44.79084" lon="1.5686">
        <ele>133.76</ele>
        <time>2021-06-06T11:08:09Z</time>
      </trkpt>
      <trkpt lat="44.79092" lon="1.56853">
        <ele>134.72</ele>
        <time>2021-06-06T11:08:21Z</time>
      </trkpt>
      <trkpt lat="44.791" lon="1.56849">
        <ele>133.76</ele>
        <time>2021-06-06T11:08:35Z</time>
      </trkpt>
      <trkpt lat="44.79109" lon="1.56849">
        <ele>133.76</ele>
        <time>2021-06-06T11:08:46Z</time>
      </trkpt>
      <trkpt lat="44.7911" lon="1.56847">
        <ele>134.72</ele>
        <time>2021-06-06T11:08:50Z</time>
      </trkpt>
      <trkpt lat="44.79117" lon="1.56847">
        <ele>133.76</ele>
        <time>2021-06-06T11:09:00Z</time>
      </trkpt>
      <trkpt lat="44.79123" lon="1.56848">
        <ele>133.28</ele>
        <time>2021-06-06T11:09:11Z</time>
      </trkpt>
      <trkpt lat="44.7913" lon="1.5685">
        <ele>134.24</ele>
        <time>2021-06-06T11:09:22Z</time>
      </trkpt>
      <trkpt lat="44.79137" lon="1.56851">
        <ele>137.13</ele>
        <time>2021-06-06T11:09:32Z</time>
      </trkpt>
      <trkpt lat="44.79145" lon="1.56851">
        <ele>140.01</ele>
        <time>2021-06-06T11:09:46Z</time>
      </trkpt>
      <trkpt lat="44.79153" lon="1.56849">
        <ele>142.41</ele>
        <time>2021-06-06T11:09:59Z</time>
      </trkpt>
      <trkpt lat="44.7916" lon="1.56845">
        <ele>144.34</ele>
        <time>2021-06-06T11:10:10Z</time>
      </trkpt>
      <trkpt lat="44.79164" lon="1.56842">
        <ele>144.82</ele>
        <time>2021-06-06T11:10:23Z</time>
      </trkpt>
      <trkpt lat="44.79163" lon="1.5684">
        <ele>144.34</ele>
        <time>2021-06-06T11:10:42Z</time>
      </trkpt>
      <trkpt lat="44.79164" lon="1.56841">
        <ele>143.85</ele>
        <time>2021-06-06T11:10:49Z</time>
      </trkpt>
      <trkpt lat="44.79163" lon="1.56841">
        <ele>142.89</ele>
        <time>2021-06-06T11:11:05Z</time>
      </trkpt>
      <trkpt lat="44.79164" lon="1.56845">
        <ele>144.34</ele>
        <time>2021-06-06T11:11:22Z</time>
      </trkpt>
      <trkpt lat="44.79163" lon="1.56846">
        <ele>142.89</ele>
        <time>2021-06-06T11:11:27Z</time>
      </trkpt>
      <trkpt lat="44.79162" lon="1.56847">
        <ele>144.34</ele>
        <time>2021-06-06T11:11:31Z</time>
      </trkpt>
      <trkpt lat="44.79157" lon="1.56847">
        <ele>143.85</ele>
        <time>2021-06-06T11:11:49Z</time>
      </trkpt>
      <trkpt lat="44.79157" lon="1.56848">
        <ele>144.82</ele>
        <time>2021-06-06T11:11:52Z</time>
      </trkpt>
      <trkpt lat="44.79161" lon="1.56836">
        <ele>144.34</ele>
        <time>2021-06-06T11:12:59Z</time>
      </trkpt>
      <trkpt lat="44.79161" lon="1.56842">
        <ele>142.89</ele>
        <time>2021-06-06T11:13:01Z</time>
      </trkpt>
      <trkpt lat="44.79163" lon="1.56855">
        <ele>142.89</ele>
        <time>2021-06-06T11:13:15Z</time>
      </trkpt>
      <trkpt lat="44.79179" lon="1.56857">
        <ele>141.93</ele>
        <time>2021-06-06T11:13:28Z</time>
      </trkpt>
      <trkpt lat="44.79186" lon="1.56851">
        <ele>141.45</ele>
        <time>2021-06-06T11:13:40Z</time>
      </trkpt>
      <trkpt lat="44.79186" lon="1.5685">
        <ele>142.89</ele>
        <time>2021-06-06T11:13:42Z</time>
      </trkpt>
      <trkpt lat="44.79187" lon="1.56849">
        <ele>141.45</ele>
        <time>2021-06-06T11:13:44Z</time>
      </trkpt>
      <trkpt lat="44.79193" lon="1.56843">
        <ele>142.89</ele>
        <time>2021-06-06T11:14:01Z</time>
      </trkpt>
      <trkpt lat="44.79194" lon="1.56843">
        <ele>141.45</ele>
        <time>2021-06-06T11:14:04Z</time>
      </trkpt>
      <trkpt lat="44.79194" lon="1.56842">
        <ele>142.89</ele>
        <time>2021-06-06T11:14:06Z</time>
      </trkpt>
      <trkpt lat="44.79193" lon="1.56843">
        <ele>141.93</ele>
        <time>2021-06-06T11:14:11Z</time>
      </trkpt>
      <trkpt lat="44.79192" lon="1.56844">
        <ele>142.41</ele>
        <time>2021-06-06T11:14:22Z</time>
      </trkpt>
      <trkpt lat="44.79193" lon="1.56845">
        <ele>140.97</ele>
        <time>2021-06-06T11:14:24Z</time>
      </trkpt>
      <trkpt lat="44.79193" lon="1.56844">
        <ele>140.49</ele>
        <time>2021-06-06T11:14:28Z</time>
      </trkpt>
      <trkpt lat="44.79192" lon="1.56845">
        <ele>141.93</ele>
        <time>2021-06-06T11:14:33Z</time>
      </trkpt>
      <trkpt lat="44.79194" lon="1.56846">
        <ele>140.49</ele>
        <time>2021-06-06T11:14:54Z</time>
      </trkpt>
      <trkpt lat="44.79195" lon="1.56845">
        <ele>141.93</ele>
        <time>2021-06-06T11:15:05Z</time>
      </trkpt>
      <trkpt lat="44.79195" lon="1.56845">
        <ele>141.93</ele>
        <time>2021-06-06T11:15:06Z</time>
      </trkpt>
      <trkpt lat="44.79194" lon="1.56846">
        <ele>140.49</ele>
        <time>2021-06-06T11:15:09Z</time>
      </trkpt>
      <trkpt lat="44.7919" lon="1.56846">
        <ele>140.01</ele>
        <time>2021-06-06T11:15:25Z</time>
      </trkpt>
      <trkpt lat="44.79187" lon="1.56845">
        <ele>140.01</ele>
        <time>2021-06-06T11:15:35Z</time>
      </trkpt>
      <trkpt lat="44.79187" lon="1.56845">
        <ele>140.97</ele>
        <time>2021-06-06T11:15:46Z</time>
      </trkpt>
      <trkpt lat="44.79187" lon="1.56847">
        <ele>139.53</ele>
        <time>2021-06-06T11:15:51Z</time>
      </trkpt>
      <trkpt lat="44.79186" lon="1.56849">
        <ele>139.05</ele>
        <time>2021-06-06T11:15:55Z</time>
      </trkpt>
      <trkpt lat="44.79187" lon="1.56853">
        <ele>136.64</ele>
        <time>2021-06-06T11:16:02Z</time>
      </trkpt>
      <trkpt lat="44.79187" lon="1.56854">
        <ele>139.53</ele>
        <time>2021-06-06T11:16:03Z</time>
      </trkpt>
      <trkpt lat="44.79187" lon="1.56855">
        <ele>139.53</ele>
        <time>2021-06-06T11:16:04Z</time>
      </trkpt>
      <trkpt lat="44.79188" lon="1.56859">
        <ele>136.16</ele>
        <time>2021-06-06T11:16:11Z</time>
      </trkpt>
      <trkpt lat="44.79188" lon="1.5686">
        <ele>136.16</ele>
        <time>2021-06-06T11:16:12Z</time>
      </trkpt>
      <trkpt lat="44.79187" lon="1.5686">
        <ele>137.13</ele>
        <time>2021-06-06T11:16:14Z</time>
      </trkpt>
      <trkpt lat="44.79182" lon="1.56863">
        <ele>136.16</ele>
        <time>2021-06-06T11:16:23Z</time>
      </trkpt>
      <trkpt lat="44.79182" lon="1.56862">
        <ele>135.68</ele>
        <time>2021-06-06T11:16:34Z</time>
      </trkpt>
      <trkpt lat="44.79184" lon="1.56862">
        <ele>136.64</ele>
        <time>2021-06-06T11:16:43Z</time>
      </trkpt>
      <trkpt lat="44.79182" lon="1.56863">
        <ele>135.2</ele>
        <time>2021-06-06T11:16:49Z</time>
      </trkpt>
      <trkpt lat="44.79182" lon="1.56864">
        <ele>137.13</ele>
        <time>2021-06-06T11:16:57Z</time>
      </trkpt>
      <trkpt lat="44.79182" lon="1.56864">
        <ele>135.68</ele>
        <time>2021-06-06T11:17:00Z</time>
      </trkpt>
      <trkpt lat="44.79181" lon="1.56864">
        <ele>137.13</ele>
        <time>2021-06-06T11:17:03Z</time>
      </trkpt>
      <trkpt lat="44.79181" lon="1.56864">
        <ele>133.76</ele>
        <time>2021-06-06T11:17:06Z</time>
      </trkpt>
      <trkpt lat="44.79182" lon="1.56864">
        <ele>138.09</ele>
        <time>2021-06-06T11:17:10Z</time>
      </trkpt>
      <trkpt lat="44.79182" lon="1.56863">
        <ele>134.72</ele>
        <time>2021-06-06T11:17:11Z</time>
      </trkpt>
      <trkpt lat="44.79182" lon="1.56863">
        <ele>134.72</ele>
        <time>2021-06-06T11:17:12Z</time>
      </trkpt>
      <trkpt lat="44.79182" lon="1.56863">
        <ele>133.76</ele>
        <time>2021-06-06T11:17:17Z</time>
      </trkpt>
      <trkpt lat="44.79182" lon="1.56862">
        <ele>135.68</ele>
        <time>2021-06-06T11:17:28Z</time>
      </trkpt>
      <trkpt lat="44.79181" lon="1.56862">
        <ele>140.01</ele>
        <time>2021-06-06T11:17:30Z</time>
      </trkpt>
      <trkpt lat="44.79181" lon="1.56862">
        <ele>136.16</ele>
        <time>2021-06-06T11:17:31Z</time>
      </trkpt>
      <trkpt lat="44.79182" lon="1.56862">
        <ele>135.68</ele>
        <time>2021-06-06T11:17:33Z</time>
      </trkpt>
      <trkpt lat="44.79183" lon="1.56863">
        <ele>135.68</ele>
        <time>2021-06-06T11:18:05Z</time>
      </trkpt>
      <trkpt lat="44.79184" lon="1.56863">
        <ele>134.24</ele>
        <time>2021-06-06T11:18:09Z</time>
      </trkpt>
      <trkpt lat="44.79184" lon="1.56866">
        <ele>134.72</ele>
        <time>2021-06-06T11:18:30Z</time>
      </trkpt>
      <trkpt lat="44.79183" lon="1.56867">
        <ele>134.24</ele>
        <time>2021-06-06T11:18:58Z</time>
      </trkpt>
      <trkpt lat="44.79183" lon="1.56866">
        <ele>133.76</ele>
        <time>2021-06-06T11:19:24Z</time>
      </trkpt>
      <trkpt lat="44.79184" lon="1.56867">
        <ele>133.76</ele>
        <time>2021-06-06T11:19:39Z</time>
      </trkpt>
      <trkpt lat="44.79182" lon="1.56867">
        <ele>133.28</ele>
        <time>2021-06-06T11:20:05Z</time>
      </trkpt>
      <trkpt lat="44.79183" lon="1.56867">
        <ele>133.28</ele>
        <time>2021-06-06T11:20:28Z</time>
      </trkpt>
      <trkpt lat="44.79184" lon="1.56867">
        <ele>132.8</ele>
        <time>2021-06-06T11:20:59Z</time>
      </trkpt>
      <trkpt lat="44.79183" lon="1.56867">
        <ele>132.8</ele>
        <time>2021-06-06T11:21:30Z</time>
      </trkpt>
      <trkpt lat="44.79185" lon="1.56865">
        <ele>132.32</ele>
        <time>2021-06-06T11:21:56Z</time>
      </trkpt>
      <trkpt lat="44.79184" lon="1.56864">
        <ele>132.32</ele>
        <time>2021-06-06T11:22:22Z</time>
      </trkpt>
      <trkpt lat="44.79184" lon="1.56865">
        <ele>132.32</ele>
        <time>2021-06-06T11:22:52Z</time>
      </trkpt>
      <trkpt lat="44.79181" lon="1.56866">
        <ele>133.28</ele>
        <time>2021-06-06T11:23:20Z</time>
      </trkpt>
      <trkpt lat="44.79182" lon="1.56863">
        <ele>132.8</ele>
        <time>2021-06-06T11:23:43Z</time>
      </trkpt>
      <trkpt lat="44.79181" lon="1.56868">
        <ele>132.8</ele>
        <time>2021-06-06T11:24:08Z</time>
      </trkpt>
      <trkpt lat="44.79183" lon="1.56869">
        <ele>132.32</ele>
        <time>2021-06-06T11:24:33Z</time>
      </trkpt>
      <trkpt lat="44.79182" lon="1.56869">
        <ele>132.32</ele>
        <time>2021-06-06T11:24:54Z</time>
      </trkpt>
      <trkpt lat="44.79188" lon="1.56865">
        <ele>132.32</ele>
        <time>2021-06-06T11:25:17Z</time>
      </trkpt>
      <trkpt lat="44.79187" lon="1.56864">
        <ele>131.84</ele>
        <time>2021-06-06T11:25:45Z</time>
      </trkpt>
      <trkpt lat="44.79183" lon="1.56863">
        <ele>131.84</ele>
        <time>2021-06-06T11:26:17Z</time>
      </trkpt>
      <trkpt lat="44.79184" lon="1.56862">
        <ele>131.84</ele>
        <time>2021-06-06T11:26:41Z</time>
      </trkpt>
      <trkpt lat="44.79184" lon="1.56863">
        <ele>131.36</ele>
        <time>2021-06-06T11:27:08Z</time>
      </trkpt>
      <trkpt lat="44.79184" lon="1.56865">
        <ele>131.36</ele>
        <time>2021-06-06T11:27:29Z</time>
      </trkpt>
      <trkpt lat="44.79183" lon="1.56866">
        <ele>131.36</ele>
        <time>2021-06-06T11:27:51Z</time>
      </trkpt>
      <trkpt lat="44.79185" lon="1.56864">
        <ele>130.88</ele>
        <time>2021-06-06T11:28:15Z</time>
      </trkpt>
      <trkpt lat="44.79183" lon="1.56867">
        <ele>130.88</ele>
        <time>2021-06-06T11:28:36Z</time>
      </trkpt>
      <trkpt lat="44.79183" lon="1.56865">
        <ele>130.88</ele>
        <time>2021-06-06T11:29:00Z</time>
      </trkpt>
      <trkpt lat="44.79182" lon="1.56866">
        <ele>130.88</ele>
        <time>2021-06-06T11:29:31Z</time>
      </trkpt>
      <trkpt lat="44.7918" lon="1.56869">
        <ele>130.88</ele>
        <time>2021-06-06T11:29:51Z</time>
      </trkpt>
      <trkpt lat="44.79181" lon="1.56868">
        <ele>130.88</ele>
        <time>2021-06-06T11:30:10Z</time>
      </trkpt>
      <trkpt lat="44.79181" lon="1.56868">
        <ele>130.4</ele>
        <time>2021-06-06T11:30:40Z</time>
      </trkpt>
      <trkpt lat="44.79181" lon="1.56867">
        <ele>128.95</ele>
        <time>2021-06-06T11:30:48Z</time>
      </trkpt>
      <trkpt lat="44.79182" lon="1.56865">
        <ele>128.95</ele>
        <time>2021-06-06T11:31:06Z</time>
      </trkpt>
      <trkpt lat="44.79185" lon="1.56862">
        <ele>128.95</ele>
        <time>2021-06-06T11:31:25Z</time>
      </trkpt>
      <trkpt lat="44.79185" lon="1.5686">
        <ele>128.47</ele>
        <time>2021-06-06T11:31:48Z</time>
      </trkpt>
      <trkpt lat="44.79183" lon="1.56865">
        <ele>128.47</ele>
        <time>2021-06-06T11:32:06Z</time>
      </trkpt>
      <trkpt lat="44.79183" lon="1.56862">
        <ele>128.47</ele>
        <time>2021-06-06T11:32:29Z</time>
      </trkpt>
      <trkpt lat="44.79185" lon="1.5686">
        <ele>129.43</ele>
        <time>2021-06-06T11:32:51Z</time>
      </trkpt>
      <trkpt lat="44.79185" lon="1.56859">
        <ele>129.43</ele>
        <time>2021-06-06T11:33:12Z</time>
      </trkpt>
      <trkpt lat="44.79184" lon="1.56861">
        <ele>128.95</ele>
        <time>2021-06-06T11:33:38Z</time>
      </trkpt>
      <trkpt lat="44.79188" lon="1.56862">
        <ele>128.95</ele>
        <time>2021-06-06T11:33:55Z</time>
      </trkpt>
      <trkpt lat="44.79186" lon="1.56866">
        <ele>128.95</ele>
        <time>2021-06-06T11:34:21Z</time>
      </trkpt>
      <trkpt lat="44.79187" lon="1.5686">
        <ele>128.95</ele>
        <time>2021-06-06T11:34:47Z</time>
      </trkpt>
      <trkpt lat="44.79186" lon="1.56864">
        <ele>128.95</ele>
        <time>2021-06-06T11:35:11Z</time>
      </trkpt>
      <trkpt lat="44.79188" lon="1.56861">
        <ele>128.95</ele>
        <time>2021-06-06T11:35:31Z</time>
      </trkpt>
      <trkpt lat="44.79186" lon="1.56865">
        <ele>128.95</ele>
        <time>2021-06-06T11:35:54Z</time>
      </trkpt>
      <trkpt lat="44.79183" lon="1.56869">
        <ele>128.95</ele>
        <time>2021-06-06T11:36:16Z</time>
      </trkpt>
      <trkpt lat="44.79182" lon="1.56871">
        <ele>128.47</ele>
        <time>2021-06-06T11:36:36Z</time>
      </trkpt>
      <trkpt lat="44.79178" lon="1.56868">
        <ele>128.47</ele>
        <time>2021-06-06T11:37:00Z</time>
      </trkpt>
      <trkpt lat="44.79183" lon="1.56864">
        <ele>128.47</ele>
        <time>2021-06-06T11:37:20Z</time>
      </trkpt>
      <trkpt lat="44.79185" lon="1.56863">
        <ele>127.99</ele>
        <time>2021-06-06T11:37:44Z</time>
      </trkpt>
      <trkpt lat="44.79185" lon="1.56867">
        <ele>127.99</ele>
        <time>2021-06-06T11:38:11Z</time>
      </trkpt>
      <trkpt lat="44.79184" lon="1.56868">
        <ele>127.99</ele>
        <time>2021-06-06T11:38:34Z</time>
      </trkpt>
      <trkpt lat="44.79186" lon="1.56868">
        <ele>128.47</ele>
        <time>2021-06-06T11:38:55Z</time>
      </trkpt>
      <trkpt lat="44.79187" lon="1.56868">
        <ele>128.47</ele>
        <time>2021-06-06T11:39:15Z</time>
      </trkpt>
      <trkpt lat="44.79185" lon="1.56868">
        <ele>127.99</ele>
        <time>2021-06-06T11:39:45Z</time>
      </trkpt>
      <trkpt lat="44.79189" lon="1.56864">
        <ele>127.99</ele>
        <time>2021-06-06T11:40:10Z</time>
      </trkpt>
      <trkpt lat="44.79186" lon="1.56868">
        <ele>127.99</ele>
        <time>2021-06-06T11:40:34Z</time>
      </trkpt>
      <trkpt lat="44.79185" lon="1.56864">
        <ele>127.99</ele>
        <time>2021-06-06T11:40:59Z</time>
      </trkpt>
      <trkpt lat="44.79184" lon="1.56867">
        <ele>127.99</ele>
        <time>2021-06-06T11:41:22Z</time>
      </trkpt>
      <trkpt lat="44.79182" lon="1.5687">
        <ele>127.99</ele>
        <time>2021-06-06T11:41:44Z</time>
      </trkpt>
      <trkpt lat="44.79185" lon="1.56865">
        <ele>127.99</ele>
        <time>2021-06-06T11:42:08Z</time>
      </trkpt>
      <trkpt lat="44.79185" lon="1.56862">
        <ele>127.99</ele>
        <time>2021-06-06T11:42:32Z</time>
      </trkpt>
      <trkpt lat="44.79184" lon="1.56862">
        <ele>127.99</ele>
        <time>2021-06-06T11:43:03Z</time>
      </trkpt>
      <trkpt lat="44.79184" lon="1.56861">
        <ele>127.51</ele>
        <time>2021-06-06T11:43:27Z</time>
      </trkpt>
      <trkpt lat="44.79182" lon="1.56865">
        <ele>127.51</ele>
        <time>2021-06-06T11:43:49Z</time>
      </trkpt>
      <trkpt lat="44.79184" lon="1.56866">
        <ele>127.03</ele>
        <time>2021-06-06T11:44:15Z</time>
      </trkpt>
      <trkpt lat="44.79184" lon="1.56868">
        <ele>127.03</ele>
        <time>2021-06-06T11:44:40Z</time>
      </trkpt>
      <trkpt lat="44.79184" lon="1.5687">
        <ele>126.55</ele>
        <time>2021-06-06T11:45:06Z</time>
      </trkpt>
      <trkpt lat="44.79182" lon="1.56868">
        <ele>126.55</ele>
        <time>2021-06-06T11:45:35Z</time>
      </trkpt>
      <trkpt lat="44.79182" lon="1.56871">
        <ele>126.55</ele>
        <time>2021-06-06T11:46:04Z</time>
      </trkpt>
      <trkpt lat="44.79182" lon="1.5687">
        <ele>126.55</ele>
        <time>2021-06-06T11:46:26Z</time>
      </trkpt>
      <trkpt lat="44.79184" lon="1.56868">
        <ele>126.55</ele>
        <time>2021-06-06T11:46:48Z</time>
      </trkpt>
      <trkpt lat="44.79184" lon="1.5687">
        <ele>126.07</ele>
        <time>2021-06-06T11:47:14Z</time>
      </trkpt>
      <trkpt lat="44.79185" lon="1.56871">
        <ele>126.07</ele>
        <time>2021-06-06T11:47:38Z</time>
      </trkpt>
      <trkpt lat="44.79184" lon="1.56865">
        <ele>126.07</ele>
        <time>2021-06-06T11:48:03Z</time>
      </trkpt>
      <trkpt lat="44.79183" lon="1.56871">
        <ele>126.07</ele>
        <time>2021-06-06T11:48:32Z</time>
      </trkpt>
      <trkpt lat="44.79184" lon="1.5687">
        <ele>125.59</ele>
        <time>2021-06-06T11:49:01Z</time>
      </trkpt>
      <trkpt lat="44.79185" lon="1.56868">
        <ele>124.63</ele>
        <time>2021-06-06T11:49:23Z</time>
      </trkpt>
      <trkpt lat="44.79184" lon="1.56865">
        <ele>124.15</ele>
        <time>2021-06-06T11:49:43Z</time>
      </trkpt>
      <trkpt lat="44.79182" lon="1.56863">
        <ele>124.15</ele>
        <time>2021-06-06T11:50:04Z</time>
      </trkpt>
      <trkpt lat="44.79184" lon="1.56866">
        <ele>124.15</ele>
        <time>2021-06-06T11:50:25Z</time>
      </trkpt>
      <trkpt lat="44.79184" lon="1.56868">
        <ele>125.11</ele>
        <time>2021-06-06T11:50:53Z</time>
      </trkpt>
      <trkpt lat="44.79186" lon="1.56872">
        <ele>125.11</ele>
        <time>2021-06-06T11:51:19Z</time>
      </trkpt>
      <trkpt lat="44.79183" lon="1.56867">
        <ele>124.63</ele>
        <time>2021-06-06T11:51:45Z</time>
      </trkpt>
      <trkpt lat="44.79184" lon="1.56868">
        <ele>124.63</ele>
        <time>2021-06-06T11:52:07Z</time>
      </trkpt>
      <trkpt lat="44.79184" lon="1.56866">
        <ele>124.63</ele>
        <time>2021-06-06T11:52:31Z</time>
      </trkpt>
      <trkpt lat="44.79182" lon="1.56867">
        <ele>124.15</ele>
        <time>2021-06-06T11:52:59Z</time>
      </trkpt>
      <trkpt lat="44.79185" lon="1.56865">
        <ele>124.15</ele>
        <time>2021-06-06T11:53:21Z</time>
      </trkpt>
      <trkpt lat="44.79183" lon="1.56866">
        <ele>123.67</ele>
        <time>2021-06-06T11:53:46Z</time>
      </trkpt>
      <trkpt lat="44.79182" lon="1.56867">
        <ele>123.67</ele>
        <time>2021-06-06T11:54:17Z</time>
      </trkpt>
      <trkpt lat="44.79181" lon="1.56867">
        <ele>123.67</ele>
        <time>2021-06-06T11:54:39Z</time>
      </trkpt>
      <trkpt lat="44.79182" lon="1.56867">
        <ele>123.67</ele>
        <time>2021-06-06T11:55:04Z</time>
      </trkpt>
      <trkpt lat="44.79181" lon="1.56869">
        <ele>123.67</ele>
        <time>2021-06-06T11:55:31Z</time>
      </trkpt>
      <trkpt lat="44.79182" lon="1.56866">
        <ele>123.67</ele>
        <time>2021-06-06T11:56:03Z</time>
      </trkpt>
      <trkpt lat="44.79183" lon="1.56865">
        <ele>123.67</ele>
        <time>2021-06-06T11:56:37Z</time>
      </trkpt>
      <trkpt lat="44.79182" lon="1.56863">
        <ele>123.67</ele>
        <time>2021-06-06T11:57:02Z</time>
      </trkpt>
      <trkpt lat="44.79184" lon="1.56863">
        <ele>123.67</ele>
        <time>2021-06-06T11:57:21Z</time>
      </trkpt>
      <trkpt lat="44.79186" lon="1.56868">
        <ele>123.19</ele>
        <time>2021-06-06T11:57:43Z</time>
      </trkpt>
      <trkpt lat="44.79183" lon="1.56867">
        <ele>122.71</ele>
        <time>2021-06-06T11:58:09Z</time>
      </trkpt>
      <trkpt lat="44.79183" lon="1.56865">
        <ele>124.15</ele>
        <time>2021-06-06T11:58:18Z</time>
      </trkpt>
      <trkpt lat="44.79183" lon="1.56863">
        <ele>123.19</ele>
        <time>2021-06-06T11:58:43Z</time>
      </trkpt>
      <trkpt lat="44.79184" lon="1.56864">
        <ele>121.74</ele>
        <time>2021-06-06T11:58:45Z</time>
      </trkpt>
      <trkpt lat="44.79183" lon="1.56864">
        <ele>124.15</ele>
        <time>2021-06-06T11:58:47Z</time>
      </trkpt>
      <trkpt lat="44.79183" lon="1.56862">
        <ele>125.11</ele>
        <time>2021-06-06T11:58:53Z</time>
      </trkpt>
      <trkpt lat="44.79183" lon="1.56862">
        <ele>123.67</ele>
        <time>2021-06-06T11:58:55Z</time>
      </trkpt>
      <trkpt lat="44.79184" lon="1.56858">
        <ele>124.15</ele>
        <time>2021-06-06T11:59:14Z</time>
      </trkpt>
      <trkpt lat="44.79183" lon="1.5686">
        <ele>123.19</ele>
        <time>2021-06-06T11:59:28Z</time>
      </trkpt>
      <trkpt lat="44.79183" lon="1.56861">
        <ele>123.19</ele>
        <time>2021-06-06T11:59:40Z</time>
      </trkpt>
      <trkpt lat="44.79185" lon="1.56867">
        <ele>121.26</ele>
        <time>2021-06-06T11:59:49Z</time>
      </trkpt>
      <trkpt lat="44.79182" lon="1.56872">
        <ele>120.3</ele>
        <time>2021-06-06T12:00:01Z</time>
      </trkpt>
      <trkpt lat="44.79183" lon="1.56876">
        <ele>121.26</ele>
        <time>2021-06-06T12:00:13Z</time>
      </trkpt>
      <trkpt lat="44.79183" lon="1.56876">
        <ele>119.82</ele>
        <time>2021-06-06T12:00:17Z</time>
      </trkpt>
      <trkpt lat="44.7918" lon="1.56881">
        <ele>119.82</ele>
        <time>2021-06-06T12:00:33Z</time>
      </trkpt>
      <trkpt lat="44.79178" lon="1.56882">
        <ele>117.9</ele>
        <time>2021-06-06T12:00:37Z</time>
      </trkpt>
      <trkpt lat="44.79179" lon="1.56886">
        <ele>119.34</ele>
        <time>2021-06-06T12:00:41Z</time>
      </trkpt>
      <trkpt lat="44.79179" lon="1.56887">
        <ele>117.9</ele>
        <time>2021-06-06T12:00:43Z</time>
      </trkpt>
      <trkpt lat="44.7918" lon="1.56887">
        <ele>119.82</ele>
        <time>2021-06-06T12:00:45Z</time>
      </trkpt>
      <trkpt lat="44.79181" lon="1.56884">
        <ele>120.3</ele>
        <time>2021-06-06T12:00:58Z</time>
      </trkpt>
      <trkpt lat="44.79185" lon="1.5688">
        <ele>121.26</ele>
        <time>2021-06-06T12:01:10Z</time>
      </trkpt>
      <trkpt lat="44.79184" lon="1.56881">
        <ele>119.34</ele>
        <time>2021-06-06T12:01:13Z</time>
      </trkpt>
      <trkpt lat="44.79184" lon="1.56881">
        <ele>120.78</ele>
        <time>2021-06-06T12:01:15Z</time>
      </trkpt>
      <trkpt lat="44.79183" lon="1.5688">
        <ele>119.34</ele>
        <time>2021-06-06T12:01:18Z</time>
      </trkpt>
      <trkpt lat="44.79181" lon="1.5688">
        <ele>117.42</ele>
        <time>2021-06-06T12:01:24Z</time>
      </trkpt>
      <trkpt lat="44.79181" lon="1.56885">
        <ele>118.38</ele>
        <time>2021-06-06T12:01:38Z</time>
      </trkpt>
      <trkpt lat="44.79179" lon="1.56887">
        <ele>117.42</ele>
        <time>2021-06-06T12:01:45Z</time>
      </trkpt>
      <trkpt lat="44.79178" lon="1.56887">
        <ele>118.38</ele>
        <time>2021-06-06T12:01:47Z</time>
      </trkpt>
      <trkpt lat="44.79179" lon="1.56887">
        <ele>117.9</ele>
        <time>2021-06-06T12:01:58Z</time>
      </trkpt>
      <trkpt lat="44.79179" lon="1.56882">
        <ele>117.9</ele>
        <time>2021-06-06T12:02:15Z</time>
      </trkpt>
      <trkpt lat="44.79183" lon="1.56884">
        <ele>118.86</ele>
        <time>2021-06-06T12:02:30Z</time>
      </trkpt>
      <trkpt lat="44.79181" lon="1.56883">
        <ele>118.86</ele>
        <time>2021-06-06T12:02:37Z</time>
      </trkpt>
      <trkpt lat="44.79181" lon="1.56882">
        <ele>117.42</ele>
        <time>2021-06-06T12:02:40Z</time>
      </trkpt>
      <trkpt lat="44.79181" lon="1.56882">
        <ele>117.42</ele>
        <time>2021-06-06T12:02:55Z</time>
      </trkpt>
      <trkpt lat="44.79181" lon="1.56883">
        <ele>119.34</ele>
        <time>2021-06-06T12:03:03Z</time>
      </trkpt>
      <trkpt lat="44.79184" lon="1.5688">
        <ele>120.3</ele>
        <time>2021-06-06T12:03:15Z</time>
      </trkpt>
      <trkpt lat="44.79185" lon="1.56868">
        <ele>122.22</ele>
        <time>2021-06-06T12:03:29Z</time>
      </trkpt>
      <trkpt lat="44.79187" lon="1.56862">
        <ele>122.22</ele>
        <time>2021-06-06T12:03:40Z</time>
      </trkpt>
      <trkpt lat="44.79187" lon="1.5686">
        <ele>122.71</ele>
        <time>2021-06-06T12:03:54Z</time>
      </trkpt>
      <trkpt lat="44.79187" lon="1.56859">
        <ele>121.26</ele>
        <time>2021-06-06T12:04:16Z</time>
      </trkpt>
      <trkpt lat="44.79184" lon="1.56852">
        <ele>124.15</ele>
        <time>2021-06-06T12:04:27Z</time>
      </trkpt>
      <trkpt lat="44.79184" lon="1.56848">
        <ele>124.63</ele>
        <time>2021-06-06T12:04:39Z</time>
      </trkpt>
      <trkpt lat="44.79182" lon="1.56847">
        <ele>126.07</ele>
        <time>2021-06-06T12:04:44Z</time>
      </trkpt>
      <trkpt lat="44.79177" lon="1.56839">
        <ele>126.07</ele>
        <time>2021-06-06T12:04:58Z</time>
      </trkpt>
      <trkpt lat="44.79177" lon="1.56831">
        <ele>124.63</ele>
        <time>2021-06-06T12:05:09Z</time>
      </trkpt>
      <trkpt lat="44.79173" lon="1.56828">
        <ele>122.22</ele>
        <time>2021-06-06T12:05:24Z</time>
      </trkpt>
      <trkpt lat="44.79172" lon="1.56827">
        <ele>122.22</ele>
        <time>2021-06-06T12:05:38Z</time>
      </trkpt>
      <trkpt lat="44.79165" lon="1.56831">
        <ele>118.86</ele>
        <time>2021-06-06T12:05:52Z</time>
      </trkpt>
      <trkpt lat="44.79157" lon="1.56834">
        <ele>116.94</ele>
        <time>2021-06-06T12:06:06Z</time>
      </trkpt>
      <trkpt lat="44.79155" lon="1.56835">
        <ele>115.01</ele>
        <time>2021-06-06T12:06:13Z</time>
      </trkpt>
      <trkpt lat="44.79145" lon="1.56837">
        <ele>115.01</ele>
        <time>2021-06-06T12:06:27Z</time>
      </trkpt>
      <trkpt lat="44.79144" lon="1.56837">
        <ele>113.57</ele>
        <time>2021-06-06T12:06:30Z</time>
      </trkpt>
      <trkpt lat="44.79133" lon="1.56835">
        <ele>115.01</ele>
        <time>2021-06-06T12:06:41Z</time>
      </trkpt>
      <trkpt lat="44.7913" lon="1.56837">
        <ele>114.05</ele>
        <time>2021-06-06T12:06:58Z</time>
      </trkpt>
      <trkpt lat="44.79132" lon="1.56833">
        <ele>115.01</ele>
        <time>2021-06-06T12:07:13Z</time>
      </trkpt>
      <trkpt lat="44.79132" lon="1.56834">
        <ele>115.5</ele>
        <time>2021-06-06T12:07:36Z</time>
      </trkpt>
      <trkpt lat="44.79126" lon="1.56831">
        <ele>115.5</ele>
        <time>2021-06-06T12:07:50Z</time>
      </trkpt>
      <trkpt lat="44.79118" lon="1.56831">
        <ele>115.5</ele>
        <time>2021-06-06T12:08:05Z</time>
      </trkpt>
      <trkpt lat="44.79109" lon="1.56834">
        <ele>115.5</ele>
        <time>2021-06-06T12:08:19Z</time>
      </trkpt>
      <trkpt lat="44.79093" lon="1.56844">
        <ele>115.98</ele>
        <time>2021-06-06T12:08:34Z</time>
      </trkpt>
      <trkpt lat="44.7908" lon="1.56854">
        <ele>116.46</ele>
        <time>2021-06-06T12:08:48Z</time>
      </trkpt>
      <trkpt lat="44.79071" lon="1.56861">
        <ele>116.46</ele>
        <time>2021-06-06T12:09:01Z</time>
      </trkpt>
      <trkpt lat="44.79056" lon="1.56867">
        <ele>117.42</ele>
        <time>2021-06-06T12:09:15Z</time>
      </trkpt>
      <trkpt lat="44.79044" lon="1.56869">
        <ele>118.38</ele>
        <time>2021-06-06T12:09:29Z</time>
      </trkpt>
      <trkpt lat="44.79034" lon="1.56874">
        <ele>117.9</ele>
        <time>2021-06-06T12:09:43Z</time>
      </trkpt>
      <trkpt lat="44.79029" lon="1.56886">
        <ele>117.42</ele>
        <time>2021-06-06T12:09:57Z</time>
      </trkpt>
      <trkpt lat="44.79025" lon="1.56903">
        <ele>117.9</ele>
        <time>2021-06-06T12:10:11Z</time>
      </trkpt>
      <trkpt lat="44.79032" lon="1.56923">
        <ele>118.38</ele>
        <time>2021-06-06T12:10:25Z</time>
      </trkpt>
      <trkpt lat="44.79045" lon="1.56931">
        <ele>118.86</ele>
        <time>2021-06-06T12:10:37Z</time>
      </trkpt>
      <trkpt lat="44.79054" lon="1.56931">
        <ele>119.82</ele>
        <time>2021-06-06T12:10:51Z</time>
      </trkpt>
      <trkpt lat="44.79055" lon="1.5693">
        <ele>118.38</ele>
        <time>2021-06-06T12:10:53Z</time>
      </trkpt>
      <trkpt lat="44.79056" lon="1.56929">
        <ele>120.3</ele>
        <time>2021-06-06T12:10:55Z</time>
      </trkpt>
      <trkpt lat="44.79062" lon="1.56925">
        <ele>120.78</ele>
        <time>2021-06-06T12:11:13Z</time>
      </trkpt>
      <trkpt lat="44.79072" lon="1.56929">
        <ele>122.22</ele>
        <time>2021-06-06T12:11:24Z</time>
      </trkpt>
      <trkpt lat="44.79077" lon="1.56922">
        <ele>124.15</ele>
        <time>2021-06-06T12:11:37Z</time>
      </trkpt>
      <trkpt lat="44.79086" lon="1.56919">
        <ele>125.59</ele>
        <time>2021-06-06T12:11:49Z</time>
      </trkpt>
      <trkpt lat="44.79095" lon="1.56918">
        <ele>126.07</ele>
        <time>2021-06-06T12:12:00Z</time>
      </trkpt>
      <trkpt lat="44.79096" lon="1.5692">
        <ele>124.63</ele>
        <time>2021-06-06T12:12:03Z</time>
      </trkpt>
      <trkpt lat="44.79095" lon="1.56928">
        <ele>125.59</ele>
        <time>2021-06-06T12:12:15Z</time>
      </trkpt>
      <trkpt lat="44.79093" lon="1.56939">
        <ele>127.03</ele>
        <time>2021-06-06T12:12:28Z</time>
      </trkpt>
      <trkpt lat="44.79091" lon="1.56953">
        <ele>127.51</ele>
        <time>2021-06-06T12:12:41Z</time>
      </trkpt>
      <trkpt lat="44.79091" lon="1.56968">
        <ele>128.95</ele>
        <time>2021-06-06T12:12:54Z</time>
      </trkpt>
      <trkpt lat="44.79093" lon="1.5699">
        <ele>129.92</ele>
        <time>2021-06-06T12:13:07Z</time>
      </trkpt>
      <trkpt lat="44.7909" lon="1.57002">
        <ele>130.4</ele>
        <time>2021-06-06T12:13:15Z</time>
      </trkpt>
      <trkpt lat="44.79086" lon="1.57016">
        <ele>132.32</ele>
        <time>2021-06-06T12:13:26Z</time>
      </trkpt>
      <trkpt lat="44.79081" lon="1.57026">
        <ele>134.24</ele>
        <time>2021-06-06T12:13:39Z</time>
      </trkpt>
      <trkpt lat="44.79072" lon="1.57037">
        <ele>135.2</ele>
        <time>2021-06-06T12:13:51Z</time>
      </trkpt>
      <trkpt lat="44.79066" lon="1.57049">
        <ele>134.72</ele>
        <time>2021-06-06T12:14:01Z</time>
      </trkpt>
      <trkpt lat="44.79066" lon="1.57053">
        <ele>136.16</ele>
        <time>2021-06-06T12:14:03Z</time>
      </trkpt>
      <trkpt lat="44.79065" lon="1.57064">
        <ele>135.2</ele>
        <time>2021-06-06T12:14:12Z</time>
      </trkpt>
      <trkpt lat="44.79073" lon="1.57078">
        <ele>135.2</ele>
        <time>2021-06-06T12:14:23Z</time>
      </trkpt>
      <trkpt lat="44.79079" lon="1.57084">
        <ele>134.24</ele>
        <time>2021-06-06T12:14:30Z</time>
      </trkpt>
      <trkpt lat="44.79089" lon="1.57094">
        <ele>134.24</ele>
        <time>2021-06-06T12:14:43Z</time>
      </trkpt>
      <trkpt lat="44.791" lon="1.57101">
        <ele>135.68</ele>
        <time>2021-06-06T12:14:55Z</time>
      </trkpt>
      <trkpt lat="44.79101" lon="1.57101">
        <ele>135.68</ele>
        <time>2021-06-06T12:14:56Z</time>
      </trkpt>
      <trkpt lat="44.79113" lon="1.57108">
        <ele>137.61</ele>
        <time>2021-06-06T12:15:08Z</time>
      </trkpt>
      <trkpt lat="44.79124" lon="1.57116">
        <ele>139.05</ele>
        <time>2021-06-06T12:15:21Z</time>
      </trkpt>
      <trkpt lat="44.79132" lon="1.57125">
        <ele>140.49</ele>
        <time>2021-06-06T12:15:34Z</time>
      </trkpt>
      <trkpt lat="44.79133" lon="1.57126">
        <ele>141.45</ele>
        <time>2021-06-06T12:15:35Z</time>
      </trkpt>
      <trkpt lat="44.79141" lon="1.57143">
        <ele>140.01</ele>
        <time>2021-06-06T12:15:48Z</time>
      </trkpt>
      <trkpt lat="44.79147" lon="1.57161">
        <ele>140.01</ele>
        <time>2021-06-06T12:16:01Z</time>
      </trkpt>
      <trkpt lat="44.79151" lon="1.57176">
        <ele>139.53</ele>
        <time>2021-06-06T12:16:12Z</time>
      </trkpt>
      <trkpt lat="44.79153" lon="1.57187">
        <ele>139.53</ele>
        <time>2021-06-06T12:16:20Z</time>
      </trkpt>
      <trkpt lat="44.79157" lon="1.57206">
        <ele>139.53</ele>
        <time>2021-06-06T12:16:33Z</time>
      </trkpt>
      <trkpt lat="44.79158" lon="1.57222">
        <ele>140.49</ele>
        <time>2021-06-06T12:16:44Z</time>
      </trkpt>
      <trkpt lat="44.79158" lon="1.57248">
        <ele>140.49</ele>
        <time>2021-06-06T12:16:59Z</time>
      </trkpt>
      <trkpt lat="44.79158" lon="1.57266">
        <ele>140.01</ele>
        <time>2021-06-06T12:17:10Z</time>
      </trkpt>
      <trkpt lat="44.79157" lon="1.57288">
        <ele>140.01</ele>
        <time>2021-06-06T12:17:24Z</time>
      </trkpt>
      <trkpt lat="44.79157" lon="1.57298">
        <ele>140.01</ele>
        <time>2021-06-06T12:17:30Z</time>
      </trkpt>
      <trkpt lat="44.79153" lon="1.57315">
        <ele>140.01</ele>
        <time>2021-06-06T12:17:43Z</time>
      </trkpt>
      <trkpt lat="44.79146" lon="1.57334">
        <ele>140.49</ele>
        <time>2021-06-06T12:17:57Z</time>
      </trkpt>
      <trkpt lat="44.79137" lon="1.57354">
        <ele>140.01</ele>
        <time>2021-06-06T12:18:12Z</time>
      </trkpt>
      <trkpt lat="44.79131" lon="1.57373">
        <ele>139.53</ele>
        <time>2021-06-06T12:18:25Z</time>
      </trkpt>
      <trkpt lat="44.79124" lon="1.57387">
        <ele>139.53</ele>
        <time>2021-06-06T12:18:38Z</time>
      </trkpt>
      <trkpt lat="44.79114" lon="1.57399">
        <ele>139.05</ele>
        <time>2021-06-06T12:18:51Z</time>
      </trkpt>
      <trkpt lat="44.79102" lon="1.57416">
        <ele>140.49</ele>
        <time>2021-06-06T12:19:05Z</time>
      </trkpt>
      <trkpt lat="44.7909" lon="1.57426">
        <ele>140.49</ele>
        <time>2021-06-06T12:19:17Z</time>
      </trkpt>
      <trkpt lat="44.79082" lon="1.5744">
        <ele>138.57</ele>
        <time>2021-06-06T12:19:28Z</time>
      </trkpt>
      <trkpt lat="44.79071" lon="1.57453">
        <ele>138.09</ele>
        <time>2021-06-06T12:19:41Z</time>
      </trkpt>
      <trkpt lat="44.79066" lon="1.57467">
        <ele>139.05</ele>
        <time>2021-06-06T12:19:52Z</time>
      </trkpt>
      <trkpt lat="44.79064" lon="1.57473">
        <ele>139.05</ele>
        <time>2021-06-06T12:19:56Z</time>
      </trkpt>
      <trkpt lat="44.79054" lon="1.57487">
        <ele>137.61</ele>
        <time>2021-06-06T12:20:06Z</time>
      </trkpt>
      <trkpt lat="44.79042" lon="1.575">
        <ele>137.61</ele>
        <time>2021-06-06T12:20:20Z</time>
      </trkpt>
      <trkpt lat="44.79036" lon="1.57506">
        <ele>137.61</ele>
        <time>2021-06-06T12:20:26Z</time>
      </trkpt>
      <trkpt lat="44.79025" lon="1.57522">
        <ele>137.13</ele>
        <time>2021-06-06T12:20:38Z</time>
      </trkpt>
      <trkpt lat="44.79018" lon="1.57537">
        <ele>136.16</ele>
        <time>2021-06-06T12:20:48Z</time>
      </trkpt>
      <trkpt lat="44.79017" lon="1.57539">
        <ele>137.61</ele>
        <time>2021-06-06T12:20:50Z</time>
      </trkpt>
      <trkpt lat="44.79016" lon="1.57541">
        <ele>135.68</ele>
        <time>2021-06-06T12:20:52Z</time>
      </trkpt>
      <trkpt lat="44.79012" lon="1.57558">
        <ele>134.24</ele>
        <time>2021-06-06T12:21:04Z</time>
      </trkpt>
      <trkpt lat="44.79005" lon="1.57576">
        <ele>132.32</ele>
        <time>2021-06-06T12:21:19Z</time>
      </trkpt>
      <trkpt lat="44.78999" lon="1.57588">
        <ele>131.84</ele>
        <time>2021-06-06T12:21:27Z</time>
      </trkpt>
      <trkpt lat="44.78992" lon="1.57604">
        <ele>131.84</ele>
        <time>2021-06-06T12:21:37Z</time>
      </trkpt>
      <trkpt lat="44.78982" lon="1.57622">
        <ele>131.84</ele>
        <time>2021-06-06T12:21:50Z</time>
      </trkpt>
      <trkpt lat="44.78973" lon="1.57637">
        <ele>129.92</ele>
        <time>2021-06-06T12:22:04Z</time>
      </trkpt>
      <trkpt lat="44.78967" lon="1.57655">
        <ele>128.47</ele>
        <time>2021-06-06T12:22:17Z</time>
      </trkpt>
      <trkpt lat="44.78956" lon="1.57673">
        <ele>126.07</ele>
        <time>2021-06-06T12:22:33Z</time>
      </trkpt>
      <trkpt lat="44.78953" lon="1.57678">
        <ele>126.07</ele>
        <time>2021-06-06T12:22:38Z</time>
      </trkpt>
      <trkpt lat="44.78951" lon="1.57697">
        <ele>124.63</ele>
        <time>2021-06-06T12:22:51Z</time>
      </trkpt>
      <trkpt lat="44.78949" lon="1.57708">
        <ele>123.19</ele>
        <time>2021-06-06T12:23:00Z</time>
      </trkpt>
      <trkpt lat="44.7895" lon="1.57736">
        <ele>122.71</ele>
        <time>2021-06-06T12:23:13Z</time>
      </trkpt>
      <trkpt lat="44.78943" lon="1.57755">
        <ele>121.26</ele>
        <time>2021-06-06T12:23:27Z</time>
      </trkpt>
      <trkpt lat="44.78943" lon="1.57778">
        <ele>120.78</ele>
        <time>2021-06-06T12:23:42Z</time>
      </trkpt>
      <trkpt lat="44.78946" lon="1.57799">
        <ele>120.78</ele>
        <time>2021-06-06T12:23:54Z</time>
      </trkpt>
      <trkpt lat="44.78948" lon="1.57818">
        <ele>120.3</ele>
        <time>2021-06-06T12:24:05Z</time>
      </trkpt>
      <trkpt lat="44.78947" lon="1.57834">
        <ele>120.3</ele>
        <time>2021-06-06T12:24:18Z</time>
      </trkpt>
      <trkpt lat="44.78951" lon="1.57865">
        <ele>119.82</ele>
        <time>2021-06-06T12:24:33Z</time>
      </trkpt>
      <trkpt lat="44.78951" lon="1.57882">
        <ele>121.26</ele>
        <time>2021-06-06T12:24:46Z</time>
      </trkpt>
      <trkpt lat="44.78944" lon="1.57905">
        <ele>122.71</ele>
        <time>2021-06-06T12:25:00Z</time>
      </trkpt>
      <trkpt lat="44.78943" lon="1.57915">
        <ele>124.15</ele>
        <time>2021-06-06T12:25:07Z</time>
      </trkpt>
      <trkpt lat="44.78943" lon="1.57919">
        <ele>122.71</ele>
        <time>2021-06-06T12:25:09Z</time>
      </trkpt>
      <trkpt lat="44.78944" lon="1.57933">
        <ele>124.15</ele>
        <time>2021-06-06T12:25:17Z</time>
      </trkpt>
      <trkpt lat="44.78944" lon="1.5795">
        <ele>125.59</ele>
        <time>2021-06-06T12:25:31Z</time>
      </trkpt>
      <trkpt lat="44.78947" lon="1.5796">
        <ele>127.51</ele>
        <time>2021-06-06T12:25:39Z</time>
      </trkpt>
      <trkpt lat="44.78949" lon="1.57979">
        <ele>128.47</ele>
        <time>2021-06-06T12:25:54Z</time>
      </trkpt>
      <trkpt lat="44.78953" lon="1.57997">
        <ele>128.95</ele>
        <time>2021-06-06T12:26:08Z</time>
      </trkpt>
      <trkpt lat="44.78955" lon="1.58018">
        <ele>128.47</ele>
        <time>2021-06-06T12:26:21Z</time>
      </trkpt>
      <trkpt lat="44.78955" lon="1.5802">
        <ele>128.47</ele>
        <time>2021-06-06T12:26:22Z</time>
      </trkpt>
      <trkpt lat="44.78956" lon="1.58026">
        <ele>129.92</ele>
        <time>2021-06-06T12:26:27Z</time>
      </trkpt>
      <trkpt lat="44.78955" lon="1.5803">
        <ele>128.47</ele>
        <time>2021-06-06T12:26:30Z</time>
      </trkpt>
      <trkpt lat="44.78958" lon="1.58046">
        <ele>129.92</ele>
        <time>2021-06-06T12:26:41Z</time>
      </trkpt>
      <trkpt lat="44.78959" lon="1.58051">
        <ele>128.47</ele>
        <time>2021-06-06T12:26:44Z</time>
      </trkpt>
      <trkpt lat="44.78963" lon="1.58074">
        <ele>129.43</ele>
        <time>2021-06-06T12:26:59Z</time>
      </trkpt>
      <trkpt lat="44.78964" lon="1.58091">
        <ele>129.92</ele>
        <time>2021-06-06T12:27:12Z</time>
      </trkpt>
      <trkpt lat="44.7897" lon="1.58107">
        <ele>130.4</ele>
        <time>2021-06-06T12:27:26Z</time>
      </trkpt>
      <trkpt lat="44.78972" lon="1.58125">
        <ele>130.4</ele>
        <time>2021-06-06T12:27:42Z</time>
      </trkpt>
      <trkpt lat="44.78979" lon="1.58153">
        <ele>130.4</ele>
        <time>2021-06-06T12:27:56Z</time>
      </trkpt>
      <trkpt lat="44.78987" lon="1.58179">
        <ele>130.88</ele>
        <time>2021-06-06T12:28:09Z</time>
      </trkpt>
      <trkpt lat="44.78992" lon="1.58202">
        <ele>132.32</ele>
        <time>2021-06-06T12:28:22Z</time>
      </trkpt>
      <trkpt lat="44.78995" lon="1.58223">
        <ele>133.76</ele>
        <time>2021-06-06T12:28:38Z</time>
      </trkpt>
      <trkpt lat="44.78998" lon="1.58245">
        <ele>134.72</ele>
        <time>2021-06-06T12:28:53Z</time>
      </trkpt>
      <trkpt lat="44.79001" lon="1.58251">
        <ele>133.28</ele>
        <time>2021-06-06T12:28:56Z</time>
      </trkpt>
      <trkpt lat="44.79" lon="1.58271">
        <ele>134.72</ele>
        <time>2021-06-06T12:29:10Z</time>
      </trkpt>
      <trkpt lat="44.78997" lon="1.58292">
        <ele>131.36</ele>
        <time>2021-06-06T12:29:22Z</time>
      </trkpt>
      <trkpt lat="44.78994" lon="1.58304">
        <ele>129.92</ele>
        <time>2021-06-06T12:29:30Z</time>
      </trkpt>
      <trkpt lat="44.78994" lon="1.58307">
        <ele>131.36</ele>
        <time>2021-06-06T12:29:32Z</time>
      </trkpt>
      <trkpt lat="44.7899" lon="1.58326">
        <ele>128.47</ele>
        <time>2021-06-06T12:29:45Z</time>
      </trkpt>
      <trkpt lat="44.78988" lon="1.58345">
        <ele>126.55</ele>
        <time>2021-06-06T12:29:58Z</time>
      </trkpt>
      <trkpt lat="44.78989" lon="1.58358">
        <ele>125.11</ele>
        <time>2021-06-06T12:30:09Z</time>
      </trkpt>
      <trkpt lat="44.78992" lon="1.58378">
        <ele>123.19</ele>
        <time>2021-06-06T12:30:22Z</time>
      </trkpt>
      <trkpt lat="44.78996" lon="1.584">
        <ele>123.19</ele>
        <time>2021-06-06T12:30:35Z</time>
      </trkpt>
      <trkpt lat="44.78996" lon="1.58419">
        <ele>123.67</ele>
        <time>2021-06-06T12:30:48Z</time>
      </trkpt>
      <trkpt lat="44.78997" lon="1.58423">
        <ele>122.22</ele>
        <time>2021-06-06T12:30:51Z</time>
      </trkpt>
      <trkpt lat="44.78999" lon="1.58429">
        <ele>123.67</ele>
        <time>2021-06-06T12:30:55Z</time>
      </trkpt>
      <trkpt lat="44.79004" lon="1.58437">
        <ele>122.71</ele>
        <time>2021-06-06T12:31:04Z</time>
      </trkpt>
      <trkpt lat="44.79012" lon="1.58444">
        <ele>121.74</ele>
        <time>2021-06-06T12:31:18Z</time>
      </trkpt>
      <trkpt lat="44.79019" lon="1.58447">
        <ele>122.22</ele>
        <time>2021-06-06T12:31:28Z</time>
      </trkpt>
      <trkpt lat="44.79021" lon="1.58448">
        <ele>120.78</ele>
        <time>2021-06-06T12:31:31Z</time>
      </trkpt>
      <trkpt lat="44.79025" lon="1.58451">
        <ele>122.22</ele>
        <time>2021-06-06T12:31:35Z</time>
      </trkpt>
      <trkpt lat="44.79035" lon="1.58454">
        <ele>122.71</ele>
        <time>2021-06-06T12:31:46Z</time>
      </trkpt>
      <trkpt lat="44.79047" lon="1.58455">
        <ele>122.71</ele>
        <time>2021-06-06T12:31:58Z</time>
      </trkpt>
      <trkpt lat="44.79049" lon="1.58456">
        <ele>121.26</ele>
        <time>2021-06-06T12:32:00Z</time>
      </trkpt>
      <trkpt lat="44.79055" lon="1.58451">
        <ele>120.3</ele>
        <time>2021-06-06T12:32:11Z</time>
      </trkpt>
      <trkpt lat="44.79048" lon="1.58441">
        <ele>118.86</ele>
        <time>2021-06-06T12:32:23Z</time>
      </trkpt>
      <trkpt lat="44.79041" lon="1.58427">
        <ele>118.86</ele>
        <time>2021-06-06T12:32:36Z</time>
      </trkpt>
      <trkpt lat="44.79043" lon="1.58412">
        <ele>120.3</ele>
        <time>2021-06-06T12:32:48Z</time>
      </trkpt>
      <trkpt lat="44.79042" lon="1.5841">
        <ele>118.86</ele>
        <time>2021-06-06T12:32:51Z</time>
      </trkpt>
      <trkpt lat="44.79036" lon="1.58408">
        <ele>119.82</ele>
        <time>2021-06-06T12:33:02Z</time>
      </trkpt>
      <trkpt lat="44.79025" lon="1.58405">
        <ele>118.38</ele>
        <time>2021-06-06T12:33:14Z</time>
      </trkpt>
      <trkpt lat="44.79024" lon="1.58405">
        <ele>118.38</ele>
        <time>2021-06-06T12:33:25Z</time>
      </trkpt>
      <trkpt lat="44.79024" lon="1.58405">
        <ele>119.82</ele>
        <time>2021-06-06T12:33:32Z</time>
      </trkpt>
      <trkpt lat="44.79024" lon="1.58403">
        <ele>118.38</ele>
        <time>2021-06-06T12:33:42Z</time>
      </trkpt>
      <trkpt lat="44.79024" lon="1.58403">
        <ele>119.82</ele>
        <time>2021-06-06T12:33:44Z</time>
      </trkpt>
      <trkpt lat="44.79027" lon="1.58403">
        <ele>118.86</ele>
        <time>2021-06-06T12:33:51Z</time>
      </trkpt>
      <trkpt lat="44.79028" lon="1.58408">
        <ele>118.38</ele>
        <time>2021-06-06T12:34:03Z</time>
      </trkpt>
      <trkpt lat="44.79027" lon="1.58406">
        <ele>119.82</ele>
        <time>2021-06-06T12:34:06Z</time>
      </trkpt>
      <trkpt lat="44.79025" lon="1.58405">
        <ele>118.38</ele>
        <time>2021-06-06T12:34:12Z</time>
      </trkpt>
      <trkpt lat="44.79024" lon="1.58404">
        <ele>119.82</ele>
        <time>2021-06-06T12:34:14Z</time>
      </trkpt>
      <trkpt lat="44.79023" lon="1.584">
        <ele>117.9</ele>
        <time>2021-06-06T12:34:25Z</time>
      </trkpt>
      <trkpt lat="44.79023" lon="1.58399">
        <ele>118.38</ele>
        <time>2021-06-06T12:34:35Z</time>
      </trkpt>
      <trkpt lat="44.79023" lon="1.58399">
        <ele>119.34</ele>
        <time>2021-06-06T12:34:37Z</time>
      </trkpt>
      <trkpt lat="44.79023" lon="1.58398">
        <ele>116.94</ele>
        <time>2021-06-06T12:34:40Z</time>
      </trkpt>
      <trkpt lat="44.79023" lon="1.58394">
        <ele>118.38</ele>
        <time>2021-06-06T12:34:51Z</time>
      </trkpt>
      <trkpt lat="44.79024" lon="1.5839">
        <ele>118.86</ele>
        <time>2021-06-06T12:35:11Z</time>
      </trkpt>
      <trkpt lat="44.79016" lon="1.58389">
        <ele>119.82</ele>
        <time>2021-06-06T12:35:29Z</time>
      </trkpt>
      <trkpt lat="44.79022" lon="1.58391">
        <ele>120.3</ele>
        <time>2021-06-06T12:35:38Z</time>
      </trkpt>
      <trkpt lat="44.79034" lon="1.58388">
        <ele>120.78</ele>
        <time>2021-06-06T12:35:52Z</time>
      </trkpt>
      <trkpt lat="44.79048" lon="1.58372">
        <ele>119.34</ele>
        <time>2021-06-06T12:36:04Z</time>
      </trkpt>
      <trkpt lat="44.79051" lon="1.58368">
        <ele>120.78</ele>
        <time>2021-06-06T12:36:07Z</time>
      </trkpt>
      <trkpt lat="44.79054" lon="1.58366">
        <ele>119.34</ele>
        <time>2021-06-06T12:36:09Z</time>
      </trkpt>
      <trkpt lat="44.7906" lon="1.58361">
        <ele>120.78</ele>
        <time>2021-06-06T12:36:16Z</time>
      </trkpt>
      <trkpt lat="44.79063" lon="1.5836">
        <ele>119.82</ele>
        <time>2021-06-06T12:36:19Z</time>
      </trkpt>
      <trkpt lat="44.79069" lon="1.58351">
        <ele>118.38</ele>
        <time>2021-06-06T12:36:31Z</time>
      </trkpt>
      <trkpt lat="44.7907" lon="1.58347">
        <ele>119.34</ele>
        <time>2021-06-06T12:36:36Z</time>
      </trkpt>
      <trkpt lat="44.79068" lon="1.58341">
        <ele>118.38</ele>
        <time>2021-06-06T12:36:48Z</time>
      </trkpt>
      <trkpt lat="44.79067" lon="1.58336">
        <ele>118.86</ele>
        <time>2021-06-06T12:37:03Z</time>
      </trkpt>
      <trkpt lat="44.79069" lon="1.58335">
        <ele>117.9</ele>
        <time>2021-06-06T12:37:20Z</time>
      </trkpt>
      <trkpt lat="44.79069" lon="1.58336">
        <ele>118.38</ele>
        <time>2021-06-06T12:37:36Z</time>
      </trkpt>
      <trkpt lat="44.79068" lon="1.58343">
        <ele>117.9</ele>
        <time>2021-06-06T12:37:48Z</time>
      </trkpt>
      <trkpt lat="44.79072" lon="1.58347">
        <ele>118.86</ele>
        <time>2021-06-06T12:38:03Z</time>
      </trkpt>
      <trkpt lat="44.79075" lon="1.58349">
        <ele>117.9</ele>
        <time>2021-06-06T12:38:15Z</time>
      </trkpt>
      <trkpt lat="44.79075" lon="1.5835">
        <ele>119.34</ele>
        <time>2021-06-06T12:38:17Z</time>
      </trkpt>
      <trkpt lat="44.79074" lon="1.5835">
        <ele>117.9</ele>
        <time>2021-06-06T12:38:19Z</time>
      </trkpt>
      <trkpt lat="44.79068" lon="1.5835">
        <ele>119.34</ele>
        <time>2021-06-06T12:38:25Z</time>
      </trkpt>
      <trkpt lat="44.79064" lon="1.58353">
        <ele>117.9</ele>
        <time>2021-06-06T12:38:31Z</time>
      </trkpt>
      <trkpt lat="44.79055" lon="1.58363">
        <ele>117.9</ele>
        <time>2021-06-06T12:38:44Z</time>
      </trkpt>
      <trkpt lat="44.79042" lon="1.5837">
        <ele>118.86</ele>
        <time>2021-06-06T12:38:59Z</time>
      </trkpt>
      <trkpt lat="44.79038" lon="1.58375">
        <ele>117.42</ele>
        <time>2021-06-06T12:39:05Z</time>
      </trkpt>
      <trkpt lat="44.79037" lon="1.58376">
        <ele>119.34</ele>
        <time>2021-06-06T12:39:07Z</time>
      </trkpt>
      <trkpt lat="44.79033" lon="1.58376">
        <ele>117.42</ele>
        <time>2021-06-06T12:39:09Z</time>
      </trkpt>
      <trkpt lat="44.79029" lon="1.58387">
        <ele>119.34</ele>
        <time>2021-06-06T12:39:36Z</time>
      </trkpt>
      <trkpt lat="44.79028" lon="1.58388">
        <ele>117.9</ele>
        <time>2021-06-06T12:39:48Z</time>
      </trkpt>
      <trkpt lat="44.79024" lon="1.58384">
        <ele>117.9</ele>
        <time>2021-06-06T12:40:14Z</time>
      </trkpt>
      <trkpt lat="44.79027" lon="1.58391">
        <ele>119.34</ele>
        <time>2021-06-06T12:40:27Z</time>
      </trkpt>
      <trkpt lat="44.79027" lon="1.58392">
        <ele>117.9</ele>
        <time>2021-06-06T12:40:29Z</time>
      </trkpt>
      <trkpt lat="44.79027" lon="1.58392">
        <ele>117.9</ele>
        <time>2021-06-06T12:40:30Z</time>
      </trkpt>
      <trkpt lat="44.79025" lon="1.58394">
        <ele>116.46</ele>
        <time>2021-06-06T12:40:40Z</time>
      </trkpt>
      <trkpt lat="44.79026" lon="1.58394">
        <ele>117.9</ele>
        <time>2021-06-06T12:40:43Z</time>
      </trkpt>
      <trkpt lat="44.79024" lon="1.58394">
        <ele>116.46</ele>
        <time>2021-06-06T12:40:47Z</time>
      </trkpt>
      <trkpt lat="44.79021" lon="1.58396">
        <ele>116.46</ele>
        <time>2021-06-06T12:41:09Z</time>
      </trkpt>
      <trkpt lat="44.79022" lon="1.58394">
        <ele>118.38</ele>
        <time>2021-06-06T12:41:25Z</time>
      </trkpt>
      <trkpt lat="44.7902" lon="1.58394">
        <ele>116.46</ele>
        <time>2021-06-06T12:41:30Z</time>
      </trkpt>
      <trkpt lat="44.79021" lon="1.58393">
        <ele>117.9</ele>
        <time>2021-06-06T12:41:45Z</time>
      </trkpt>
      <trkpt lat="44.79021" lon="1.58397">
        <ele>116.94</ele>
        <time>2021-06-06T12:42:07Z</time>
      </trkpt>
      <trkpt lat="44.79022" lon="1.58395">
        <ele>117.9</ele>
        <time>2021-06-06T12:42:32Z</time>
      </trkpt>
      <trkpt lat="44.7902" lon="1.58397">
        <ele>117.9</ele>
        <time>2021-06-06T12:42:47Z</time>
      </trkpt>
      <trkpt lat="44.7902" lon="1.58397">
        <ele>116.94</ele>
        <time>2021-06-06T12:42:49Z</time>
      </trkpt>
      <trkpt lat="44.79022" lon="1.58395">
        <ele>117.9</ele>
        <time>2021-06-06T12:43:07Z</time>
      </trkpt>
      <trkpt lat="44.79022" lon="1.58398">
        <ele>115.98</ele>
        <time>2021-06-06T12:43:22Z</time>
      </trkpt>
      <trkpt lat="44.79022" lon="1.58396">
        <ele>116.46</ele>
        <time>2021-06-06T12:43:33Z</time>
      </trkpt>
      <trkpt lat="44.79024" lon="1.58397">
        <ele>117.9</ele>
        <time>2021-06-06T12:43:39Z</time>
      </trkpt>
      <trkpt lat="44.79023" lon="1.58397">
        <ele>118.86</ele>
        <time>2021-06-06T12:43:50Z</time>
      </trkpt>
      <trkpt lat="44.79022" lon="1.58398">
        <ele>117.9</ele>
        <time>2021-06-06T12:43:53Z</time>
      </trkpt>
      <trkpt lat="44.79022" lon="1.58399">
        <ele>118.86</ele>
        <time>2021-06-06T12:44:03Z</time>
      </trkpt>
      <trkpt lat="44.79026" lon="1.58395">
        <ele>119.34</ele>
        <time>2021-06-06T12:44:22Z</time>
      </trkpt>
      <trkpt lat="44.79032" lon="1.58396">
        <ele>119.34</ele>
        <time>2021-06-06T12:44:40Z</time>
      </trkpt>
      <trkpt lat="44.79024" lon="1.58398">
        <ele>117.9</ele>
        <time>2021-06-06T12:45:06Z</time>
      </trkpt>
      <trkpt lat="44.79024" lon="1.58396">
        <ele>119.34</ele>
        <time>2021-06-06T12:45:08Z</time>
      </trkpt>
      <trkpt lat="44.79032" lon="1.58385">
        <ele>119.82</ele>
        <time>2021-06-06T12:45:17Z</time>
      </trkpt>
      <trkpt lat="44.7904" lon="1.5838">
        <ele>119.34</ele>
        <time>2021-06-06T12:45:27Z</time>
      </trkpt>
      <trkpt lat="44.79051" lon="1.58372">
        <ele>119.34</ele>
        <time>2021-06-06T12:45:40Z</time>
      </trkpt>
      <trkpt lat="44.79055" lon="1.58368">
        <ele>118.38</ele>
        <time>2021-06-06T12:45:44Z</time>
      </trkpt>
      <trkpt lat="44.79059" lon="1.58362">
        <ele>119.34</ele>
        <time>2021-06-06T12:45:49Z</time>
      </trkpt>
      <trkpt lat="44.79065" lon="1.58355">
        <ele>117.9</ele>
        <time>2021-06-06T12:45:54Z</time>
      </trkpt>
      <trkpt lat="44.79069" lon="1.58343">
        <ele>116.94</ele>
        <time>2021-06-06T12:46:06Z</time>
      </trkpt>
      <trkpt lat="44.79067" lon="1.58343">
        <ele>116.46</ele>
        <time>2021-06-06T12:46:15Z</time>
      </trkpt>
      <trkpt lat="44.79067" lon="1.58343">
        <ele>118.38</ele>
        <time>2021-06-06T12:46:19Z</time>
      </trkpt>
      <trkpt lat="44.79067" lon="1.58343">
        <ele>117.42</ele>
        <time>2021-06-06T12:46:21Z</time>
      </trkpt>
      <trkpt lat="44.79067" lon="1.58339">
        <ele>116.94</ele>
        <time>2021-06-06T12:46:32Z</time>
      </trkpt>
      <trkpt lat="44.7907" lon="1.5834">
        <ele>116.94</ele>
        <time>2021-06-06T12:46:46Z</time>
      </trkpt>
      <trkpt lat="44.79065" lon="1.58339">
        <ele>116.94</ele>
        <time>2021-06-06T12:46:59Z</time>
      </trkpt>
      <trkpt lat="44.79065" lon="1.58338">
        <ele>118.38</ele>
        <time>2021-06-06T12:47:01Z</time>
      </trkpt>
      <trkpt lat="44.79065" lon="1.58339">
        <ele>116.94</ele>
        <time>2021-06-06T12:47:03Z</time>
      </trkpt>
      <trkpt lat="44.79066" lon="1.5834">
        <ele>118.38</ele>
        <time>2021-06-06T12:47:08Z</time>
      </trkpt>
      <trkpt lat="44.79069" lon="1.58358">
        <ele>118.86</ele>
        <time>2021-06-06T12:47:28Z</time>
      </trkpt>
      <trkpt lat="44.79072" lon="1.58355">
        <ele>118.86</ele>
        <time>2021-06-06T12:47:40Z</time>
      </trkpt>
      <trkpt lat="44.79074" lon="1.58355">
        <ele>117.9</ele>
        <time>2021-06-06T12:47:45Z</time>
      </trkpt>
      <trkpt lat="44.7907" lon="1.58354">
        <ele>117.9</ele>
        <time>2021-06-06T12:48:06Z</time>
      </trkpt>
      <trkpt lat="44.7907" lon="1.58358">
        <ele>118.86</ele>
        <time>2021-06-06T12:48:31Z</time>
      </trkpt>
      <trkpt lat="44.79071" lon="1.58354">
        <ele>117.42</ele>
        <time>2021-06-06T12:48:50Z</time>
      </trkpt>
      <trkpt lat="44.7907" lon="1.58353">
        <ele>117.42</ele>
        <time>2021-06-06T12:49:13Z</time>
      </trkpt>
      <trkpt lat="44.7907" lon="1.58349">
        <ele>117.9</ele>
        <time>2021-06-06T12:49:28Z</time>
      </trkpt>
      <trkpt lat="44.79069" lon="1.58349">
        <ele>116.94</ele>
        <time>2021-06-06T12:49:43Z</time>
      </trkpt>
      <trkpt lat="44.79064" lon="1.58354">
        <ele>118.38</ele>
        <time>2021-06-06T12:49:53Z</time>
      </trkpt>
      <trkpt lat="44.79063" lon="1.58355">
        <ele>116.46</ele>
        <time>2021-06-06T12:49:55Z</time>
      </trkpt>
      <trkpt lat="44.79062" lon="1.58356">
        <ele>117.9</ele>
        <time>2021-06-06T12:49:57Z</time>
      </trkpt>
      <trkpt lat="44.79061" lon="1.58359">
        <ele>116.94</ele>
        <time>2021-06-06T12:50:00Z</time>
      </trkpt>
      <trkpt lat="44.79057" lon="1.58363">
        <ele>117.42</ele>
        <time>2021-06-06T12:50:08Z</time>
      </trkpt>
      <trkpt lat="44.79045" lon="1.58373">
        <ele>117.42</ele>
        <time>2021-06-06T12:50:23Z</time>
      </trkpt>
      <trkpt lat="44.79029" lon="1.58385">
        <ele>117.42</ele>
        <time>2021-06-06T12:50:34Z</time>
      </trkpt>
      <trkpt lat="44.79033" lon="1.58395">
        <ele>117.9</ele>
        <time>2021-06-06T12:50:44Z</time>
      </trkpt>
      <trkpt lat="44.79039" lon="1.58397">
        <ele>118.86</ele>
        <time>2021-06-06T12:50:50Z</time>
      </trkpt>
      <trkpt lat="44.79047" lon="1.58399">
        <ele>120.3</ele>
        <time>2021-06-06T12:50:59Z</time>
      </trkpt>
      <trkpt lat="44.79048" lon="1.58401">
        <ele>118.86</ele>
        <time>2021-06-06T12:51:02Z</time>
      </trkpt>
      <trkpt lat="44.79054" lon="1.58407">
        <ele>120.78</ele>
        <time>2021-06-06T12:51:14Z</time>
      </trkpt>
      <trkpt lat="44.79056" lon="1.5841">
        <ele>119.34</ele>
        <time>2021-06-06T12:51:19Z</time>
      </trkpt>
      <trkpt lat="44.79065" lon="1.58416">
        <ele>120.3</ele>
        <time>2021-06-06T12:51:31Z</time>
      </trkpt>
      <trkpt lat="44.79071" lon="1.58419">
        <ele>121.74</ele>
        <time>2021-06-06T12:51:39Z</time>
      </trkpt>
      <trkpt lat="44.79082" lon="1.58431">
        <ele>121.74</ele>
        <time>2021-06-06T12:51:53Z</time>
      </trkpt>
      <trkpt lat="44.79084" lon="1.58433">
        <ele>121.74</ele>
        <time>2021-06-06T12:51:54Z</time>
      </trkpt>
      <trkpt lat="44.79086" lon="1.58434">
        <ele>123.19</ele>
        <time>2021-06-06T12:51:56Z</time>
      </trkpt>
      <trkpt lat="44.79097" lon="1.58441">
        <ele>124.63</ele>
        <time>2021-06-06T12:52:08Z</time>
      </trkpt>
      <trkpt lat="44.79107" lon="1.58449">
        <ele>127.03</ele>
        <time>2021-06-06T12:52:20Z</time>
      </trkpt>
      <trkpt lat="44.79119" lon="1.58458">
        <ele>128.95</ele>
        <time>2021-06-06T12:52:34Z</time>
      </trkpt>
      <trkpt lat="44.79133" lon="1.58469">
        <ele>130.88</ele>
        <time>2021-06-06T12:52:49Z</time>
      </trkpt>
      <trkpt lat="44.7914" lon="1.58482">
        <ele>132.32</ele>
        <time>2021-06-06T12:53:02Z</time>
      </trkpt>
      <trkpt lat="44.79142" lon="1.58487">
        <ele>133.28</ele>
        <time>2021-06-06T12:53:06Z</time>
      </trkpt>
      <trkpt lat="44.79153" lon="1.58505">
        <ele>135.2</ele>
        <time>2021-06-06T12:53:21Z</time>
      </trkpt>
      <trkpt lat="44.79162" lon="1.58519">
        <ele>136.16</ele>
        <time>2021-06-06T12:53:32Z</time>
      </trkpt>
      <trkpt lat="44.79174" lon="1.58534">
        <ele>137.61</ele>
        <time>2021-06-06T12:53:46Z</time>
      </trkpt>
      <trkpt lat="44.79187" lon="1.58547">
        <ele>139.05</ele>
        <time>2021-06-06T12:53:59Z</time>
      </trkpt>
      <trkpt lat="44.79201" lon="1.58556">
        <ele>140.01</ele>
        <time>2021-06-06T12:54:13Z</time>
      </trkpt>
      <trkpt lat="44.79213" lon="1.5857">
        <ele>141.93</ele>
        <time>2021-06-06T12:54:27Z</time>
      </trkpt>
      <trkpt lat="44.79225" lon="1.58587">
        <ele>144.34</ele>
        <time>2021-06-06T12:54:43Z</time>
      </trkpt>
      <trkpt lat="44.79231" lon="1.58596">
        <ele>145.78</ele>
        <time>2021-06-06T12:54:51Z</time>
      </trkpt>
      <trkpt lat="44.79238" lon="1.5861">
        <ele>147.22</ele>
        <time>2021-06-06T12:55:02Z</time>
      </trkpt>
      <trkpt lat="44.79242" lon="1.58631">
        <ele>147.22</ele>
        <time>2021-06-06T12:55:17Z</time>
      </trkpt>
      <trkpt lat="44.79246" lon="1.58657">
        <ele>148.18</ele>
        <time>2021-06-06T12:55:32Z</time>
      </trkpt>
      <trkpt lat="44.7925" lon="1.58682">
        <ele>149.62</ele>
        <time>2021-06-06T12:55:48Z</time>
      </trkpt>
      <trkpt lat="44.79254" lon="1.58704">
        <ele>149.62</ele>
        <time>2021-06-06T12:56:02Z</time>
      </trkpt>
      <trkpt lat="44.79257" lon="1.5872">
        <ele>151.54</ele>
        <time>2021-06-06T12:56:13Z</time>
      </trkpt>
      <trkpt lat="44.79258" lon="1.58722">
        <ele>149.62</ele>
        <time>2021-06-06T12:56:14Z</time>
      </trkpt>
      <trkpt lat="44.79259" lon="1.58746">
        <ele>151.54</ele>
        <time>2021-06-06T12:56:29Z</time>
      </trkpt>
      <trkpt lat="44.79263" lon="1.5877">
        <ele>152.03</ele>
        <time>2021-06-06T12:56:44Z</time>
      </trkpt>
      <trkpt lat="44.79266" lon="1.58796">
        <ele>153.47</ele>
        <time>2021-06-06T12:57:00Z</time>
      </trkpt>
      <trkpt lat="44.79267" lon="1.58823">
        <ele>154.91</ele>
        <time>2021-06-06T12:57:16Z</time>
      </trkpt>
      <trkpt lat="44.79269" lon="1.58846">
        <ele>155.87</ele>
        <time>2021-06-06T12:57:31Z</time>
      </trkpt>
      <trkpt lat="44.79272" lon="1.58868">
        <ele>156.83</ele>
        <time>2021-06-06T12:57:44Z</time>
      </trkpt>
      <trkpt lat="44.79272" lon="1.58886">
        <ele>157.79</ele>
        <time>2021-06-06T12:57:54Z</time>
      </trkpt>
      <trkpt lat="44.79272" lon="1.58914">
        <ele>158.27</ele>
        <time>2021-06-06T12:58:09Z</time>
      </trkpt>
      <trkpt lat="44.79273" lon="1.58924">
        <ele>159.72</ele>
        <time>2021-06-06T12:58:15Z</time>
      </trkpt>
      <trkpt lat="44.79275" lon="1.58952">
        <ele>161.16</ele>
        <time>2021-06-06T12:58:31Z</time>
      </trkpt>
      <trkpt lat="44.79277" lon="1.5898">
        <ele>163.56</ele>
        <time>2021-06-06T12:58:48Z</time>
      </trkpt>
      <trkpt lat="44.79279" lon="1.59011">
        <ele>164.52</ele>
        <time>2021-06-06T12:59:04Z</time>
      </trkpt>
      <trkpt lat="44.79278" lon="1.59042">
        <ele>165</ele>
        <time>2021-06-06T12:59:22Z</time>
      </trkpt>
      <trkpt lat="44.79277" lon="1.59066">
        <ele>165.96</ele>
        <time>2021-06-06T12:59:35Z</time>
      </trkpt>
      <trkpt lat="44.79274" lon="1.59099">
        <ele>166.45</ele>
        <time>2021-06-06T12:59:54Z</time>
      </trkpt>
      <trkpt lat="44.79279" lon="1.59121">
        <ele>168.85</ele>
        <time>2021-06-06T13:00:07Z</time>
      </trkpt>
      <trkpt lat="44.79282" lon="1.5914">
        <ele>169.33</ele>
        <time>2021-06-06T13:00:20Z</time>
      </trkpt>
      <trkpt lat="44.79282" lon="1.59147">
        <ele>169.33</ele>
        <time>2021-06-06T13:00:31Z</time>
      </trkpt>
      <trkpt lat="44.79285" lon="1.59147">
        <ele>169.33</ele>
        <time>2021-06-06T13:00:39Z</time>
      </trkpt>
      <trkpt lat="44.79286" lon="1.59143">
        <ele>167.89</ele>
        <time>2021-06-06T13:00:47Z</time>
      </trkpt>
      <trkpt lat="44.79287" lon="1.59141">
        <ele>169.33</ele>
        <time>2021-06-06T13:00:49Z</time>
      </trkpt>
      <trkpt lat="44.7929" lon="1.59137">
        <ele>168.37</ele>
        <time>2021-06-06T13:00:59Z</time>
      </trkpt>
      <trkpt lat="44.79291" lon="1.5913">
        <ele>169.81</ele>
        <time>2021-06-06T13:01:10Z</time>
      </trkpt>
      <trkpt lat="44.79292" lon="1.59129">
        <ele>170.29</ele>
        <time>2021-06-06T13:01:11Z</time>
      </trkpt>
      <trkpt lat="44.79293" lon="1.59125">
        <ele>169.33</ele>
        <time>2021-06-06T13:01:14Z</time>
      </trkpt>
      <trkpt lat="44.79295" lon="1.5912">
        <ele>169.33</ele>
        <time>2021-06-06T13:01:19Z</time>
      </trkpt>
      <trkpt lat="44.79296" lon="1.59118">
        <ele>170.77</ele>
        <time>2021-06-06T13:01:21Z</time>
      </trkpt>
      <trkpt lat="44.79301" lon="1.59106">
        <ele>170.29</ele>
        <time>2021-06-06T13:01:32Z</time>
      </trkpt>
      <trkpt lat="44.79305" lon="1.59098">
        <ele>170.77</ele>
        <time>2021-06-06T13:01:38Z</time>
      </trkpt>
      <trkpt lat="44.79306" lon="1.59092">
        <ele>171.73</ele>
        <time>2021-06-06T13:01:43Z</time>
      </trkpt>
      <trkpt lat="44.79311" lon="1.59084">
        <ele>173.17</ele>
        <time>2021-06-06T13:01:50Z</time>
      </trkpt>
      <trkpt lat="44.79314" lon="1.59074">
        <ele>172.69</ele>
        <time>2021-06-06T13:02:00Z</time>
      </trkpt>
      <trkpt lat="44.79319" lon="1.59068">
        <ele>173.66</ele>
        <time>2021-06-06T13:02:06Z</time>
      </trkpt>
      <trkpt lat="44.79328" lon="1.59057">
        <ele>174.14</ele>
        <time>2021-06-06T13:02:18Z</time>
      </trkpt>
      <trkpt lat="44.79334" lon="1.59051">
        <ele>173.66</ele>
        <time>2021-06-06T13:02:26Z</time>
      </trkpt>
      <trkpt lat="44.79343" lon="1.59043">
        <ele>173.17</ele>
        <time>2021-06-06T13:02:37Z</time>
      </trkpt>
      <trkpt lat="44.7935" lon="1.59035">
        <ele>172.69</ele>
        <time>2021-06-06T13:02:47Z</time>
      </trkpt>
      <trkpt lat="44.79362" lon="1.59029">
        <ele>171.25</ele>
        <time>2021-06-06T13:02:59Z</time>
      </trkpt>
      <trkpt lat="44.79375" lon="1.59024">
        <ele>170.77</ele>
        <time>2021-06-06T13:03:11Z</time>
      </trkpt>
      <trkpt lat="44.79388" lon="1.5902">
        <ele>169.81</ele>
        <time>2021-06-06T13:03:22Z</time>
      </trkpt>
      <trkpt lat="44.79399" lon="1.59019">
        <ele>168.37</ele>
        <time>2021-06-06T13:03:32Z</time>
      </trkpt>
      <trkpt lat="44.79407" lon="1.59018">
        <ele>167.89</ele>
        <time>2021-06-06T13:03:39Z</time>
      </trkpt>
      <trkpt lat="44.79419" lon="1.59018">
        <ele>166.93</ele>
        <time>2021-06-06T13:03:50Z</time>
      </trkpt>
      <trkpt lat="44.79423" lon="1.59018">
        <ele>166.93</ele>
        <time>2021-06-06T13:03:53Z</time>
      </trkpt>
      <trkpt lat="44.79444" lon="1.59016">
        <ele>165.48</ele>
        <time>2021-06-06T13:04:10Z</time>
      </trkpt>
      <trkpt lat="44.79461" lon="1.59019">
        <ele>165</ele>
        <time>2021-06-06T13:04:24Z</time>
      </trkpt>
      <trkpt lat="44.79476" lon="1.59022">
        <ele>163.56</ele>
        <time>2021-06-06T13:04:38Z</time>
      </trkpt>
      <trkpt lat="44.79492" lon="1.59026">
        <ele>161.64</ele>
        <time>2021-06-06T13:04:53Z</time>
      </trkpt>
      <trkpt lat="44.79503" lon="1.59027">
        <ele>159.72</ele>
        <time>2021-06-06T13:05:06Z</time>
      </trkpt>
      <trkpt lat="44.79514" lon="1.59023">
        <ele>158.27</ele>
        <time>2021-06-06T13:05:19Z</time>
      </trkpt>
      <trkpt lat="44.79524" lon="1.59006">
        <ele>157.31</ele>
        <time>2021-06-06T13:05:33Z</time>
      </trkpt>
      <trkpt lat="44.7953" lon="1.5899">
        <ele>156.35</ele>
        <time>2021-06-06T13:05:45Z</time>
      </trkpt>
      <trkpt lat="44.7953" lon="1.58987">
        <ele>157.79</ele>
        <time>2021-06-06T13:05:47Z</time>
      </trkpt>
      <trkpt lat="44.79536" lon="1.58972">
        <ele>157.79</ele>
        <time>2021-06-06T13:05:56Z</time>
      </trkpt>
      <trkpt lat="44.7954" lon="1.58964">
        <ele>156.35</ele>
        <time>2021-06-06T13:06:02Z</time>
      </trkpt>
      <trkpt lat="44.79548" lon="1.58949">
        <ele>154.91</ele>
        <time>2021-06-06T13:06:16Z</time>
      </trkpt>
      <trkpt lat="44.7955" lon="1.58943">
        <ele>153.47</ele>
        <time>2021-06-06T13:06:25Z</time>
      </trkpt>
      <trkpt lat="44.79549" lon="1.58949">
        <ele>151.06</ele>
        <time>2021-06-06T13:06:34Z</time>
      </trkpt>
      <trkpt lat="44.79549" lon="1.58961">
        <ele>148.66</ele>
        <time>2021-06-06T13:06:46Z</time>
      </trkpt>
      <trkpt lat="44.79548" lon="1.58971">
        <ele>147.22</ele>
        <time>2021-06-06T13:06:54Z</time>
      </trkpt>
      <trkpt lat="44.7955" lon="1.58984">
        <ele>144.34</ele>
        <time>2021-06-06T13:07:05Z</time>
      </trkpt>
      <trkpt lat="44.79548" lon="1.58994">
        <ele>142.41</ele>
        <time>2021-06-06T13:07:15Z</time>
      </trkpt>
      <trkpt lat="44.79547" lon="1.59007">
        <ele>140.01</ele>
        <time>2021-06-06T13:07:27Z</time>
      </trkpt>
      <trkpt lat="44.79549" lon="1.5902">
        <ele>138.09</ele>
        <time>2021-06-06T13:07:40Z</time>
      </trkpt>
      <trkpt lat="44.79549" lon="1.59038">
        <ele>136.16</ele>
        <time>2021-06-06T13:07:55Z</time>
      </trkpt>
      <trkpt lat="44.79548" lon="1.59051">
        <ele>133.76</ele>
        <time>2021-06-06T13:08:06Z</time>
      </trkpt>
      <trkpt lat="44.79546" lon="1.59058">
        <ele>132.32</ele>
        <time>2021-06-06T13:08:12Z</time>
      </trkpt>
      <trkpt lat="44.79541" lon="1.59065">
        <ele>131.84</ele>
        <time>2021-06-06T13:08:20Z</time>
      </trkpt>
      <trkpt lat="44.79546" lon="1.59081">
        <ele>129.92</ele>
        <time>2021-06-06T13:08:34Z</time>
      </trkpt>
      <trkpt lat="44.79552" lon="1.59074">
        <ele>129.92</ele>
        <time>2021-06-06T13:08:47Z</time>
      </trkpt>
      <trkpt lat="44.79558" lon="1.59057">
        <ele>131.36</ele>
        <time>2021-06-06T13:09:00Z</time>
      </trkpt>
      <trkpt lat="44.79565" lon="1.5904">
        <ele>131.84</ele>
        <time>2021-06-06T13:09:13Z</time>
      </trkpt>
      <trkpt lat="44.7957" lon="1.59024">
        <ele>130.4</ele>
        <time>2021-06-06T13:09:28Z</time>
      </trkpt>
      <trkpt lat="44.79578" lon="1.58997">
        <ele>130.4</ele>
        <time>2021-06-06T13:09:41Z</time>
      </trkpt>
      <trkpt lat="44.79581" lon="1.58983">
        <ele>131.84</ele>
        <time>2021-06-06T13:09:52Z</time>
      </trkpt>
      <trkpt lat="44.79586" lon="1.58977">
        <ele>130.88</ele>
        <time>2021-06-06T13:09:58Z</time>
      </trkpt>
      <trkpt lat="44.79591" lon="1.58971">
        <ele>129.43</ele>
        <time>2021-06-06T13:10:03Z</time>
      </trkpt>
      <trkpt lat="44.79604" lon="1.58964">
        <ele>130.88</ele>
        <time>2021-06-06T13:10:15Z</time>
      </trkpt>
      <trkpt lat="44.79606" lon="1.58963">
        <ele>129.43</ele>
        <time>2021-06-06T13:10:17Z</time>
      </trkpt>
      <trkpt lat="44.79621" lon="1.58958">
        <ele>128.95</ele>
        <time>2021-06-06T13:10:30Z</time>
      </trkpt>
      <trkpt lat="44.79626" lon="1.58962">
        <ele>127.99</ele>
        <time>2021-06-06T13:10:40Z</time>
      </trkpt>
      <trkpt lat="44.7964" lon="1.58971">
        <ele>127.99</ele>
        <time>2021-06-06T13:10:53Z</time>
      </trkpt>
      <trkpt lat="44.79655" lon="1.58971">
        <ele>127.51</ele>
        <time>2021-06-06T13:11:08Z</time>
      </trkpt>
      <trkpt lat="44.7967" lon="1.58969">
        <ele>128.95</ele>
        <time>2021-06-06T13:11:21Z</time>
      </trkpt>
      <trkpt lat="44.79685" lon="1.5897">
        <ele>129.43</ele>
        <time>2021-06-06T13:11:35Z</time>
      </trkpt>
      <trkpt lat="44.79695" lon="1.58969">
        <ele>127.51</ele>
        <time>2021-06-06T13:11:46Z</time>
      </trkpt>
      <trkpt lat="44.79713" lon="1.58977">
        <ele>127.51</ele>
        <time>2021-06-06T13:12:02Z</time>
      </trkpt>
      <trkpt lat="44.7973" lon="1.58971">
        <ele>127.51</ele>
        <time>2021-06-06T13:12:16Z</time>
      </trkpt>
      <trkpt lat="44.79743" lon="1.58962">
        <ele>127.51</ele>
        <time>2021-06-06T13:12:29Z</time>
      </trkpt>
      <trkpt lat="44.79754" lon="1.58957">
        <ele>127.51</ele>
        <time>2021-06-06T13:12:38Z</time>
      </trkpt>
      <trkpt lat="44.79768" lon="1.58953">
        <ele>125.59</ele>
        <time>2021-06-06T13:12:51Z</time>
      </trkpt>
      <trkpt lat="44.79778" lon="1.58953">
        <ele>125.59</ele>
        <time>2021-06-06T13:13:04Z</time>
      </trkpt>
      <trkpt lat="44.79796" lon="1.58966">
        <ele>125.11</ele>
        <time>2021-06-06T13:13:18Z</time>
      </trkpt>
      <trkpt lat="44.79799" lon="1.58968">
        <ele>126.55</ele>
        <time>2021-06-06T13:13:23Z</time>
      </trkpt>
      <trkpt lat="44.79805" lon="1.58966">
        <ele>127.03</ele>
        <time>2021-06-06T13:13:36Z</time>
      </trkpt>
      <trkpt lat="44.79813" lon="1.58965">
        <ele>127.51</ele>
        <time>2021-06-06T13:13:47Z</time>
      </trkpt>
      <trkpt lat="44.79824" lon="1.58964">
        <ele>127.99</ele>
        <time>2021-06-06T13:13:57Z</time>
      </trkpt>
      <trkpt lat="44.79841" lon="1.58964">
        <ele>127.99</ele>
        <time>2021-06-06T13:14:13Z</time>
      </trkpt>
      <trkpt lat="44.79857" lon="1.5896">
        <ele>127.99</ele>
        <time>2021-06-06T13:14:26Z</time>
      </trkpt>
      <trkpt lat="44.79864" lon="1.58959">
        <ele>126.55</ele>
        <time>2021-06-06T13:14:33Z</time>
      </trkpt>
      <trkpt lat="44.79867" lon="1.58959">
        <ele>127.99</ele>
        <time>2021-06-06T13:14:36Z</time>
      </trkpt>
      <trkpt lat="44.79871" lon="1.5896">
        <ele>126.55</ele>
        <time>2021-06-06T13:14:39Z</time>
      </trkpt>
      <trkpt lat="44.79879" lon="1.5896">
        <ele>127.51</ele>
        <time>2021-06-06T13:14:46Z</time>
      </trkpt>
      <trkpt lat="44.79893" lon="1.58958">
        <ele>127.51</ele>
        <time>2021-06-06T13:14:59Z</time>
      </trkpt>
      <trkpt lat="44.79894" lon="1.58957">
        <ele>127.51</ele>
        <time>2021-06-06T13:15:00Z</time>
      </trkpt>
      <trkpt lat="44.79896" lon="1.58955">
        <ele>126.55</ele>
        <time>2021-06-06T13:15:03Z</time>
      </trkpt>
      <trkpt lat="44.79903" lon="1.58955">
        <ele>126.07</ele>
        <time>2021-06-06T13:15:10Z</time>
      </trkpt>
      <trkpt lat="44.79914" lon="1.58948">
        <ele>126.07</ele>
        <time>2021-06-06T13:15:24Z</time>
      </trkpt>
      <trkpt lat="44.79927" lon="1.58946">
        <ele>127.51</ele>
        <time>2021-06-06T13:15:37Z</time>
      </trkpt>
      <trkpt lat="44.79943" lon="1.58941">
        <ele>127.51</ele>
        <time>2021-06-06T13:15:50Z</time>
      </trkpt>
      <trkpt lat="44.79955" lon="1.58929">
        <ele>126.55</ele>
        <time>2021-06-06T13:16:03Z</time>
      </trkpt>
      <trkpt lat="44.79959" lon="1.58926">
        <ele>126.55</ele>
        <time>2021-06-06T13:16:07Z</time>
      </trkpt>
      <trkpt lat="44.79963" lon="1.58923">
        <ele>126.55</ele>
        <time>2021-06-06T13:16:11Z</time>
      </trkpt>
      <trkpt lat="44.79967" lon="1.5892">
        <ele>126.55</ele>
        <time>2021-06-06T13:16:14Z</time>
      </trkpt>
      <trkpt lat="44.7997" lon="1.58917">
        <ele>127.51</ele>
        <time>2021-06-06T13:16:17Z</time>
      </trkpt>
      <trkpt lat="44.79976" lon="1.58912">
        <ele>126.55</ele>
        <time>2021-06-06T13:16:22Z</time>
      </trkpt>
      <trkpt lat="44.79985" lon="1.58898">
        <ele>127.03</ele>
        <time>2021-06-06T13:16:36Z</time>
      </trkpt>
      <trkpt lat="44.79988" lon="1.58887">
        <ele>127.99</ele>
        <time>2021-06-06T13:16:48Z</time>
      </trkpt>
      <trkpt lat="44.79988" lon="1.5888">
        <ele>127.99</ele>
        <time>2021-06-06T13:16:53Z</time>
      </trkpt>
      <trkpt lat="44.79989" lon="1.58875">
        <ele>128.47</ele>
        <time>2021-06-06T13:16:57Z</time>
      </trkpt>
      <trkpt lat="44.79989" lon="1.58868">
        <ele>127.03</ele>
        <time>2021-06-06T13:17:02Z</time>
      </trkpt>
      <trkpt lat="44.79987" lon="1.58851">
        <ele>127.03</ele>
        <time>2021-06-06T13:17:14Z</time>
      </trkpt>
      <trkpt lat="44.79989" lon="1.5883">
        <ele>128.47</ele>
        <time>2021-06-06T13:17:28Z</time>
      </trkpt>
      <trkpt lat="44.79991" lon="1.5881">
        <ele>129.43</ele>
        <time>2021-06-06T13:17:41Z</time>
      </trkpt>
      <trkpt lat="44.79991" lon="1.58806">
        <ele>127.99</ele>
        <time>2021-06-06T13:17:48Z</time>
      </trkpt>
      <trkpt lat="44.79982" lon="1.58792">
        <ele>125.59</ele>
        <time>2021-06-06T13:18:04Z</time>
      </trkpt>
      <trkpt lat="44.7997" lon="1.58784">
        <ele>124.15</ele>
        <time>2021-06-06T13:18:17Z</time>
      </trkpt>
      <trkpt lat="44.79967" lon="1.58776">
        <ele>125.59</ele>
        <time>2021-06-06T13:18:26Z</time>
      </trkpt>
      <trkpt lat="44.79963" lon="1.58758">
        <ele>125.59</ele>
        <time>2021-06-06T13:18:41Z</time>
      </trkpt>
      <trkpt lat="44.79963" lon="1.58747">
        <ele>125.11</ele>
        <time>2021-06-06T13:18:48Z</time>
      </trkpt>
      <trkpt lat="44.79962" lon="1.58724">
        <ele>126.07</ele>
        <time>2021-06-06T13:19:03Z</time>
      </trkpt>
      <trkpt lat="44.79959" lon="1.58706">
        <ele>125.11</ele>
        <time>2021-06-06T13:19:16Z</time>
      </trkpt>
      <trkpt lat="44.79958" lon="1.58687">
        <ele>125.11</ele>
        <time>2021-06-06T13:19:28Z</time>
      </trkpt>
      <trkpt lat="44.79957" lon="1.5868">
        <ele>126.07</ele>
        <time>2021-06-06T13:19:33Z</time>
      </trkpt>
      <trkpt lat="44.79957" lon="1.58675">
        <ele>124.63</ele>
        <time>2021-06-06T13:19:36Z</time>
      </trkpt>
      <trkpt lat="44.79957" lon="1.58661">
        <ele>126.07</ele>
        <time>2021-06-06T13:19:45Z</time>
      </trkpt>
      <trkpt lat="44.79958" lon="1.58645">
        <ele>126.07</ele>
        <time>2021-06-06T13:19:57Z</time>
      </trkpt>
      <trkpt lat="44.79953" lon="1.58626">
        <ele>126.55</ele>
        <time>2021-06-06T13:20:12Z</time>
      </trkpt>
      <trkpt lat="44.7994" lon="1.58612">
        <ele>127.51</ele>
        <time>2021-06-06T13:20:23Z</time>
      </trkpt>
      <trkpt lat="44.79932" lon="1.58607">
        <ele>128.47</ele>
        <time>2021-06-06T13:20:37Z</time>
      </trkpt>
      <trkpt lat="44.79917" lon="1.58608">
        <ele>128.95</ele>
        <time>2021-06-06T13:20:51Z</time>
      </trkpt>
      <trkpt lat="44.79908" lon="1.58608">
        <ele>127.51</ele>
        <time>2021-06-06T13:20:57Z</time>
      </trkpt>
      <trkpt lat="44.79901" lon="1.58609">
        <ele>128.47</ele>
        <time>2021-06-06T13:21:02Z</time>
      </trkpt>
      <trkpt lat="44.79897" lon="1.58611">
        <ele>127.03</ele>
        <time>2021-06-06T13:21:05Z</time>
      </trkpt>
      <trkpt lat="44.79883" lon="1.58625">
        <ele>126.55</ele>
        <time>2021-06-06T13:21:19Z</time>
      </trkpt>
      <trkpt lat="44.7987" lon="1.58635">
        <ele>126.55</ele>
        <time>2021-06-06T13:21:34Z</time>
      </trkpt>
      <trkpt lat="44.79858" lon="1.58649">
        <ele>125.11</ele>
        <time>2021-06-06T13:21:48Z</time>
      </trkpt>
      <trkpt lat="44.79842" lon="1.58662">
        <ele>124.63</ele>
        <time>2021-06-06T13:22:03Z</time>
      </trkpt>
      <trkpt lat="44.79834" lon="1.58675">
        <ele>124.15</ele>
        <time>2021-06-06T13:22:15Z</time>
      </trkpt>
      <trkpt lat="44.79816" lon="1.58683">
        <ele>124.15</ele>
        <time>2021-06-06T13:22:30Z</time>
      </trkpt>
      <trkpt lat="44.79803" lon="1.58683">
        <ele>125.11</ele>
        <time>2021-06-06T13:22:43Z</time>
      </trkpt>
      <trkpt lat="44.79787" lon="1.58675">
        <ele>124.15</ele>
        <time>2021-06-06T13:22:56Z</time>
      </trkpt>
      <trkpt lat="44.79782" lon="1.58671">
        <ele>124.15</ele>
        <time>2021-06-06T13:23:01Z</time>
      </trkpt>
      <trkpt lat="44.79775" lon="1.58653">
        <ele>124.15</ele>
        <time>2021-06-06T13:23:16Z</time>
      </trkpt>
      <trkpt lat="44.79775" lon="1.58652">
        <ele>124.15</ele>
        <time>2021-06-06T13:23:17Z</time>
      </trkpt>
      <trkpt lat="44.79767" lon="1.58643">
        <ele>124.15</ele>
        <time>2021-06-06T13:23:26Z</time>
      </trkpt>
      <trkpt lat="44.79766" lon="1.58641">
        <ele>124.15</ele>
        <time>2021-06-06T13:23:28Z</time>
      </trkpt>
      <trkpt lat="44.79762" lon="1.58634">
        <ele>124.15</ele>
        <time>2021-06-06T13:23:34Z</time>
      </trkpt>
      <trkpt lat="44.79761" lon="1.58629">
        <ele>124.15</ele>
        <time>2021-06-06T13:23:37Z</time>
      </trkpt>
      <trkpt lat="44.79753" lon="1.58611">
        <ele>124.15</ele>
        <time>2021-06-06T13:23:52Z</time>
      </trkpt>
      <trkpt lat="44.79745" lon="1.58595">
        <ele>124.63</ele>
        <time>2021-06-06T13:24:04Z</time>
      </trkpt>
      <trkpt lat="44.79738" lon="1.58568">
        <ele>124.63</ele>
        <time>2021-06-06T13:24:21Z</time>
      </trkpt>
      <trkpt lat="44.79738" lon="1.58567">
        <ele>124.63</ele>
        <time>2021-06-06T13:24:22Z</time>
      </trkpt>
      <trkpt lat="44.79728" lon="1.5855">
        <ele>123.67</ele>
        <time>2021-06-06T13:24:37Z</time>
      </trkpt>
      <trkpt lat="44.79723" lon="1.58531">
        <ele>123.19</ele>
        <time>2021-06-06T13:24:49Z</time>
      </trkpt>
      <trkpt lat="44.79723" lon="1.58512">
        <ele>123.19</ele>
        <time>2021-06-06T13:25:01Z</time>
      </trkpt>
      <trkpt lat="44.79727" lon="1.58504">
        <ele>124.15</ele>
        <time>2021-06-06T13:25:10Z</time>
      </trkpt>
      <trkpt lat="44.79731" lon="1.585">
        <ele>124.15</ele>
        <time>2021-06-06T13:25:19Z</time>
      </trkpt>
      <trkpt lat="44.79739" lon="1.58496">
        <ele>124.15</ele>
        <time>2021-06-06T13:25:30Z</time>
      </trkpt>
      <trkpt lat="44.79746" lon="1.5849">
        <ele>124.15</ele>
        <time>2021-06-06T13:25:38Z</time>
      </trkpt>
      <trkpt lat="44.79754" lon="1.58488">
        <ele>124.15</ele>
        <time>2021-06-06T13:25:45Z</time>
      </trkpt>
      <trkpt lat="44.79763" lon="1.58487">
        <ele>124.15</ele>
        <time>2021-06-06T13:25:52Z</time>
      </trkpt>
      <trkpt lat="44.79785" lon="1.58487">
        <ele>124.63</ele>
        <time>2021-06-06T13:26:10Z</time>
      </trkpt>
      <trkpt lat="44.7979" lon="1.58485">
        <ele>123.19</ele>
        <time>2021-06-06T13:26:15Z</time>
      </trkpt>
      <trkpt lat="44.79792" lon="1.58485">
        <ele>118.86</ele>
        <time>2021-06-06T13:26:17Z</time>
      </trkpt>
      <trkpt lat="44.79794" lon="1.58485">
        <ele>124.63</ele>
        <time>2021-06-06T13:26:18Z</time>
      </trkpt>
      <trkpt lat="44.79795" lon="1.58484">
        <ele>124.63</ele>
        <time>2021-06-06T13:26:19Z</time>
      </trkpt>
      <trkpt lat="44.79798" lon="1.58484">
        <ele>118.86</ele>
        <time>2021-06-06T13:26:21Z</time>
      </trkpt>
      <trkpt lat="44.79803" lon="1.58482">
        <ele>127.99</ele>
        <time>2021-06-06T13:26:23Z</time>
      </trkpt>
      <trkpt lat="44.79804" lon="1.58482">
        <ele>124.63</ele>
        <time>2021-06-06T13:26:24Z</time>
      </trkpt>
      <trkpt lat="44.79805" lon="1.58482">
        <ele>123.19</ele>
        <time>2021-06-06T13:26:25Z</time>
      </trkpt>
      <trkpt lat="44.79825" lon="1.58473">
        <ele>123.19</ele>
        <time>2021-06-06T13:26:40Z</time>
      </trkpt>
      <trkpt lat="44.79835" lon="1.58468">
        <ele>123.19</ele>
        <time>2021-06-06T13:26:49Z</time>
      </trkpt>
      <trkpt lat="44.79847" lon="1.58454">
        <ele>123.19</ele>
        <time>2021-06-06T13:27:04Z</time>
      </trkpt>
      <trkpt lat="44.7985" lon="1.5845">
        <ele>123.19</ele>
        <time>2021-06-06T13:27:08Z</time>
      </trkpt>
      <trkpt lat="44.7986" lon="1.58438">
        <ele>124.15</ele>
        <time>2021-06-06T13:27:21Z</time>
      </trkpt>
      <trkpt lat="44.79867" lon="1.58426">
        <ele>124.15</ele>
        <time>2021-06-06T13:27:32Z</time>
      </trkpt>
      <trkpt lat="44.79875" lon="1.58411">
        <ele>124.15</ele>
        <time>2021-06-06T13:27:44Z</time>
      </trkpt>
      <trkpt lat="44.79875" lon="1.5841">
        <ele>122.71</ele>
        <time>2021-06-06T13:27:45Z</time>
      </trkpt>
      <trkpt lat="44.79876" lon="1.58405">
        <ele>122.71</ele>
        <time>2021-06-06T13:27:50Z</time>
      </trkpt>
      <trkpt lat="44.79877" lon="1.58403">
        <ele>122.71</ele>
        <time>2021-06-06T13:27:52Z</time>
      </trkpt>
      <trkpt lat="44.79886" lon="1.58386">
        <ele>124.15</ele>
        <time>2021-06-06T13:28:06Z</time>
      </trkpt>
      <trkpt lat="44.79893" lon="1.58359">
        <ele>124.63</ele>
        <time>2021-06-06T13:28:22Z</time>
      </trkpt>
      <trkpt lat="44.79897" lon="1.58341">
        <ele>124.63</ele>
        <time>2021-06-06T13:28:35Z</time>
      </trkpt>
      <trkpt lat="44.79902" lon="1.58322">
        <ele>123.19</ele>
        <time>2021-06-06T13:28:47Z</time>
      </trkpt>
      <trkpt lat="44.79905" lon="1.58297">
        <ele>122.71</ele>
        <time>2021-06-06T13:29:02Z</time>
      </trkpt>
      <trkpt lat="44.79902" lon="1.58276">
        <ele>123.67</ele>
        <time>2021-06-06T13:29:13Z</time>
      </trkpt>
      <trkpt lat="44.79903" lon="1.58254">
        <ele>123.67</ele>
        <time>2021-06-06T13:29:26Z</time>
      </trkpt>
      <trkpt lat="44.79904" lon="1.58247">
        <ele>123.67</ele>
        <time>2021-06-06T13:29:30Z</time>
      </trkpt>
      <trkpt lat="44.79906" lon="1.5823">
        <ele>123.67</ele>
        <time>2021-06-06T13:29:41Z</time>
      </trkpt>
      <trkpt lat="44.7991" lon="1.58209">
        <ele>123.67</ele>
        <time>2021-06-06T13:29:54Z</time>
      </trkpt>
      <trkpt lat="44.79916" lon="1.58186">
        <ele>123.67</ele>
        <time>2021-06-06T13:30:09Z</time>
      </trkpt>
      <trkpt lat="44.79923" lon="1.58165">
        <ele>123.67</ele>
        <time>2021-06-06T13:30:23Z</time>
      </trkpt>
      <trkpt lat="44.79928" lon="1.58148">
        <ele>123.67</ele>
        <time>2021-06-06T13:30:35Z</time>
      </trkpt>
      <trkpt lat="44.79935" lon="1.58123">
        <ele>121.74</ele>
        <time>2021-06-06T13:30:50Z</time>
      </trkpt>
      <trkpt lat="44.7994" lon="1.58103">
        <ele>122.22</ele>
        <time>2021-06-06T13:31:03Z</time>
      </trkpt>
      <trkpt lat="44.79939" lon="1.58097">
        <ele>121.26</ele>
        <time>2021-06-06T13:31:07Z</time>
      </trkpt>
      <trkpt lat="44.79937" lon="1.58082">
        <ele>122.22</ele>
        <time>2021-06-06T13:31:16Z</time>
      </trkpt>
      <trkpt lat="44.79937" lon="1.58063">
        <ele>120.78</ele>
        <time>2021-06-06T13:31:29Z</time>
      </trkpt>
      <trkpt lat="44.79937" lon="1.58057">
        <ele>120.78</ele>
        <time>2021-06-06T13:31:33Z</time>
      </trkpt>
      <trkpt lat="44.79942" lon="1.58034">
        <ele>121.74</ele>
        <time>2021-06-06T13:31:48Z</time>
      </trkpt>
      <trkpt lat="44.79942" lon="1.58033">
        <ele>121.26</ele>
        <time>2021-06-06T13:31:49Z</time>
      </trkpt>
      <trkpt lat="44.79942" lon="1.58018">
        <ele>120.3</ele>
        <time>2021-06-06T13:32:00Z</time>
      </trkpt>
      <trkpt lat="44.79943" lon="1.58004">
        <ele>121.26</ele>
        <time>2021-06-06T13:32:07Z</time>
      </trkpt>
      <trkpt lat="44.79943" lon="1.57989">
        <ele>119.82</ele>
        <time>2021-06-06T13:32:17Z</time>
      </trkpt>
      <trkpt lat="44.79944" lon="1.57967">
        <ele>120.78</ele>
        <time>2021-06-06T13:32:30Z</time>
      </trkpt>
      <trkpt lat="44.79943" lon="1.57944">
        <ele>121.26</ele>
        <time>2021-06-06T13:32:45Z</time>
      </trkpt>
      <trkpt lat="44.79942" lon="1.57931">
        <ele>119.82</ele>
        <time>2021-06-06T13:32:53Z</time>
      </trkpt>
      <trkpt lat="44.79941" lon="1.57909">
        <ele>120.3</ele>
        <time>2021-06-06T13:33:07Z</time>
      </trkpt>
      <trkpt lat="44.79941" lon="1.57889">
        <ele>121.74</ele>
        <time>2021-06-06T13:33:20Z</time>
      </trkpt>
      <trkpt lat="44.79942" lon="1.57872">
        <ele>119.82</ele>
        <time>2021-06-06T13:33:33Z</time>
      </trkpt>
      <trkpt lat="44.79943" lon="1.57849">
        <ele>119.82</ele>
        <time>2021-06-06T13:33:48Z</time>
      </trkpt>
      <trkpt lat="44.79944" lon="1.57844">
        <ele>121.26</ele>
        <time>2021-06-06T13:33:51Z</time>
      </trkpt>
      <trkpt lat="44.79944" lon="1.57839">
        <ele>119.82</ele>
        <time>2021-06-06T13:33:54Z</time>
      </trkpt>
      <trkpt lat="44.7995" lon="1.57821">
        <ele>119.34</ele>
        <time>2021-06-06T13:34:07Z</time>
      </trkpt>
      <trkpt lat="44.79957" lon="1.57806">
        <ele>119.34</ele>
        <time>2021-06-06T13:34:19Z</time>
      </trkpt>
      <trkpt lat="44.79967" lon="1.57789">
        <ele>118.86</ele>
        <time>2021-06-06T13:34:33Z</time>
      </trkpt>
      <trkpt lat="44.79976" lon="1.57775">
        <ele>119.82</ele>
        <time>2021-06-06T13:34:47Z</time>
      </trkpt>
      <trkpt lat="44.79986" lon="1.5776">
        <ele>120.78</ele>
        <time>2021-06-06T13:35:00Z</time>
      </trkpt>
      <trkpt lat="44.79994" lon="1.57743">
        <ele>121.26</ele>
        <time>2021-06-06T13:35:13Z</time>
      </trkpt>
      <trkpt lat="44.79999" lon="1.57726">
        <ele>122.22</ele>
        <time>2021-06-06T13:35:26Z</time>
      </trkpt>
      <trkpt lat="44.80008" lon="1.57717">
        <ele>123.67</ele>
        <time>2021-06-06T13:35:38Z</time>
      </trkpt>
      <trkpt lat="44.80016" lon="1.57708">
        <ele>124.63</ele>
        <time>2021-06-06T13:35:49Z</time>
      </trkpt>
      <trkpt lat="44.80028" lon="1.57697">
        <ele>127.51</ele>
        <time>2021-06-06T13:36:05Z</time>
      </trkpt>
      <trkpt lat="44.80043" lon="1.57684">
        <ele>128.47</ele>
        <time>2021-06-06T13:36:21Z</time>
      </trkpt>
      <trkpt lat="44.80056" lon="1.57674">
        <ele>129.92</ele>
        <time>2021-06-06T13:36:35Z</time>
      </trkpt>
      <trkpt lat="44.8007" lon="1.57661">
        <ele>131.84</ele>
        <time>2021-06-06T13:36:51Z</time>
      </trkpt>
      <trkpt lat="44.80081" lon="1.57651">
        <ele>134.72</ele>
        <time>2021-06-06T13:37:06Z</time>
      </trkpt>
      <trkpt lat="44.80086" lon="1.5765">
        <ele>134.72</ele>
        <time>2021-06-06T13:37:12Z</time>
      </trkpt>
      <trkpt lat="44.80086" lon="1.57657">
        <ele>134.72</ele>
        <time>2021-06-06T13:37:17Z</time>
      </trkpt>
      <trkpt lat="44.80079" lon="1.57677">
        <ele>135.68</ele>
        <time>2021-06-06T13:37:31Z</time>
      </trkpt>
      <trkpt lat="44.80074" lon="1.57696">
        <ele>136.64</ele>
        <time>2021-06-06T13:37:44Z</time>
      </trkpt>
      <trkpt lat="44.8007" lon="1.57712">
        <ele>136.64</ele>
        <time>2021-06-06T13:37:57Z</time>
      </trkpt>
      <trkpt lat="44.80066" lon="1.57728">
        <ele>136.64</ele>
        <time>2021-06-06T13:38:10Z</time>
      </trkpt>
      <trkpt lat="44.80064" lon="1.57749">
        <ele>136.64</ele>
        <time>2021-06-06T13:38:26Z</time>
      </trkpt>
      <trkpt lat="44.80059" lon="1.57768">
        <ele>138.09</ele>
        <time>2021-06-06T13:38:40Z</time>
      </trkpt>
      <trkpt lat="44.80057" lon="1.57795">
        <ele>138.57</ele>
        <time>2021-06-06T13:38:57Z</time>
      </trkpt>
      <trkpt lat="44.80055" lon="1.57824">
        <ele>139.53</ele>
        <time>2021-06-06T13:39:14Z</time>
      </trkpt>
      <trkpt lat="44.80056" lon="1.57853">
        <ele>140.01</ele>
        <time>2021-06-06T13:39:31Z</time>
      </trkpt>
      <trkpt lat="44.80054" lon="1.57878">
        <ele>140.49</ele>
        <time>2021-06-06T13:39:47Z</time>
      </trkpt>
      <trkpt lat="44.80058" lon="1.57895">
        <ele>140.49</ele>
        <time>2021-06-06T13:39:58Z</time>
      </trkpt>
      <trkpt lat="44.8007" lon="1.57911">
        <ele>141.93</ele>
        <time>2021-06-06T13:40:12Z</time>
      </trkpt>
      <trkpt lat="44.80072" lon="1.57918">
        <ele>141.45</ele>
        <time>2021-06-06T13:40:18Z</time>
      </trkpt>
      <trkpt lat="44.80078" lon="1.57929">
        <ele>141.45</ele>
        <time>2021-06-06T13:40:27Z</time>
      </trkpt>
      <trkpt lat="44.80081" lon="1.57933">
        <ele>142.89</ele>
        <time>2021-06-06T13:40:31Z</time>
      </trkpt>
      <trkpt lat="44.80092" lon="1.57947">
        <ele>143.37</ele>
        <time>2021-06-06T13:40:44Z</time>
      </trkpt>
      <trkpt lat="44.80103" lon="1.5796">
        <ele>145.78</ele>
        <time>2021-06-06T13:40:57Z</time>
      </trkpt>
      <trkpt lat="44.80107" lon="1.57966">
        <ele>146.74</ele>
        <time>2021-06-06T13:41:03Z</time>
      </trkpt>
      <trkpt lat="44.8011" lon="1.57973">
        <ele>147.7</ele>
        <time>2021-06-06T13:41:08Z</time>
      </trkpt>
      <trkpt lat="44.80104" lon="1.57986">
        <ele>149.14</ele>
        <time>2021-06-06T13:41:21Z</time>
      </trkpt>
      <trkpt lat="44.80091" lon="1.5799">
        <ele>151.06</ele>
        <time>2021-06-06T13:41:35Z</time>
      </trkpt>
      <trkpt lat="44.80079" lon="1.57998">
        <ele>152.03</ele>
        <time>2021-06-06T13:41:48Z</time>
      </trkpt>
      <trkpt lat="44.80067" lon="1.58013">
        <ele>153.95</ele>
        <time>2021-06-06T13:42:02Z</time>
      </trkpt>
      <trkpt lat="44.80059" lon="1.58037">
        <ele>156.35</ele>
        <time>2021-06-06T13:42:18Z</time>
      </trkpt>
      <trkpt lat="44.80053" lon="1.58064">
        <ele>158.27</ele>
        <time>2021-06-06T13:42:34Z</time>
      </trkpt>
      <trkpt lat="44.8005" lon="1.58088">
        <ele>160.2</ele>
        <time>2021-06-06T13:42:49Z</time>
      </trkpt>
      <trkpt lat="44.80047" lon="1.58114">
        <ele>162.12</ele>
        <time>2021-06-06T13:43:06Z</time>
      </trkpt>
      <trkpt lat="44.80046" lon="1.58139">
        <ele>164.52</ele>
        <time>2021-06-06T13:43:22Z</time>
      </trkpt>
      <trkpt lat="44.80043" lon="1.58168">
        <ele>166.45</ele>
        <time>2021-06-06T13:43:39Z</time>
      </trkpt>
      <trkpt lat="44.80042" lon="1.58173">
        <ele>167.89</ele>
        <time>2021-06-06T13:43:42Z</time>
      </trkpt>
      <trkpt lat="44.8004" lon="1.582">
        <ele>169.81</ele>
        <time>2021-06-06T13:43:59Z</time>
      </trkpt>
      <trkpt lat="44.80039" lon="1.58223">
        <ele>171.73</ele>
        <time>2021-06-06T13:44:12Z</time>
      </trkpt>
      <trkpt lat="44.80038" lon="1.58253">
        <ele>174.14</ele>
        <time>2021-06-06T13:44:29Z</time>
      </trkpt>
      <trkpt lat="44.8004" lon="1.58279">
        <ele>176.54</ele>
        <time>2021-06-06T13:44:45Z</time>
      </trkpt>
      <trkpt lat="44.8004" lon="1.58282">
        <ele>177.02</ele>
        <time>2021-06-06T13:44:48Z</time>
      </trkpt>
      <trkpt lat="44.80045" lon="1.58305">
        <ele>179.42</ele>
        <time>2021-06-06T13:45:04Z</time>
      </trkpt>
      <trkpt lat="44.80055" lon="1.58327">
        <ele>182.79</ele>
        <time>2021-06-06T13:45:21Z</time>
      </trkpt>
      <trkpt lat="44.80067" lon="1.58347">
        <ele>184.71</ele>
        <time>2021-06-06T13:45:37Z</time>
      </trkpt>
      <trkpt lat="44.80074" lon="1.58359">
        <ele>186.15</ele>
        <time>2021-06-06T13:45:48Z</time>
      </trkpt>
      <trkpt lat="44.80089" lon="1.58373">
        <ele>188.08</ele>
        <time>2021-06-06T13:46:02Z</time>
      </trkpt>
      <trkpt lat="44.80106" lon="1.58387">
        <ele>190</ele>
        <time>2021-06-06T13:46:19Z</time>
      </trkpt>
      <trkpt lat="44.80125" lon="1.58398">
        <ele>191.92</ele>
        <time>2021-06-06T13:46:34Z</time>
      </trkpt>
      <trkpt lat="44.80126" lon="1.58408">
        <ele>191.92</ele>
        <time>2021-06-06T13:46:45Z</time>
      </trkpt>
      <trkpt lat="44.80126" lon="1.5841">
        <ele>191.92</ele>
        <time>2021-06-06T13:46:56Z</time>
      </trkpt>
      <trkpt lat="44.80128" lon="1.58409">
        <ele>191.44</ele>
        <time>2021-06-06T13:47:05Z</time>
      </trkpt>
      <trkpt lat="44.8013" lon="1.58407">
        <ele>190.48</ele>
        <time>2021-06-06T13:47:19Z</time>
      </trkpt>
      <trkpt lat="44.80132" lon="1.58406">
        <ele>190.48</ele>
        <time>2021-06-06T13:47:49Z</time>
      </trkpt>
      <trkpt lat="44.80131" lon="1.58406">
        <ele>190.48</ele>
        <time>2021-06-06T13:48:12Z</time>
      </trkpt>
      <trkpt lat="44.80132" lon="1.58405">
        <ele>190.48</ele>
        <time>2021-06-06T13:48:34Z</time>
      </trkpt>
      <trkpt lat="44.8013" lon="1.58408">
        <ele>189.52</ele>
        <time>2021-06-06T13:48:53Z</time>
      </trkpt>
      <trkpt lat="44.8013" lon="1.58407">
        <ele>191.44</ele>
        <time>2021-06-06T13:48:56Z</time>
      </trkpt>
      <trkpt lat="44.80133" lon="1.58403">
        <ele>191.44</ele>
        <time>2021-06-06T13:49:02Z</time>
      </trkpt>
      <trkpt lat="44.80134" lon="1.58403">
        <ele>191.44</ele>
        <time>2021-06-06T13:49:04Z</time>
      </trkpt>
      <trkpt lat="44.80135" lon="1.58406">
        <ele>190.96</ele>
        <time>2021-06-06T13:49:16Z</time>
      </trkpt>
      <trkpt lat="44.80136" lon="1.58411">
        <ele>190.48</ele>
        <time>2021-06-06T13:49:43Z</time>
      </trkpt>
      <trkpt lat="44.80137" lon="1.58409">
        <ele>192.4</ele>
        <time>2021-06-06T13:49:57Z</time>
      </trkpt>
      <trkpt lat="44.80137" lon="1.58408">
        <ele>192.4</ele>
        <time>2021-06-06T13:50:08Z</time>
      </trkpt>
      <trkpt lat="44.80136" lon="1.58405">
        <ele>192.4</ele>
        <time>2021-06-06T13:50:18Z</time>
      </trkpt>
      <trkpt lat="44.80134" lon="1.58405">
        <ele>191.44</ele>
        <time>2021-06-06T13:50:34Z</time>
      </trkpt>
      <trkpt lat="44.80133" lon="1.58405">
        <ele>191.44</ele>
        <time>2021-06-06T13:51:07Z</time>
      </trkpt>
      <trkpt lat="44.80135" lon="1.58405">
        <ele>191.44</ele>
        <time>2021-06-06T13:51:34Z</time>
      </trkpt>
      <trkpt lat="44.80136" lon="1.58408">
        <ele>191.44</ele>
        <time>2021-06-06T13:52:08Z</time>
      </trkpt>
      <trkpt lat="44.80136" lon="1.58406">
        <ele>191.44</ele>
        <time>2021-06-06T13:52:38Z</time>
      </trkpt>
      <trkpt lat="44.80136" lon="1.58405">
        <ele>191.44</ele>
        <time>2021-06-06T13:52:53Z</time>
      </trkpt>
      <trkpt lat="44.80135" lon="1.58407">
        <ele>191.44</ele>
        <time>2021-06-06T13:53:00Z</time>
      </trkpt>
      <trkpt lat="44.80136" lon="1.58407">
        <ele>193.36</ele>
        <time>2021-06-06T13:53:03Z</time>
      </trkpt>
      <trkpt lat="44.80135" lon="1.58406">
        <ele>191.92</ele>
        <time>2021-06-06T13:53:11Z</time>
      </trkpt>
      <trkpt lat="44.80135" lon="1.58407">
        <ele>191.92</ele>
        <time>2021-06-06T13:53:19Z</time>
      </trkpt>
      <trkpt lat="44.80134" lon="1.58408">
        <ele>191.92</ele>
        <time>2021-06-06T13:53:21Z</time>
      </trkpt>
      <trkpt lat="44.80132" lon="1.58412">
        <ele>191.44</ele>
        <time>2021-06-06T13:53:26Z</time>
      </trkpt>
      <trkpt lat="44.80132" lon="1.58415">
        <ele>191.44</ele>
        <time>2021-06-06T13:53:30Z</time>
      </trkpt>
      <trkpt lat="44.80136" lon="1.58424">
        <ele>190</ele>
        <time>2021-06-06T13:53:39Z</time>
      </trkpt>
      <trkpt lat="44.80142" lon="1.58433">
        <ele>189.52</ele>
        <time>2021-06-06T13:53:48Z</time>
      </trkpt>
      <trkpt lat="44.80155" lon="1.58445">
        <ele>188.56</ele>
        <time>2021-06-06T13:54:00Z</time>
      </trkpt>
      <trkpt lat="44.8016" lon="1.5845">
        <ele>187.59</ele>
        <time>2021-06-06T13:54:06Z</time>
      </trkpt>
      <trkpt lat="44.80164" lon="1.58454">
        <ele>187.59</ele>
        <time>2021-06-06T13:54:11Z</time>
      </trkpt>
      <trkpt lat="44.80166" lon="1.58456">
        <ele>187.59</ele>
        <time>2021-06-06T13:54:13Z</time>
      </trkpt>
      <trkpt lat="44.80174" lon="1.58461">
        <ele>186.63</ele>
        <time>2021-06-06T13:54:20Z</time>
      </trkpt>
      <trkpt lat="44.80177" lon="1.58465">
        <ele>185.67</ele>
        <time>2021-06-06T13:54:25Z</time>
      </trkpt>
      <trkpt lat="44.80183" lon="1.58471">
        <ele>184.71</ele>
        <time>2021-06-06T13:54:30Z</time>
      </trkpt>
      <trkpt lat="44.80191" lon="1.58475">
        <ele>185.19</ele>
        <time>2021-06-06T13:54:37Z</time>
      </trkpt>
      <trkpt lat="44.80203" lon="1.58482">
        <ele>182.79</ele>
        <time>2021-06-06T13:54:48Z</time>
      </trkpt>
      <trkpt lat="44.80204" lon="1.58484">
        <ele>184.71</ele>
        <time>2021-06-06T13:54:50Z</time>
      </trkpt>
      <trkpt lat="44.80208" lon="1.58487">
        <ele>183.27</ele>
        <time>2021-06-06T13:54:53Z</time>
      </trkpt>
      <trkpt lat="44.80218" lon="1.58493">
        <ele>184.71</ele>
        <time>2021-06-06T13:55:04Z</time>
      </trkpt>
      <trkpt lat="44.8022" lon="1.58495">
        <ele>183.75</ele>
        <time>2021-06-06T13:55:06Z</time>
      </trkpt>
      <trkpt lat="44.80234" lon="1.58501">
        <ele>181.83</ele>
        <time>2021-06-06T13:55:19Z</time>
      </trkpt>
      <trkpt lat="44.80251" lon="1.58511">
        <ele>180.87</ele>
        <time>2021-06-06T13:55:34Z</time>
      </trkpt>
      <trkpt lat="44.80265" lon="1.58519">
        <ele>179.42</ele>
        <time>2021-06-06T13:55:48Z</time>
      </trkpt>
      <trkpt lat="44.8028" lon="1.58527">
        <ele>178.46</ele>
        <time>2021-06-06T13:56:01Z</time>
      </trkpt>
      <trkpt lat="44.80284" lon="1.58529">
        <ele>177.98</ele>
        <time>2021-06-06T13:56:04Z</time>
      </trkpt>
      <trkpt lat="44.80301" lon="1.58538">
        <ele>176.54</ele>
        <time>2021-06-06T13:56:19Z</time>
      </trkpt>
      <trkpt lat="44.80317" lon="1.58543">
        <ele>175.1</ele>
        <time>2021-06-06T13:56:33Z</time>
      </trkpt>
      <trkpt lat="44.8033" lon="1.58551">
        <ele>172.69</ele>
        <time>2021-06-06T13:56:46Z</time>
      </trkpt>
      <trkpt lat="44.80343" lon="1.5856">
        <ele>170.29</ele>
        <time>2021-06-06T13:57:00Z</time>
      </trkpt>
      <trkpt lat="44.80352" lon="1.58564">
        <ele>168.85</ele>
        <time>2021-06-06T13:57:08Z</time>
      </trkpt>
      <trkpt lat="44.80362" lon="1.5858">
        <ele>167.89</ele>
        <time>2021-06-06T13:57:21Z</time>
      </trkpt>
      <trkpt lat="44.80375" lon="1.58604">
        <ele>167.41</ele>
        <time>2021-06-06T13:57:38Z</time>
      </trkpt>
      <trkpt lat="44.80387" lon="1.5862">
        <ele>166.45</ele>
        <time>2021-06-06T13:57:51Z</time>
      </trkpt>
      <trkpt lat="44.804" lon="1.58638">
        <ele>166.45</ele>
        <time>2021-06-06T13:58:05Z</time>
      </trkpt>
      <trkpt lat="44.8041" lon="1.5865">
        <ele>165.96</ele>
        <time>2021-06-06T13:58:19Z</time>
      </trkpt>
      <trkpt lat="44.80417" lon="1.58657">
        <ele>165.48</ele>
        <time>2021-06-06T13:58:31Z</time>
      </trkpt>
      <trkpt lat="44.80419" lon="1.58655">
        <ele>167.41</ele>
        <time>2021-06-06T13:58:52Z</time>
      </trkpt>
      <trkpt lat="44.80419" lon="1.58657">
        <ele>165.48</ele>
        <time>2021-06-06T13:59:11Z</time>
      </trkpt>
      <trkpt lat="44.8042" lon="1.58658">
        <ele>165.48</ele>
        <time>2021-06-06T13:59:20Z</time>
      </trkpt>
      <trkpt lat="44.80433" lon="1.58673">
        <ele>165.48</ele>
        <time>2021-06-06T13:59:34Z</time>
      </trkpt>
      <trkpt lat="44.80447" lon="1.58693">
        <ele>165.48</ele>
        <time>2021-06-06T13:59:50Z</time>
      </trkpt>
      <trkpt lat="44.80461" lon="1.5871">
        <ele>165</ele>
        <time>2021-06-06T14:00:05Z</time>
      </trkpt>
      <trkpt lat="44.80463" lon="1.58716">
        <ele>164.52</ele>
        <time>2021-06-06T14:00:09Z</time>
      </trkpt>
      <trkpt lat="44.80475" lon="1.58734">
        <ele>162.12</ele>
        <time>2021-06-06T14:00:23Z</time>
      </trkpt>
      <trkpt lat="44.80484" lon="1.58747">
        <ele>160.2</ele>
        <time>2021-06-06T14:00:33Z</time>
      </trkpt>
      <trkpt lat="44.80486" lon="1.58749">
        <ele>161.64</ele>
        <time>2021-06-06T14:00:34Z</time>
      </trkpt>
      <trkpt lat="44.80489" lon="1.58752">
        <ele>159.72</ele>
        <time>2021-06-06T14:00:37Z</time>
      </trkpt>
      <trkpt lat="44.80502" lon="1.58765">
        <ele>158.27</ele>
        <time>2021-06-06T14:00:49Z</time>
      </trkpt>
      <trkpt lat="44.80515" lon="1.58776">
        <ele>158.75</ele>
        <time>2021-06-06T14:01:02Z</time>
      </trkpt>
      <trkpt lat="44.80518" lon="1.58779">
        <ele>157.31</ele>
        <time>2021-06-06T14:01:05Z</time>
      </trkpt>
      <trkpt lat="44.80534" lon="1.58791">
        <ele>156.83</ele>
        <time>2021-06-06T14:01:19Z</time>
      </trkpt>
      <trkpt lat="44.80544" lon="1.58797">
        <ele>156.83</ele>
        <time>2021-06-06T14:01:27Z</time>
      </trkpt>
      <trkpt lat="44.80554" lon="1.58803">
        <ele>156.83</ele>
        <time>2021-06-06T14:01:36Z</time>
      </trkpt>
      <trkpt lat="44.80573" lon="1.58808">
        <ele>156.35</ele>
        <time>2021-06-06T14:01:52Z</time>
      </trkpt>
      <trkpt lat="44.80579" lon="1.58811">
        <ele>156.35</ele>
        <time>2021-06-06T14:01:57Z</time>
      </trkpt>
      <trkpt lat="44.80582" lon="1.58817">
        <ele>156.35</ele>
        <time>2021-06-06T14:02:02Z</time>
      </trkpt>
      <trkpt lat="44.80585" lon="1.58832">
        <ele>156.35</ele>
        <time>2021-06-06T14:02:12Z</time>
      </trkpt>
      <trkpt lat="44.80587" lon="1.58844">
        <ele>156.83</ele>
        <time>2021-06-06T14:02:21Z</time>
      </trkpt>
      <trkpt lat="44.80587" lon="1.58854">
        <ele>157.79</ele>
        <time>2021-06-06T14:02:28Z</time>
      </trkpt>
      <trkpt lat="44.80589" lon="1.58862">
        <ele>158.75</ele>
        <time>2021-06-06T14:02:34Z</time>
      </trkpt>
      <trkpt lat="44.80591" lon="1.58871">
        <ele>159.72</ele>
        <time>2021-06-06T14:02:41Z</time>
      </trkpt>
      <trkpt lat="44.8059" lon="1.58876">
        <ele>160.2</ele>
        <time>2021-06-06T14:02:51Z</time>
      </trkpt>
      <trkpt lat="44.80592" lon="1.58876">
        <ele>160.2</ele>
        <time>2021-06-06T14:03:06Z</time>
      </trkpt>
      <trkpt lat="44.80588" lon="1.58876">
        <ele>160.2</ele>
        <time>2021-06-06T14:03:21Z</time>
      </trkpt>
      <trkpt lat="44.80589" lon="1.58878">
        <ele>160.2</ele>
        <time>2021-06-06T14:03:42Z</time>
      </trkpt>
      <trkpt lat="44.80591" lon="1.58878">
        <ele>160.2</ele>
        <time>2021-06-06T14:03:57Z</time>
      </trkpt>
      <trkpt lat="44.8059" lon="1.58877">
        <ele>160.68</ele>
        <time>2021-06-06T14:04:18Z</time>
      </trkpt>
      <trkpt lat="44.80591" lon="1.58877">
        <ele>160.2</ele>
        <time>2021-06-06T14:04:37Z</time>
      </trkpt>
      <trkpt lat="44.8059" lon="1.58879">
        <ele>160.2</ele>
        <time>2021-06-06T14:04:52Z</time>
      </trkpt>
      <trkpt lat="44.80588" lon="1.5888">
        <ele>160.2</ele>
        <time>2021-06-06T14:05:16Z</time>
      </trkpt>
      <trkpt lat="44.80589" lon="1.58876">
        <ele>159.72</ele>
        <time>2021-06-06T14:05:35Z</time>
      </trkpt>
      <trkpt lat="44.8059" lon="1.58879">
        <ele>159.72</ele>
        <time>2021-06-06T14:05:45Z</time>
      </trkpt>
      <trkpt lat="44.80589" lon="1.58881">
        <ele>159.72</ele>
        <time>2021-06-06T14:05:56Z</time>
      </trkpt>
      <trkpt lat="44.80591" lon="1.5888">
        <ele>159.72</ele>
        <time>2021-06-06T14:06:10Z</time>
      </trkpt>
      <trkpt lat="44.8059" lon="1.58873">
        <ele>159.72</ele>
        <time>2021-06-06T14:06:19Z</time>
      </trkpt>
      <trkpt lat="44.80586" lon="1.58873">
        <ele>159.72</ele>
        <time>2021-06-06T14:06:33Z</time>
      </trkpt>
      <trkpt lat="44.80588" lon="1.58875">
        <ele>159.72</ele>
        <time>2021-06-06T14:06:43Z</time>
      </trkpt>
      <trkpt lat="44.80588" lon="1.58876">
        <ele>159.72</ele>
        <time>2021-06-06T14:06:57Z</time>
      </trkpt>
      <trkpt lat="44.80589" lon="1.58875">
        <ele>159.72</ele>
        <time>2021-06-06T14:07:08Z</time>
      </trkpt>
      <trkpt lat="44.80594" lon="1.58876">
        <ele>161.16</ele>
        <time>2021-06-06T14:07:24Z</time>
      </trkpt>
      <trkpt lat="44.80599" lon="1.58876">
        <ele>162.12</ele>
        <time>2021-06-06T14:07:32Z</time>
      </trkpt>
      <trkpt lat="44.80608" lon="1.58877">
        <ele>164.04</ele>
        <time>2021-06-06T14:07:42Z</time>
      </trkpt>
      <trkpt lat="44.80617" lon="1.58878">
        <ele>165</ele>
        <time>2021-06-06T14:07:52Z</time>
      </trkpt>
      <trkpt lat="44.80621" lon="1.58879">
        <ele>165.96</ele>
        <time>2021-06-06T14:07:57Z</time>
      </trkpt>
      <trkpt lat="44.80623" lon="1.5888">
        <ele>166.93</ele>
        <time>2021-06-06T14:07:59Z</time>
      </trkpt>
      <trkpt lat="44.80627" lon="1.58881">
        <ele>167.41</ele>
        <time>2021-06-06T14:08:04Z</time>
      </trkpt>
      <trkpt lat="44.80636" lon="1.58883">
        <ele>168.85</ele>
        <time>2021-06-06T14:08:15Z</time>
      </trkpt>
      <trkpt lat="44.80644" lon="1.58887">
        <ele>170.77</ele>
        <time>2021-06-06T14:08:25Z</time>
      </trkpt>
      <trkpt lat="44.80654" lon="1.58891">
        <ele>172.69</ele>
        <time>2021-06-06T14:08:36Z</time>
      </trkpt>
      <trkpt lat="44.8066" lon="1.58895">
        <ele>174.14</ele>
        <time>2021-06-06T14:08:45Z</time>
      </trkpt>
      <trkpt lat="44.80669" lon="1.58901">
        <ele>177.02</ele>
        <time>2021-06-06T14:08:58Z</time>
      </trkpt>
      <trkpt lat="44.8068" lon="1.58908">
        <ele>177.98</ele>
        <time>2021-06-06T14:09:10Z</time>
      </trkpt>
      <trkpt lat="44.80684" lon="1.58911">
        <ele>177.98</ele>
        <time>2021-06-06T14:09:15Z</time>
      </trkpt>
      <trkpt lat="44.80697" lon="1.58921">
        <ele>178.94</ele>
        <time>2021-06-06T14:09:29Z</time>
      </trkpt>
      <trkpt lat="44.80707" lon="1.58927">
        <ele>179.9</ele>
        <time>2021-06-06T14:09:41Z</time>
      </trkpt>
      <trkpt lat="44.80716" lon="1.58934">
        <ele>181.83</ele>
        <time>2021-06-06T14:09:52Z</time>
      </trkpt>
      <trkpt lat="44.80724" lon="1.58941">
        <ele>182.79</ele>
        <time>2021-06-06T14:10:03Z</time>
      </trkpt>
      <trkpt lat="44.80724" lon="1.5894">
        <ele>182.79</ele>
        <time>2021-06-06T14:10:15Z</time>
      </trkpt>
      <trkpt lat="44.80725" lon="1.58941">
        <ele>179.42</ele>
        <time>2021-06-06T14:10:26Z</time>
      </trkpt>
      <trkpt lat="44.80725" lon="1.58941">
        <ele>184.23</ele>
        <time>2021-06-06T14:10:27Z</time>
      </trkpt>
      <trkpt lat="44.80725" lon="1.5894">
        <ele>183.27</ele>
        <time>2021-06-06T14:10:31Z</time>
      </trkpt>
      <trkpt lat="44.80725" lon="1.58939">
        <ele>175.58</ele>
        <time>2021-06-06T14:10:36Z</time>
      </trkpt>
      <trkpt lat="44.80725" lon="1.5894">
        <ele>181.35</ele>
        <time>2021-06-06T14:10:37Z</time>
      </trkpt>
      <trkpt lat="44.80725" lon="1.5894">
        <ele>184.71</ele>
        <time>2021-06-06T14:10:38Z</time>
      </trkpt>
      <trkpt lat="44.80725" lon="1.58941">
        <ele>189.04</ele>
        <time>2021-06-06T14:10:39Z</time>
      </trkpt>
      <trkpt lat="44.80725" lon="1.58941">
        <ele>182.31</ele>
        <time>2021-06-06T14:10:40Z</time>
      </trkpt>
      <trkpt lat="44.80725" lon="1.5894">
        <ele>183.27</ele>
        <time>2021-06-06T14:10:48Z</time>
      </trkpt>
      <trkpt lat="44.80728" lon="1.58941">
        <ele>182.79</ele>
        <time>2021-06-06T14:11:03Z</time>
      </trkpt>
      <trkpt lat="44.80728" lon="1.58943">
        <ele>182.79</ele>
        <time>2021-06-06T14:11:15Z</time>
      </trkpt>
      <trkpt lat="44.80729" lon="1.58942">
        <ele>182.79</ele>
        <time>2021-06-06T14:11:26Z</time>
      </trkpt>
      <trkpt lat="44.80729" lon="1.58941">
        <ele>182.31</ele>
        <time>2021-06-06T14:11:44Z</time>
      </trkpt>
      <trkpt lat="44.8073" lon="1.58941">
        <ele>182.31</ele>
        <time>2021-06-06T14:11:58Z</time>
      </trkpt>
      <trkpt lat="44.80731" lon="1.58948">
        <ele>183.27</ele>
        <time>2021-06-06T14:12:14Z</time>
      </trkpt>
      <trkpt lat="44.80736" lon="1.58958">
        <ele>183.75</ele>
        <time>2021-06-06T14:12:24Z</time>
      </trkpt>
      <trkpt lat="44.80738" lon="1.58962">
        <ele>184.23</ele>
        <time>2021-06-06T14:12:28Z</time>
      </trkpt>
      <trkpt lat="44.80739" lon="1.58963">
        <ele>184.71</ele>
        <time>2021-06-06T14:12:40Z</time>
      </trkpt>
      <trkpt lat="44.80741" lon="1.58963">
        <ele>184.71</ele>
        <time>2021-06-06T14:13:02Z</time>
      </trkpt>
      <trkpt lat="44.80744" lon="1.5896">
        <ele>184.71</ele>
        <time>2021-06-06T14:13:16Z</time>
      </trkpt>
      <trkpt lat="44.80744" lon="1.5896">
        <ele>184.71</ele>
        <time>2021-06-06T14:13:38Z</time>
      </trkpt>
      <trkpt lat="44.80742" lon="1.58963">
        <ele>184.71</ele>
        <time>2021-06-06T14:13:59Z</time>
      </trkpt>
      <trkpt lat="44.80744" lon="1.58974">
        <ele>185.67</ele>
        <time>2021-06-06T14:14:09Z</time>
      </trkpt>
      <trkpt lat="44.80745" lon="1.58988">
        <ele>188.08</ele>
        <time>2021-06-06T14:14:20Z</time>
      </trkpt>
      <trkpt lat="44.80747" lon="1.58999">
        <ele>189.52</ele>
        <time>2021-06-06T14:14:31Z</time>
      </trkpt>
      <trkpt lat="44.80748" lon="1.59011">
        <ele>190</ele>
        <time>2021-06-06T14:14:41Z</time>
      </trkpt>
      <trkpt lat="44.80748" lon="1.59014">
        <ele>190.48</ele>
        <time>2021-06-06T14:14:44Z</time>
      </trkpt>
      <trkpt lat="44.80746" lon="1.59031">
        <ele>192.88</ele>
        <time>2021-06-06T14:14:57Z</time>
      </trkpt>
      <trkpt lat="44.80741" lon="1.59043">
        <ele>194.32</ele>
        <time>2021-06-06T14:15:09Z</time>
      </trkpt>
      <trkpt lat="44.80736" lon="1.59048">
        <ele>195.77</ele>
        <time>2021-06-06T14:15:19Z</time>
      </trkpt>
      <trkpt lat="44.80734" lon="1.59047">
        <ele>197.21</ele>
        <time>2021-06-06T14:15:22Z</time>
      </trkpt>
      <trkpt lat="44.80733" lon="1.59045">
        <ele>197.21</ele>
        <time>2021-06-06T14:15:24Z</time>
      </trkpt>
      <trkpt lat="44.80733" lon="1.59043">
        <ele>197.69</ele>
        <time>2021-06-06T14:15:26Z</time>
      </trkpt>
      <trkpt lat="44.80741" lon="1.59043">
        <ele>200.09</ele>
        <time>2021-06-06T14:15:36Z</time>
      </trkpt>
      <trkpt lat="44.80739" lon="1.59043">
        <ele>201.53</ele>
        <time>2021-06-06T14:15:46Z</time>
      </trkpt>
      <trkpt lat="44.80735" lon="1.59035">
        <ele>203.46</ele>
        <time>2021-06-06T14:15:56Z</time>
      </trkpt>
      <trkpt lat="44.80726" lon="1.59028">
        <ele>204.9</ele>
        <time>2021-06-06T14:16:07Z</time>
      </trkpt>
      <trkpt lat="44.80718" lon="1.59022">
        <ele>206.82</ele>
        <time>2021-06-06T14:16:18Z</time>
      </trkpt>
      <trkpt lat="44.80704" lon="1.59022">
        <ele>209.22</ele>
        <time>2021-06-06T14:16:29Z</time>
      </trkpt>
      <trkpt lat="44.80694" lon="1.5902">
        <ele>211.15</ele>
        <time>2021-06-06T14:16:40Z</time>
      </trkpt>
      <trkpt lat="44.80686" lon="1.59019">
        <ele>212.11</ele>
        <time>2021-06-06T14:16:49Z</time>
      </trkpt>
      <trkpt lat="44.80675" lon="1.59021">
        <ele>214.51</ele>
        <time>2021-06-06T14:17:00Z</time>
      </trkpt>
      <trkpt lat="44.80668" lon="1.59025">
        <ele>215.95</ele>
        <time>2021-06-06T14:17:10Z</time>
      </trkpt>
      <trkpt lat="44.80657" lon="1.59027">
        <ele>217.88</ele>
        <time>2021-06-06T14:17:21Z</time>
      </trkpt>
      <trkpt lat="44.80649" lon="1.59031">
        <ele>220.28</ele>
        <time>2021-06-06T14:17:32Z</time>
      </trkpt>
      <trkpt lat="44.80647" lon="1.59035">
        <ele>220.76</ele>
        <time>2021-06-06T14:17:44Z</time>
      </trkpt>
      <trkpt lat="44.8064" lon="1.59041">
        <ele>222.2</ele>
        <time>2021-06-06T14:18:04Z</time>
      </trkpt>
      <trkpt lat="44.80631" lon="1.59052">
        <ele>225.09</ele>
        <time>2021-06-06T14:18:18Z</time>
      </trkpt>
      <trkpt lat="44.80624" lon="1.59064">
        <ele>227.49</ele>
        <time>2021-06-06T14:18:32Z</time>
      </trkpt>
      <trkpt lat="44.80622" lon="1.59071">
        <ele>229.41</ele>
        <time>2021-06-06T14:18:44Z</time>
      </trkpt>
      <trkpt lat="44.80615" lon="1.59079">
        <ele>231.33</ele>
        <time>2021-06-06T14:18:55Z</time>
      </trkpt>
      <trkpt lat="44.80609" lon="1.5909">
        <ele>233.74</ele>
        <time>2021-06-06T14:19:07Z</time>
      </trkpt>
      <trkpt lat="44.80606" lon="1.591">
        <ele>235.18</ele>
        <time>2021-06-06T14:19:20Z</time>
      </trkpt>
      <trkpt lat="44.80604" lon="1.59106">
        <ele>236.14</ele>
        <time>2021-06-06T14:19:31Z</time>
      </trkpt>
      <trkpt lat="44.80606" lon="1.59114">
        <ele>236.62</ele>
        <time>2021-06-06T14:19:43Z</time>
      </trkpt>
      <trkpt lat="44.80608" lon="1.5912">
        <ele>236.62</ele>
        <time>2021-06-06T14:20:14Z</time>
      </trkpt>
      <trkpt lat="44.80607" lon="1.59113">
        <ele>236.62</ele>
        <time>2021-06-06T14:20:31Z</time>
      </trkpt>
      <trkpt lat="44.80607" lon="1.59114">
        <ele>236.62</ele>
        <time>2021-06-06T14:20:32Z</time>
      </trkpt>
      <trkpt lat="44.80604" lon="1.59125">
        <ele>238.06</ele>
        <time>2021-06-06T14:20:43Z</time>
      </trkpt>
      <trkpt lat="44.80605" lon="1.5914">
        <ele>239.51</ele>
        <time>2021-06-06T14:20:54Z</time>
      </trkpt>
      <trkpt lat="44.80605" lon="1.59152">
        <ele>240.47</ele>
        <time>2021-06-06T14:21:06Z</time>
      </trkpt>
      <trkpt lat="44.80603" lon="1.59166">
        <ele>241.43</ele>
        <time>2021-06-06T14:21:18Z</time>
      </trkpt>
      <trkpt lat="44.80603" lon="1.59169">
        <ele>241.43</ele>
        <time>2021-06-06T14:21:20Z</time>
      </trkpt>
      <trkpt lat="44.80599" lon="1.59184">
        <ele>242.87</ele>
        <time>2021-06-06T14:21:32Z</time>
      </trkpt>
      <trkpt lat="44.80595" lon="1.59198">
        <ele>243.83</ele>
        <time>2021-06-06T14:21:44Z</time>
      </trkpt>
      <trkpt lat="44.80593" lon="1.59215">
        <ele>245.27</ele>
        <time>2021-06-06T14:21:56Z</time>
      </trkpt>
      <trkpt lat="44.8059" lon="1.59232">
        <ele>246.23</ele>
        <time>2021-06-06T14:22:09Z</time>
      </trkpt>
      <trkpt lat="44.80588" lon="1.59244">
        <ele>247.2</ele>
        <time>2021-06-06T14:22:19Z</time>
      </trkpt>
      <trkpt lat="44.80586" lon="1.5926">
        <ele>248.16</ele>
        <time>2021-06-06T14:22:30Z</time>
      </trkpt>
      <trkpt lat="44.80584" lon="1.59276">
        <ele>249.12</ele>
        <time>2021-06-06T14:22:41Z</time>
      </trkpt>
      <trkpt lat="44.80582" lon="1.59289">
        <ele>249.6</ele>
        <time>2021-06-06T14:22:50Z</time>
      </trkpt>
      <trkpt lat="44.80579" lon="1.59305">
        <ele>251.04</ele>
        <time>2021-06-06T14:23:01Z</time>
      </trkpt>
      <trkpt lat="44.80576" lon="1.59319">
        <ele>252</ele>
        <time>2021-06-06T14:23:12Z</time>
      </trkpt>
      <trkpt lat="44.80572" lon="1.59336">
        <ele>252.48</ele>
        <time>2021-06-06T14:23:24Z</time>
      </trkpt>
      <trkpt lat="44.8057" lon="1.59344">
        <ele>253.44</ele>
        <time>2021-06-06T14:23:30Z</time>
      </trkpt>
      <trkpt lat="44.80563" lon="1.59364">
        <ele>254.89</ele>
        <time>2021-06-06T14:23:44Z</time>
      </trkpt>
      <trkpt lat="44.8056" lon="1.59373">
        <ele>255.37</ele>
        <time>2021-06-06T14:23:54Z</time>
      </trkpt>
      <trkpt lat="44.80559" lon="1.59373">
        <ele>255.37</ele>
        <time>2021-06-06T14:23:55Z</time>
      </trkpt>
      <trkpt lat="44.80556" lon="1.59374">
        <ele>255.37</ele>
        <time>2021-06-06T14:23:59Z</time>
      </trkpt>
      <trkpt lat="44.80544" lon="1.59385">
        <ele>255.85</ele>
        <time>2021-06-06T14:24:13Z</time>
      </trkpt>
      <trkpt lat="44.80536" lon="1.59398">
        <ele>256.81</ele>
        <time>2021-06-06T14:24:24Z</time>
      </trkpt>
      <trkpt lat="44.80529" lon="1.59415">
        <ele>257.77</ele>
        <time>2021-06-06T14:24:36Z</time>
      </trkpt>
      <trkpt lat="44.80526" lon="1.59419">
        <ele>258.25</ele>
        <time>2021-06-06T14:24:40Z</time>
      </trkpt>
      <trkpt lat="44.80518" lon="1.59435">
        <ele>259.21</ele>
        <time>2021-06-06T14:24:53Z</time>
      </trkpt>
      <trkpt lat="44.80508" lon="1.59448">
        <ele>260.17</ele>
        <time>2021-06-06T14:25:05Z</time>
      </trkpt>
      <trkpt lat="44.80496" lon="1.59461">
        <ele>261.14</ele>
        <time>2021-06-06T14:25:19Z</time>
      </trkpt>
      <trkpt lat="44.80487" lon="1.59473">
        <ele>262.1</ele>
        <time>2021-06-06T14:25:32Z</time>
      </trkpt>
      <trkpt lat="44.80478" lon="1.59483">
        <ele>263.06</ele>
        <time>2021-06-06T14:25:46Z</time>
      </trkpt>
      <trkpt lat="44.80465" lon="1.59495">
        <ele>263.54</ele>
        <time>2021-06-06T14:25:58Z</time>
      </trkpt>
      <trkpt lat="44.80452" lon="1.59506">
        <ele>264.98</ele>
        <time>2021-06-06T14:26:11Z</time>
      </trkpt>
      <trkpt lat="44.80441" lon="1.59514">
        <ele>264.98</ele>
        <time>2021-06-06T14:26:22Z</time>
      </trkpt>
      <trkpt lat="44.80435" lon="1.59521">
        <ele>265.46</ele>
        <time>2021-06-06T14:26:27Z</time>
      </trkpt>
      <trkpt lat="44.80428" lon="1.5954">
        <ele>265.94</ele>
        <time>2021-06-06T14:26:41Z</time>
      </trkpt>
      <trkpt lat="44.80428" lon="1.5956">
        <ele>266.42</ele>
        <time>2021-06-06T14:26:55Z</time>
      </trkpt>
      <trkpt lat="44.80426" lon="1.59576">
        <ele>266.9</ele>
        <time>2021-06-06T14:27:08Z</time>
      </trkpt>
      <trkpt lat="44.80424" lon="1.59593">
        <ele>267.86</ele>
        <time>2021-06-06T14:27:19Z</time>
      </trkpt>
      <trkpt lat="44.80424" lon="1.59612">
        <ele>267.86</ele>
        <time>2021-06-06T14:27:31Z</time>
      </trkpt>
      <trkpt lat="44.80421" lon="1.59634">
        <ele>269.31</ele>
        <time>2021-06-06T14:27:44Z</time>
      </trkpt>
      <trkpt lat="44.8042" lon="1.59646">
        <ele>269.31</ele>
        <time>2021-06-06T14:27:52Z</time>
      </trkpt>
      <trkpt lat="44.80418" lon="1.59665">
        <ele>269.31</ele>
        <time>2021-06-06T14:28:05Z</time>
      </trkpt>
      <trkpt lat="44.80414" lon="1.59684">
        <ele>269.79</ele>
        <time>2021-06-06T14:28:17Z</time>
      </trkpt>
      <trkpt lat="44.8041" lon="1.59702">
        <ele>270.75</ele>
        <time>2021-06-06T14:28:29Z</time>
      </trkpt>
      <trkpt lat="44.80409" lon="1.59726">
        <ele>270.75</ele>
        <time>2021-06-06T14:28:43Z</time>
      </trkpt>
      <trkpt lat="44.80407" lon="1.59746">
        <ele>271.71</ele>
        <time>2021-06-06T14:28:55Z</time>
      </trkpt>
      <trkpt lat="44.80406" lon="1.59766">
        <ele>271.71</ele>
        <time>2021-06-06T14:29:07Z</time>
      </trkpt>
      <trkpt lat="44.80398" lon="1.59786">
        <ele>270.75</ele>
        <time>2021-06-06T14:29:21Z</time>
      </trkpt>
      <trkpt lat="44.80393" lon="1.59798">
        <ele>270.27</ele>
        <time>2021-06-06T14:29:30Z</time>
      </trkpt>
      <trkpt lat="44.80392" lon="1.59811">
        <ele>270.27</ele>
        <time>2021-06-06T14:29:38Z</time>
      </trkpt>
      <trkpt lat="44.804" lon="1.59826">
        <ele>270.75</ele>
        <time>2021-06-06T14:29:42Z</time>
      </trkpt>
      <trkpt lat="44.80415" lon="1.59837">
        <ele>272.19</ele>
        <time>2021-06-06T14:29:52Z</time>
      </trkpt>
      <trkpt lat="44.80434" lon="1.5984">
        <ele>272.67</ele>
        <time>2021-06-06T14:30:06Z</time>
      </trkpt>
      <trkpt lat="44.80452" lon="1.59842">
        <ele>273.63</ele>
        <time>2021-06-06T14:30:21Z</time>
      </trkpt>
      <trkpt lat="44.80467" lon="1.59844">
        <ele>274.11</ele>
        <time>2021-06-06T14:30:34Z</time>
      </trkpt>
      <trkpt lat="44.80485" lon="1.59847">
        <ele>274.59</ele>
        <time>2021-06-06T14:30:49Z</time>
      </trkpt>
      <trkpt lat="44.80502" lon="1.59848">
        <ele>275.56</ele>
        <time>2021-06-06T14:31:03Z</time>
      </trkpt>
      <trkpt lat="44.80518" lon="1.5985">
        <ele>276.04</ele>
        <time>2021-06-06T14:31:16Z</time>
      </trkpt>
      <trkpt lat="44.80533" lon="1.59853">
        <ele>276.52</ele>
        <time>2021-06-06T14:31:30Z</time>
      </trkpt>
      <trkpt lat="44.80534" lon="1.59854">
        <ele>276.04</ele>
        <time>2021-06-06T14:31:34Z</time>
      </trkpt>
      <trkpt lat="44.80537" lon="1.59861">
        <ele>276.52</ele>
        <time>2021-06-06T14:31:44Z</time>
      </trkpt>
      <trkpt lat="44.80538" lon="1.59871">
        <ele>276.52</ele>
        <time>2021-06-06T14:31:55Z</time>
      </trkpt>
      <trkpt lat="44.80537" lon="1.59881">
        <ele>277</ele>
        <time>2021-06-06T14:32:05Z</time>
      </trkpt>
      <trkpt lat="44.80537" lon="1.59883">
        <ele>277</ele>
        <time>2021-06-06T14:32:06Z</time>
      </trkpt>
      <trkpt lat="44.80536" lon="1.59901">
        <ele>277</ele>
        <time>2021-06-06T14:32:18Z</time>
      </trkpt>
      <trkpt lat="44.80536" lon="1.59922">
        <ele>277.48</ele>
        <time>2021-06-06T14:32:31Z</time>
      </trkpt>
      <trkpt lat="44.80535" lon="1.5994">
        <ele>277.96</ele>
        <time>2021-06-06T14:32:43Z</time>
      </trkpt>
      <trkpt lat="44.80535" lon="1.59963">
        <ele>278.44</ele>
        <time>2021-06-06T14:32:57Z</time>
      </trkpt>
      <trkpt lat="44.80534" lon="1.59985">
        <ele>278.92</ele>
        <time>2021-06-06T14:33:10Z</time>
      </trkpt>
      <trkpt lat="44.80532" lon="1.60002">
        <ele>279.4</ele>
        <time>2021-06-06T14:33:21Z</time>
      </trkpt>
      <trkpt lat="44.80532" lon="1.6002">
        <ele>279.4</ele>
        <time>2021-06-06T14:33:32Z</time>
      </trkpt>
      <trkpt lat="44.80532" lon="1.6003">
        <ele>279.4</ele>
        <time>2021-06-06T14:33:38Z</time>
      </trkpt>
      <trkpt lat="44.80532" lon="1.60045">
        <ele>279.88</ele>
        <time>2021-06-06T14:33:48Z</time>
      </trkpt>
      <trkpt lat="44.80531" lon="1.60061">
        <ele>279.88</ele>
        <time>2021-06-06T14:33:58Z</time>
      </trkpt>
      <trkpt lat="44.8053" lon="1.60078">
        <ele>279.88</ele>
        <time>2021-06-06T14:34:08Z</time>
      </trkpt>
      <trkpt lat="44.80529" lon="1.60092">
        <ele>279.88</ele>
        <time>2021-06-06T14:34:16Z</time>
      </trkpt>
      <trkpt lat="44.80527" lon="1.60117">
        <ele>279.88</ele>
        <time>2021-06-06T14:34:31Z</time>
      </trkpt>
      <trkpt lat="44.80526" lon="1.60138">
        <ele>279.88</ele>
        <time>2021-06-06T14:34:44Z</time>
      </trkpt>
      <trkpt lat="44.80524" lon="1.60166">
        <ele>279.88</ele>
        <time>2021-06-06T14:35:01Z</time>
      </trkpt>
      <trkpt lat="44.80522" lon="1.60189">
        <ele>279.88</ele>
        <time>2021-06-06T14:35:15Z</time>
      </trkpt>
      <trkpt lat="44.80521" lon="1.60214">
        <ele>280.36</ele>
        <time>2021-06-06T14:35:29Z</time>
      </trkpt>
      <trkpt lat="44.8052" lon="1.60241">
        <ele>280.36</ele>
        <time>2021-06-06T14:35:45Z</time>
      </trkpt>
      <trkpt lat="44.80518" lon="1.60266">
        <ele>280.36</ele>
        <time>2021-06-06T14:36:00Z</time>
      </trkpt>
      <trkpt lat="44.80516" lon="1.60288">
        <ele>279.4</ele>
        <time>2021-06-06T14:36:14Z</time>
      </trkpt>
      <trkpt lat="44.80513" lon="1.60311">
        <ele>278.44</ele>
        <time>2021-06-06T14:36:28Z</time>
      </trkpt>
      <trkpt lat="44.8051" lon="1.60335">
        <ele>277.96</ele>
        <time>2021-06-06T14:36:43Z</time>
      </trkpt>
      <trkpt lat="44.80507" lon="1.60356">
        <ele>276.52</ele>
        <time>2021-06-06T14:36:56Z</time>
      </trkpt>
      <trkpt lat="44.80503" lon="1.60379">
        <ele>275.56</ele>
        <time>2021-06-06T14:37:10Z</time>
      </trkpt>
      <trkpt lat="44.80499" lon="1.60404">
        <ele>275.07</ele>
        <time>2021-06-06T14:37:25Z</time>
      </trkpt>
      <trkpt lat="44.80496" lon="1.60416">
        <ele>274.11</ele>
        <time>2021-06-06T14:37:32Z</time>
      </trkpt>
      <trkpt lat="44.80495" lon="1.60422">
        <ele>273.15</ele>
        <time>2021-06-06T14:37:36Z</time>
      </trkpt>
      <trkpt lat="44.80491" lon="1.60448">
        <ele>271.71</ele>
        <time>2021-06-06T14:37:51Z</time>
      </trkpt>
      <trkpt lat="44.8049" lon="1.60473">
        <ele>269.79</ele>
        <time>2021-06-06T14:38:05Z</time>
      </trkpt>
      <trkpt lat="44.80494" lon="1.60499">
        <ele>267.86</ele>
        <time>2021-06-06T14:38:19Z</time>
      </trkpt>
      <trkpt lat="44.80497" lon="1.60517">
        <ele>266.9</ele>
        <time>2021-06-06T14:38:30Z</time>
      </trkpt>
      <trkpt lat="44.80494" lon="1.60534">
        <ele>266.42</ele>
        <time>2021-06-06T14:38:43Z</time>
      </trkpt>
      <trkpt lat="44.80484" lon="1.6055">
        <ele>265.94</ele>
        <time>2021-06-06T14:38:56Z</time>
      </trkpt>
      <trkpt lat="44.80474" lon="1.6057">
        <ele>265.94</ele>
        <time>2021-06-06T14:39:09Z</time>
      </trkpt>
      <trkpt lat="44.80467" lon="1.60587">
        <ele>265.94</ele>
        <time>2021-06-06T14:39:21Z</time>
      </trkpt>
      <trkpt lat="44.8046" lon="1.60603">
        <ele>265.94</ele>
        <time>2021-06-06T14:39:32Z</time>
      </trkpt>
      <trkpt lat="44.80452" lon="1.60617">
        <ele>267.38</ele>
        <time>2021-06-06T14:39:42Z</time>
      </trkpt>
      <trkpt lat="44.80444" lon="1.60632">
        <ele>267.38</ele>
        <time>2021-06-06T14:39:54Z</time>
      </trkpt>
      <trkpt lat="44.80437" lon="1.60639">
        <ele>267.38</ele>
        <time>2021-06-06T14:40:02Z</time>
      </trkpt>
      <trkpt lat="44.80436" lon="1.6064">
        <ele>267.38</ele>
        <time>2021-06-06T14:40:03Z</time>
      </trkpt>
      <trkpt lat="44.80422" lon="1.60648">
        <ele>266.42</ele>
        <time>2021-06-06T14:40:16Z</time>
      </trkpt>
      <trkpt lat="44.80408" lon="1.60658">
        <ele>266.42</ele>
        <time>2021-06-06T14:40:27Z</time>
      </trkpt>
      <trkpt lat="44.80398" lon="1.60667">
        <ele>268.35</ele>
        <time>2021-06-06T14:40:37Z</time>
      </trkpt>
      <trkpt lat="44.80397" lon="1.60669">
        <ele>268.35</ele>
        <time>2021-06-06T14:40:39Z</time>
      </trkpt>
      <trkpt lat="44.80384" lon="1.60687">
        <ele>268.83</ele>
        <time>2021-06-06T14:40:55Z</time>
      </trkpt>
      <trkpt lat="44.80376" lon="1.60705">
        <ele>270.27</ele>
        <time>2021-06-06T14:41:07Z</time>
      </trkpt>
      <trkpt lat="44.80376" lon="1.60726">
        <ele>270.75</ele>
        <time>2021-06-06T14:41:17Z</time>
      </trkpt>
      <trkpt lat="44.80376" lon="1.60739">
        <ele>271.23</ele>
        <time>2021-06-06T14:41:25Z</time>
      </trkpt>
      <trkpt lat="44.80376" lon="1.60757">
        <ele>272.19</ele>
        <time>2021-06-06T14:41:37Z</time>
      </trkpt>
      <trkpt lat="44.80374" lon="1.60776">
        <ele>272.19</ele>
        <time>2021-06-06T14:41:49Z</time>
      </trkpt>
      <trkpt lat="44.80373" lon="1.60794">
        <ele>272.67</ele>
        <time>2021-06-06T14:42:00Z</time>
      </trkpt>
      <trkpt lat="44.80373" lon="1.608">
        <ele>272.67</ele>
        <time>2021-06-06T14:42:03Z</time>
      </trkpt>
      <trkpt lat="44.80371" lon="1.60818">
        <ele>273.15</ele>
        <time>2021-06-06T14:42:13Z</time>
      </trkpt>
      <trkpt lat="44.8037" lon="1.60838">
        <ele>273.15</ele>
        <time>2021-06-06T14:42:25Z</time>
      </trkpt>
      <trkpt lat="44.80367" lon="1.60859">
        <ele>272.19</ele>
        <time>2021-06-06T14:42:38Z</time>
      </trkpt>
      <trkpt lat="44.80367" lon="1.6087">
        <ele>272.19</ele>
        <time>2021-06-06T14:42:50Z</time>
      </trkpt>
      <trkpt lat="44.80363" lon="1.60889">
        <ele>272.19</ele>
        <time>2021-06-06T14:43:02Z</time>
      </trkpt>
      <trkpt lat="44.80363" lon="1.60902">
        <ele>272.19</ele>
        <time>2021-06-06T14:43:09Z</time>
      </trkpt>
      <trkpt lat="44.80363" lon="1.60913">
        <ele>272.19</ele>
        <time>2021-06-06T14:43:15Z</time>
      </trkpt>
      <trkpt lat="44.80363" lon="1.60933">
        <ele>272.19</ele>
        <time>2021-06-06T14:43:28Z</time>
      </trkpt>
      <trkpt lat="44.80364" lon="1.60944">
        <ele>272.19</ele>
        <time>2021-06-06T14:43:36Z</time>
      </trkpt>
      <trkpt lat="44.80364" lon="1.60968">
        <ele>272.19</ele>
        <time>2021-06-06T14:43:50Z</time>
      </trkpt>
      <trkpt lat="44.80364" lon="1.60982">
        <ele>272.67</ele>
        <time>2021-06-06T14:44:00Z</time>
      </trkpt>
      <trkpt lat="44.80367" lon="1.60994">
        <ele>272.67</ele>
        <time>2021-06-06T14:44:10Z</time>
      </trkpt>
      <trkpt lat="44.80374" lon="1.61016">
        <ele>273.15</ele>
        <time>2021-06-06T14:44:20Z</time>
      </trkpt>
      <trkpt lat="44.80376" lon="1.61025">
        <ele>273.15</ele>
        <time>2021-06-06T14:44:24Z</time>
      </trkpt>
      <trkpt lat="44.80387" lon="1.6105">
        <ele>272.67</ele>
        <time>2021-06-06T14:44:37Z</time>
      </trkpt>
      <trkpt lat="44.80392" lon="1.61057">
        <ele>272.67</ele>
        <time>2021-06-06T14:44:41Z</time>
      </trkpt>
      <trkpt lat="44.80403" lon="1.61085">
        <ele>273.15</ele>
        <time>2021-06-06T14:44:51Z</time>
      </trkpt>
      <trkpt lat="44.80414" lon="1.61101">
        <ele>273.15</ele>
        <time>2021-06-06T14:45:04Z</time>
      </trkpt>
      <trkpt lat="44.80419" lon="1.61108">
        <ele>274.11</ele>
        <time>2021-06-06T14:45:09Z</time>
      </trkpt>
      <trkpt lat="44.80428" lon="1.61127">
        <ele>275.07</ele>
        <time>2021-06-06T14:45:22Z</time>
      </trkpt>
      <trkpt lat="44.80436" lon="1.61144">
        <ele>275.56</ele>
        <time>2021-06-06T14:45:34Z</time>
      </trkpt>
      <trkpt lat="44.80442" lon="1.61162">
        <ele>276.52</ele>
        <time>2021-06-06T14:45:46Z</time>
      </trkpt>
      <trkpt lat="44.80445" lon="1.61177">
        <ele>277</ele>
        <time>2021-06-06T14:45:55Z</time>
      </trkpt>
      <trkpt lat="44.80447" lon="1.61203">
        <ele>277.48</ele>
        <time>2021-06-06T14:46:11Z</time>
      </trkpt>
      <trkpt lat="44.80447" lon="1.61221">
        <ele>277.96</ele>
        <time>2021-06-06T14:46:24Z</time>
      </trkpt>
      <trkpt lat="44.80443" lon="1.61239">
        <ele>277.96</ele>
        <time>2021-06-06T14:46:37Z</time>
      </trkpt>
      <trkpt lat="44.80438" lon="1.61254">
        <ele>277.96</ele>
        <time>2021-06-06T14:46:50Z</time>
      </trkpt>
      <trkpt lat="44.80428" lon="1.61268">
        <ele>277.96</ele>
        <time>2021-06-06T14:47:03Z</time>
      </trkpt>
      <trkpt lat="44.80421" lon="1.6128">
        <ele>277.96</ele>
        <time>2021-06-06T14:47:13Z</time>
      </trkpt>
      <trkpt lat="44.80404" lon="1.61295">
        <ele>277.96</ele>
        <time>2021-06-06T14:47:27Z</time>
      </trkpt>
      <trkpt lat="44.8039" lon="1.61307">
        <ele>277.96</ele>
        <time>2021-06-06T14:47:40Z</time>
      </trkpt>
      <trkpt lat="44.80377" lon="1.61321">
        <ele>277.96</ele>
        <time>2021-06-06T14:47:53Z</time>
      </trkpt>
      <trkpt lat="44.80359" lon="1.6134">
        <ele>278.44</ele>
        <time>2021-06-06T14:48:10Z</time>
      </trkpt>
      <trkpt lat="44.80349" lon="1.61353">
        <ele>277.96</ele>
        <time>2021-06-06T14:48:21Z</time>
      </trkpt>
      <trkpt lat="44.80347" lon="1.61358">
        <ele>277.96</ele>
        <time>2021-06-06T14:48:27Z</time>
      </trkpt>
      <trkpt lat="44.80342" lon="1.61368">
        <ele>277.96</ele>
        <time>2021-06-06T14:48:33Z</time>
      </trkpt>
      <trkpt lat="44.80332" lon="1.61383">
        <ele>278.44</ele>
        <time>2021-06-06T14:48:45Z</time>
      </trkpt>
      <trkpt lat="44.8032" lon="1.61403">
        <ele>278.44</ele>
        <time>2021-06-06T14:49:00Z</time>
      </trkpt>
      <trkpt lat="44.80311" lon="1.61421">
        <ele>277.48</ele>
        <time>2021-06-06T14:49:13Z</time>
      </trkpt>
      <trkpt lat="44.80299" lon="1.61445">
        <ele>277.48</ele>
        <time>2021-06-06T14:49:30Z</time>
      </trkpt>
      <trkpt lat="44.80288" lon="1.61465">
        <ele>277</ele>
        <time>2021-06-06T14:49:45Z</time>
      </trkpt>
      <trkpt lat="44.80275" lon="1.61485">
        <ele>276.04</ele>
        <time>2021-06-06T14:50:01Z</time>
      </trkpt>
      <trkpt lat="44.80267" lon="1.61509">
        <ele>276.04</ele>
        <time>2021-06-06T14:50:16Z</time>
      </trkpt>
      <trkpt lat="44.80257" lon="1.61526">
        <ele>275.07</ele>
        <time>2021-06-06T14:50:28Z</time>
      </trkpt>
      <trkpt lat="44.80245" lon="1.61545">
        <ele>274.59</ele>
        <time>2021-06-06T14:50:42Z</time>
      </trkpt>
      <trkpt lat="44.80235" lon="1.61566">
        <ele>274.11</ele>
        <time>2021-06-06T14:50:56Z</time>
      </trkpt>
      <trkpt lat="44.80229" lon="1.6158">
        <ele>273.63</ele>
        <time>2021-06-06T14:51:05Z</time>
      </trkpt>
      <trkpt lat="44.80228" lon="1.61587">
        <ele>273.63</ele>
        <time>2021-06-06T14:51:09Z</time>
      </trkpt>
      <trkpt lat="44.80217" lon="1.61609">
        <ele>273.63</ele>
        <time>2021-06-06T14:51:23Z</time>
      </trkpt>
      <trkpt lat="44.80206" lon="1.61621">
        <ele>273.15</ele>
        <time>2021-06-06T14:51:34Z</time>
      </trkpt>
      <trkpt lat="44.80197" lon="1.61635">
        <ele>272.67</ele>
        <time>2021-06-06T14:51:45Z</time>
      </trkpt>
      <trkpt lat="44.80186" lon="1.61648">
        <ele>272.67</ele>
        <time>2021-06-06T14:51:58Z</time>
      </trkpt>
      <trkpt lat="44.80183" lon="1.61649">
        <ele>272.67</ele>
        <time>2021-06-06T14:52:02Z</time>
      </trkpt>
      <trkpt lat="44.80174" lon="1.61658">
        <ele>272.19</ele>
        <time>2021-06-06T14:52:14Z</time>
      </trkpt>
      <trkpt lat="44.80168" lon="1.61657">
        <ele>271.71</ele>
        <time>2021-06-06T14:52:21Z</time>
      </trkpt>
      <trkpt lat="44.80156" lon="1.61655">
        <ele>271.71</ele>
        <time>2021-06-06T14:52:33Z</time>
      </trkpt>
      <trkpt lat="44.80149" lon="1.61654">
        <ele>271.71</ele>
        <time>2021-06-06T14:52:43Z</time>
      </trkpt>
      <trkpt lat="44.80144" lon="1.61666">
        <ele>271.71</ele>
        <time>2021-06-06T14:52:59Z</time>
      </trkpt>
      <trkpt lat="44.80143" lon="1.61667">
        <ele>271.71</ele>
        <time>2021-06-06T14:53:20Z</time>
      </trkpt>
      <trkpt lat="44.80141" lon="1.61669">
        <ele>271.71</ele>
        <time>2021-06-06T14:53:44Z</time>
      </trkpt>
      <trkpt lat="44.80139" lon="1.61667">
        <ele>271.71</ele>
        <time>2021-06-06T14:54:00Z</time>
      </trkpt>
      <trkpt lat="44.80137" lon="1.61665">
        <ele>271.71</ele>
        <time>2021-06-06T14:54:06Z</time>
      </trkpt>
      <trkpt lat="44.80131" lon="1.61669">
        <ele>271.71</ele>
        <time>2021-06-06T14:54:13Z</time>
      </trkpt>
      <trkpt lat="44.80128" lon="1.61668">
        <ele>271.71</ele>
        <time>2021-06-06T14:54:17Z</time>
      </trkpt>
      <trkpt lat="44.80123" lon="1.61659">
        <ele>271.23</ele>
        <time>2021-06-06T14:54:27Z</time>
      </trkpt>
      <trkpt lat="44.80115" lon="1.61662">
        <ele>271.23</ele>
        <time>2021-06-06T14:54:40Z</time>
      </trkpt>
      <trkpt lat="44.80103" lon="1.61656">
        <ele>270.75</ele>
        <time>2021-06-06T14:54:50Z</time>
      </trkpt>
      <trkpt lat="44.80097" lon="1.61651">
        <ele>270.75</ele>
        <time>2021-06-06T14:54:58Z</time>
      </trkpt>
      <trkpt lat="44.80082" lon="1.61649">
        <ele>269.31</ele>
        <time>2021-06-06T14:55:10Z</time>
      </trkpt>
      <trkpt lat="44.80071" lon="1.61649">
        <ele>269.31</ele>
        <time>2021-06-06T14:55:20Z</time>
      </trkpt>
      <trkpt lat="44.80055" lon="1.61649">
        <ele>268.83</ele>
        <time>2021-06-06T14:55:33Z</time>
      </trkpt>
      <trkpt lat="44.8004" lon="1.61649">
        <ele>267.86</ele>
        <time>2021-06-06T14:55:46Z</time>
      </trkpt>
      <trkpt lat="44.80027" lon="1.6165">
        <ele>268.35</ele>
        <time>2021-06-06T14:55:57Z</time>
      </trkpt>
      <trkpt lat="44.80013" lon="1.61653">
        <ele>266.9</ele>
        <time>2021-06-06T14:56:08Z</time>
      </trkpt>
      <trkpt lat="44.80003" lon="1.61656">
        <ele>266.9</ele>
        <time>2021-06-06T14:56:16Z</time>
      </trkpt>
      <trkpt lat="44.80003" lon="1.61662">
        <ele>266.42</ele>
        <time>2021-06-06T14:56:21Z</time>
      </trkpt>
      <trkpt lat="44.80011" lon="1.61666">
        <ele>265.94</ele>
        <time>2021-06-06T14:56:31Z</time>
      </trkpt>
      <trkpt lat="44.80019" lon="1.61667">
        <ele>265.94</ele>
        <time>2021-06-06T14:56:41Z</time>
      </trkpt>
      <trkpt lat="44.80021" lon="1.61667">
        <ele>265.94</ele>
        <time>2021-06-06T14:56:43Z</time>
      </trkpt>
      <trkpt lat="44.8003" lon="1.61667">
        <ele>265.94</ele>
        <time>2021-06-06T14:56:54Z</time>
      </trkpt>
      <trkpt lat="44.80032" lon="1.61667">
        <ele>267.38</ele>
        <time>2021-06-06T14:56:57Z</time>
      </trkpt>
      <trkpt lat="44.80039" lon="1.61673">
        <ele>267.38</ele>
        <time>2021-06-06T14:57:06Z</time>
      </trkpt>
      <trkpt lat="44.80039" lon="1.61673">
        <ele>267.38</ele>
        <time>2021-06-06T14:57:08Z</time>
      </trkpt>
      <trkpt lat="44.80034" lon="1.6167">
        <ele>264.98</ele>
        <time>2021-06-06T14:57:21Z</time>
      </trkpt>
      <trkpt lat="44.80031" lon="1.61673">
        <ele>264.5</ele>
        <time>2021-06-06T14:57:30Z</time>
      </trkpt>
      <trkpt lat="44.80027" lon="1.61674">
        <ele>262.58</ele>
        <time>2021-06-06T14:57:40Z</time>
      </trkpt>
      <trkpt lat="44.8002" lon="1.61679">
        <ele>261.14</ele>
        <time>2021-06-06T14:57:49Z</time>
      </trkpt>
      <trkpt lat="44.80023" lon="1.61686">
        <ele>259.69</ele>
        <time>2021-06-06T14:57:57Z</time>
      </trkpt>
      <trkpt lat="44.80025" lon="1.61688">
        <ele>259.69</ele>
        <time>2021-06-06T14:58:00Z</time>
      </trkpt>
      <trkpt lat="44.80037" lon="1.61689">
        <ele>256.81</ele>
        <time>2021-06-06T14:58:14Z</time>
      </trkpt>
      <trkpt lat="44.80042" lon="1.6169">
        <ele>255.85</ele>
        <time>2021-06-06T14:58:23Z</time>
      </trkpt>
      <trkpt lat="44.80042" lon="1.61689">
        <ele>255.37</ele>
        <time>2021-06-06T14:58:32Z</time>
      </trkpt>
      <trkpt lat="44.80042" lon="1.61695">
        <ele>255.37</ele>
        <time>2021-06-06T14:58:41Z</time>
      </trkpt>
      <trkpt lat="44.80043" lon="1.61696">
        <ele>255.37</ele>
        <time>2021-06-06T14:58:44Z</time>
      </trkpt>
      <trkpt lat="44.80044" lon="1.61697">
        <ele>254.89</ele>
        <time>2021-06-06T14:58:54Z</time>
      </trkpt>
      <trkpt lat="44.80039" lon="1.61694">
        <ele>252.48</ele>
        <time>2021-06-06T14:59:07Z</time>
      </trkpt>
      <trkpt lat="44.80037" lon="1.61692">
        <ele>252</ele>
        <time>2021-06-06T14:59:11Z</time>
      </trkpt>
      <trkpt lat="44.80032" lon="1.61696">
        <ele>250.56</ele>
        <time>2021-06-06T14:59:20Z</time>
      </trkpt>
      <trkpt lat="44.80032" lon="1.61703">
        <ele>250.08</ele>
        <time>2021-06-06T14:59:29Z</time>
      </trkpt>
      <trkpt lat="44.80037" lon="1.61707">
        <ele>248.16</ele>
        <time>2021-06-06T14:59:41Z</time>
      </trkpt>
      <trkpt lat="44.80037" lon="1.61706">
        <ele>247.2</ele>
        <time>2021-06-06T14:59:51Z</time>
      </trkpt>
      <trkpt lat="44.80031" lon="1.61705">
        <ele>245.75</ele>
        <time>2021-06-06T15:00:02Z</time>
      </trkpt>
      <trkpt lat="44.80028" lon="1.61711">
        <ele>244.79</ele>
        <time>2021-06-06T15:00:11Z</time>
      </trkpt>
      <trkpt lat="44.80023" lon="1.61714">
        <ele>243.83</ele>
        <time>2021-06-06T15:00:19Z</time>
      </trkpt>
      <trkpt lat="44.80019" lon="1.61716">
        <ele>243.35</ele>
        <time>2021-06-06T15:00:29Z</time>
      </trkpt>
      <trkpt lat="44.80029" lon="1.61721">
        <ele>242.39</ele>
        <time>2021-06-06T15:00:40Z</time>
      </trkpt>
      <trkpt lat="44.80028" lon="1.6172">
        <ele>241.43</ele>
        <time>2021-06-06T15:00:42Z</time>
      </trkpt>
      <trkpt lat="44.80023" lon="1.61714">
        <ele>240.95</ele>
        <time>2021-06-06T15:00:54Z</time>
      </trkpt>
      <trkpt lat="44.80017" lon="1.61717">
        <ele>239.51</ele>
        <time>2021-06-06T15:01:04Z</time>
      </trkpt>
      <trkpt lat="44.80005" lon="1.61728">
        <ele>239.02</ele>
        <time>2021-06-06T15:01:15Z</time>
      </trkpt>
      <trkpt lat="44.8" lon="1.61742">
        <ele>238.06</ele>
        <time>2021-06-06T15:01:23Z</time>
      </trkpt>
      <trkpt lat="44.80003" lon="1.61746">
        <ele>236.62</ele>
        <time>2021-06-06T15:01:32Z</time>
      </trkpt>
      <trkpt lat="44.80007" lon="1.61746">
        <ele>235.18</ele>
        <time>2021-06-06T15:01:42Z</time>
      </trkpt>
      <trkpt lat="44.80004" lon="1.61735">
        <ele>234.22</ele>
        <time>2021-06-06T15:01:50Z</time>
      </trkpt>
      <trkpt lat="44.80004" lon="1.61735">
        <ele>233.74</ele>
        <time>2021-06-06T15:01:53Z</time>
      </trkpt>
      <trkpt lat="44.80001" lon="1.61739">
        <ele>231.81</ele>
        <time>2021-06-06T15:02:03Z</time>
      </trkpt>
      <trkpt lat="44.79995" lon="1.61755">
        <ele>230.85</ele>
        <time>2021-06-06T15:02:13Z</time>
      </trkpt>
      <trkpt lat="44.8" lon="1.61761">
        <ele>229.41</ele>
        <time>2021-06-06T15:02:22Z</time>
      </trkpt>
      <trkpt lat="44.80006" lon="1.61764">
        <ele>228.93</ele>
        <time>2021-06-06T15:02:29Z</time>
      </trkpt>
      <trkpt lat="44.80007" lon="1.61767">
        <ele>227.49</ele>
        <time>2021-06-06T15:02:38Z</time>
      </trkpt>
      <trkpt lat="44.80006" lon="1.6176">
        <ele>226.05</ele>
        <time>2021-06-06T15:02:48Z</time>
      </trkpt>
      <trkpt lat="44.80002" lon="1.61764">
        <ele>224.61</ele>
        <time>2021-06-06T15:02:58Z</time>
      </trkpt>
      <trkpt lat="44.80005" lon="1.61775">
        <ele>223.64</ele>
        <time>2021-06-06T15:03:08Z</time>
      </trkpt>
      <trkpt lat="44.8001" lon="1.61785">
        <ele>221.72</ele>
        <time>2021-06-06T15:03:19Z</time>
      </trkpt>
      <trkpt lat="44.80008" lon="1.61782">
        <ele>220.28</ele>
        <time>2021-06-06T15:03:29Z</time>
      </trkpt>
      <trkpt lat="44.80005" lon="1.6178">
        <ele>219.8</ele>
        <time>2021-06-06T15:03:33Z</time>
      </trkpt>
      <trkpt lat="44.8" lon="1.61775">
        <ele>217.88</ele>
        <time>2021-06-06T15:03:44Z</time>
      </trkpt>
      <trkpt lat="44.79993" lon="1.61772">
        <ele>217.4</ele>
        <time>2021-06-06T15:03:56Z</time>
      </trkpt>
      <trkpt lat="44.79991" lon="1.61777">
        <ele>217.4</ele>
        <time>2021-06-06T15:04:08Z</time>
      </trkpt>
      <trkpt lat="44.79987" lon="1.61779">
        <ele>217.88</ele>
        <time>2021-06-06T15:04:23Z</time>
      </trkpt>
      <trkpt lat="44.79982" lon="1.61772">
        <ele>217.88</ele>
        <time>2021-06-06T15:04:34Z</time>
      </trkpt>
      <trkpt lat="44.79979" lon="1.61767">
        <ele>217.88</ele>
        <time>2021-06-06T15:04:42Z</time>
      </trkpt>
      <trkpt lat="44.79954" lon="1.61752">
        <ele>217.4</ele>
        <time>2021-06-06T15:05:13Z</time>
      </trkpt>
      <trkpt lat="44.79955" lon="1.61744">
        <ele>217.4</ele>
        <time>2021-06-06T15:05:31Z</time>
      </trkpt>
      <trkpt lat="44.79951" lon="1.61747">
        <ele>217.4</ele>
        <time>2021-06-06T15:05:46Z</time>
      </trkpt>
      <trkpt lat="44.79953" lon="1.61751">
        <ele>217.88</ele>
        <time>2021-06-06T15:06:05Z</time>
      </trkpt>
      <trkpt lat="44.7995" lon="1.61752">
        <ele>217.88</ele>
        <time>2021-06-06T15:06:15Z</time>
      </trkpt>
      <trkpt lat="44.79946" lon="1.6175">
        <ele>217.88</ele>
        <time>2021-06-06T15:06:34Z</time>
      </trkpt>
      <trkpt lat="44.79943" lon="1.61752">
        <ele>215.47</ele>
        <time>2021-06-06T15:06:48Z</time>
      </trkpt>
      <trkpt lat="44.79943" lon="1.61748">
        <ele>213.55</ele>
        <time>2021-06-06T15:06:59Z</time>
      </trkpt>
      <trkpt lat="44.7995" lon="1.61708">
        <ele>210.19</ele>
        <time>2021-06-06T15:07:13Z</time>
      </trkpt>
      <trkpt lat="44.79924" lon="1.6173">
        <ele>210.19</ele>
        <time>2021-06-06T15:07:21Z</time>
      </trkpt>
      <trkpt lat="44.79917" lon="1.61754">
        <ele>208.74</ele>
        <time>2021-06-06T15:07:31Z</time>
      </trkpt>
      <trkpt lat="44.79905" lon="1.61755">
        <ele>207.78</ele>
        <time>2021-06-06T15:07:42Z</time>
      </trkpt>
      <trkpt lat="44.79901" lon="1.61753">
        <ele>206.82</ele>
        <time>2021-06-06T15:07:53Z</time>
      </trkpt>
      <trkpt lat="44.79901" lon="1.61758">
        <ele>205.86</ele>
        <time>2021-06-06T15:08:05Z</time>
      </trkpt>
      <trkpt lat="44.79905" lon="1.61781">
        <ele>203.46</ele>
        <time>2021-06-06T15:08:16Z</time>
      </trkpt>
      <trkpt lat="44.7991" lon="1.61786">
        <ele>201.05</ele>
        <time>2021-06-06T15:08:26Z</time>
      </trkpt>
      <trkpt lat="44.79917" lon="1.61784">
        <ele>199.61</ele>
        <time>2021-06-06T15:08:35Z</time>
      </trkpt>
      <trkpt lat="44.79914" lon="1.61792">
        <ele>196.73</ele>
        <time>2021-06-06T15:08:45Z</time>
      </trkpt>
      <trkpt lat="44.79911" lon="1.61796">
        <ele>194.8</ele>
        <time>2021-06-06T15:08:54Z</time>
      </trkpt>
      <trkpt lat="44.79907" lon="1.618">
        <ele>191.92</ele>
        <time>2021-06-06T15:09:02Z</time>
      </trkpt>
      <trkpt lat="44.79903" lon="1.61801">
        <ele>188.56</ele>
        <time>2021-06-06T15:09:13Z</time>
      </trkpt>
      <trkpt lat="44.79898" lon="1.61801">
        <ele>186.63</ele>
        <time>2021-06-06T15:09:23Z</time>
      </trkpt>
      <trkpt lat="44.79897" lon="1.61795">
        <ele>185.67</ele>
        <time>2021-06-06T15:09:31Z</time>
      </trkpt>
      <trkpt lat="44.79898" lon="1.61794">
        <ele>184.23</ele>
        <time>2021-06-06T15:09:39Z</time>
      </trkpt>
      <trkpt lat="44.799" lon="1.61794">
        <ele>184.23</ele>
        <time>2021-06-06T15:09:42Z</time>
      </trkpt>
      <trkpt lat="44.79896" lon="1.61772">
        <ele>184.71</ele>
        <time>2021-06-06T15:09:54Z</time>
      </trkpt>
      <trkpt lat="44.79899" lon="1.61774">
        <ele>184.71</ele>
        <time>2021-06-06T15:10:01Z</time>
      </trkpt>
      <trkpt lat="44.79901" lon="1.6178">
        <ele>184.71</ele>
        <time>2021-06-06T15:10:06Z</time>
      </trkpt>
      <trkpt lat="44.79902" lon="1.6178">
        <ele>185.67</ele>
        <time>2021-06-06T15:10:07Z</time>
      </trkpt>
      <trkpt lat="44.79919" lon="1.61775">
        <ele>186.15</ele>
        <time>2021-06-06T15:10:20Z</time>
      </trkpt>
      <trkpt lat="44.79927" lon="1.61776">
        <ele>186.15</ele>
        <time>2021-06-06T15:10:30Z</time>
      </trkpt>
      <trkpt lat="44.79928" lon="1.61785">
        <ele>184.71</ele>
        <time>2021-06-06T15:10:41Z</time>
      </trkpt>
      <trkpt lat="44.79927" lon="1.61786">
        <ele>184.71</ele>
        <time>2021-06-06T15:10:55Z</time>
      </trkpt>
      <trkpt lat="44.7992" lon="1.61796">
        <ele>184.71</ele>
        <time>2021-06-06T15:11:05Z</time>
      </trkpt>
      <trkpt lat="44.79903" lon="1.61822">
        <ele>185.19</ele>
        <time>2021-06-06T15:11:21Z</time>
      </trkpt>
      <trkpt lat="44.7987" lon="1.61836">
        <ele>185.19</ele>
        <time>2021-06-06T15:11:30Z</time>
      </trkpt>
      <trkpt lat="44.79923" lon="1.61784">
        <ele>184.71</ele>
        <time>2021-06-06T15:12:08Z</time>
      </trkpt>
      <trkpt lat="44.79921" lon="1.61772">
        <ele>186.15</ele>
        <time>2021-06-06T15:12:12Z</time>
      </trkpt>
      <trkpt lat="44.79909" lon="1.61772">
        <ele>187.59</ele>
        <time>2021-06-06T15:12:22Z</time>
      </trkpt>
      <trkpt lat="44.799" lon="1.61774">
        <ele>186.15</ele>
        <time>2021-06-06T15:12:29Z</time>
      </trkpt>
      <trkpt lat="44.79896" lon="1.61771">
        <ele>186.15</ele>
        <time>2021-06-06T15:12:39Z</time>
      </trkpt>
      <trkpt lat="44.79898" lon="1.61769">
        <ele>185.67</ele>
        <time>2021-06-06T15:12:50Z</time>
      </trkpt>
      <trkpt lat="44.79896" lon="1.61773">
        <ele>185.67</ele>
        <time>2021-06-06T15:13:03Z</time>
      </trkpt>
      <trkpt lat="44.79897" lon="1.61774">
        <ele>185.67</ele>
        <time>2021-06-06T15:13:15Z</time>
      </trkpt>
      <trkpt lat="44.79899" lon="1.61775">
        <ele>185.67</ele>
        <time>2021-06-06T15:13:23Z</time>
      </trkpt>
      <trkpt lat="44.799" lon="1.61777">
        <ele>185.67</ele>
        <time>2021-06-06T15:13:25Z</time>
      </trkpt>
      <trkpt lat="44.79911" lon="1.61776">
        <ele>186.63</ele>
        <time>2021-06-06T15:13:33Z</time>
      </trkpt>
      <trkpt lat="44.79928" lon="1.61773">
        <ele>186.63</ele>
        <time>2021-06-06T15:13:47Z</time>
      </trkpt>
      <trkpt lat="44.79931" lon="1.61773">
        <ele>186.63</ele>
        <time>2021-06-06T15:13:49Z</time>
      </trkpt>
      <trkpt lat="44.79939" lon="1.61785">
        <ele>186.63</ele>
        <time>2021-06-06T15:14:02Z</time>
      </trkpt>
      <trkpt lat="44.79949" lon="1.61798">
        <ele>185.19</ele>
        <time>2021-06-06T15:14:16Z</time>
      </trkpt>
      <trkpt lat="44.79954" lon="1.61809">
        <ele>183.75</ele>
        <time>2021-06-06T15:14:28Z</time>
      </trkpt>
      <trkpt lat="44.79957" lon="1.61817">
        <ele>183.75</ele>
        <time>2021-06-06T15:14:49Z</time>
      </trkpt>
      <trkpt lat="44.79957" lon="1.61817">
        <ele>185.19</ele>
        <time>2021-06-06T15:14:59Z</time>
      </trkpt>
      <trkpt lat="44.79967" lon="1.61824">
        <ele>185.19</ele>
        <time>2021-06-06T15:15:06Z</time>
      </trkpt>
      <trkpt lat="44.7997" lon="1.61828">
        <ele>185.19</ele>
        <time>2021-06-06T15:15:15Z</time>
      </trkpt>
      <trkpt lat="44.79972" lon="1.61834">
        <ele>185.19</ele>
        <time>2021-06-06T15:15:20Z</time>
      </trkpt>
      <trkpt lat="44.79977" lon="1.6184">
        <ele>185.19</ele>
        <time>2021-06-06T15:15:29Z</time>
      </trkpt>
      <trkpt lat="44.79982" lon="1.61839">
        <ele>185.19</ele>
        <time>2021-06-06T15:15:39Z</time>
      </trkpt>
      <trkpt lat="44.79979" lon="1.61838">
        <ele>185.19</ele>
        <time>2021-06-06T15:15:48Z</time>
      </trkpt>
      <trkpt lat="44.79978" lon="1.61838">
        <ele>185.19</ele>
        <time>2021-06-06T15:15:50Z</time>
      </trkpt>
      <trkpt lat="44.79972" lon="1.61837">
        <ele>185.19</ele>
        <time>2021-06-06T15:15:59Z</time>
      </trkpt>
      <trkpt lat="44.79965" lon="1.61841">
        <ele>185.19</ele>
        <time>2021-06-06T15:16:08Z</time>
      </trkpt>
      <trkpt lat="44.79955" lon="1.61828">
        <ele>185.67</ele>
        <time>2021-06-06T15:16:26Z</time>
      </trkpt>
      <trkpt lat="44.79955" lon="1.61826">
        <ele>186.15</ele>
        <time>2021-06-06T15:16:44Z</time>
      </trkpt>
      <trkpt lat="44.79951" lon="1.61819">
        <ele>186.15</ele>
        <time>2021-06-06T15:17:03Z</time>
      </trkpt>
      <trkpt lat="44.79951" lon="1.61822">
        <ele>186.15</ele>
        <time>2021-06-06T15:17:17Z</time>
      </trkpt>
      <trkpt lat="44.79954" lon="1.61824">
        <ele>186.15</ele>
        <time>2021-06-06T15:17:32Z</time>
      </trkpt>
      <trkpt lat="44.79954" lon="1.61826">
        <ele>186.63</ele>
        <time>2021-06-06T15:17:50Z</time>
      </trkpt>
      <trkpt lat="44.79958" lon="1.61819">
        <ele>186.63</ele>
        <time>2021-06-06T15:18:03Z</time>
      </trkpt>
      <trkpt lat="44.79955" lon="1.61816">
        <ele>186.63</ele>
        <time>2021-06-06T15:18:15Z</time>
      </trkpt>
      <trkpt lat="44.79956" lon="1.61808">
        <ele>186.63</ele>
        <time>2021-06-06T15:18:30Z</time>
      </trkpt>
      <trkpt lat="44.79957" lon="1.61807">
        <ele>186.63</ele>
        <time>2021-06-06T15:18:48Z</time>
      </trkpt>
      <trkpt lat="44.79955" lon="1.61812">
        <ele>186.63</ele>
        <time>2021-06-06T15:19:00Z</time>
      </trkpt>
      <trkpt lat="44.79953" lon="1.61811">
        <ele>187.11</ele>
        <time>2021-06-06T15:19:12Z</time>
      </trkpt>
      <trkpt lat="44.79956" lon="1.61812">
        <ele>187.11</ele>
        <time>2021-06-06T15:19:26Z</time>
      </trkpt>
      <trkpt lat="44.79954" lon="1.61814">
        <ele>187.11</ele>
        <time>2021-06-06T15:19:40Z</time>
      </trkpt>
      <trkpt lat="44.79952" lon="1.61812">
        <ele>187.11</ele>
        <time>2021-06-06T15:19:55Z</time>
      </trkpt>
      <trkpt lat="44.79952" lon="1.6181">
        <ele>187.11</ele>
        <time>2021-06-06T15:20:08Z</time>
      </trkpt>
      <trkpt lat="44.79948" lon="1.61814">
        <ele>187.11</ele>
        <time>2021-06-06T15:20:27Z</time>
      </trkpt>
      <trkpt lat="44.79951" lon="1.61812">
        <ele>187.11</ele>
        <time>2021-06-06T15:20:45Z</time>
      </trkpt>
      <trkpt lat="44.79954" lon="1.61813">
        <ele>186.15</ele>
        <time>2021-06-06T15:20:47Z</time>
      </trkpt>
      <trkpt lat="44.79956" lon="1.61815">
        <ele>186.15</ele>
        <time>2021-06-06T15:21:00Z</time>
      </trkpt>
      <trkpt lat="44.79955" lon="1.61815">
        <ele>185.19</ele>
        <time>2021-06-06T15:21:14Z</time>
      </trkpt>
      <trkpt lat="44.79957" lon="1.61816">
        <ele>186.63</ele>
        <time>2021-06-06T15:21:20Z</time>
      </trkpt>
      <trkpt lat="44.79956" lon="1.61818">
        <ele>186.63</ele>
        <time>2021-06-06T15:21:31Z</time>
      </trkpt>
      <trkpt lat="44.79955" lon="1.61817">
        <ele>186.63</ele>
        <time>2021-06-06T15:21:50Z</time>
      </trkpt>
      <trkpt lat="44.79954" lon="1.61818">
        <ele>187.11</ele>
        <time>2021-06-06T15:22:04Z</time>
      </trkpt>
      <trkpt lat="44.7995" lon="1.61816">
        <ele>187.11</ele>
        <time>2021-06-06T15:22:16Z</time>
      </trkpt>
      <trkpt lat="44.79943" lon="1.61811">
        <ele>187.11</ele>
        <time>2021-06-06T15:22:28Z</time>
      </trkpt>
      <trkpt lat="44.79939" lon="1.61803">
        <ele>187.11</ele>
        <time>2021-06-06T15:22:38Z</time>
      </trkpt>
      <trkpt lat="44.79938" lon="1.618">
        <ele>187.11</ele>
        <time>2021-06-06T15:22:42Z</time>
      </trkpt>
      <trkpt lat="44.79928" lon="1.61797">
        <ele>187.59</ele>
        <time>2021-06-06T15:22:52Z</time>
      </trkpt>
      <trkpt lat="44.79918" lon="1.61788">
        <ele>188.08</ele>
        <time>2021-06-06T15:23:05Z</time>
      </trkpt>
      <trkpt lat="44.79914" lon="1.61784">
        <ele>188.56</ele>
        <time>2021-06-06T15:23:12Z</time>
      </trkpt>
      <trkpt lat="44.79906" lon="1.61783">
        <ele>188.56</ele>
        <time>2021-06-06T15:23:20Z</time>
      </trkpt>
      <trkpt lat="44.79901" lon="1.61783">
        <ele>187.11</ele>
        <time>2021-06-06T15:23:32Z</time>
      </trkpt>
      <trkpt lat="44.79902" lon="1.61787">
        <ele>187.11</ele>
        <time>2021-06-06T15:23:54Z</time>
      </trkpt>
      <trkpt lat="44.799" lon="1.61785">
        <ele>187.11</ele>
        <time>2021-06-06T15:24:01Z</time>
      </trkpt>
      <trkpt lat="44.7989" lon="1.6179">
        <ele>187.11</ele>
        <time>2021-06-06T15:24:36Z</time>
      </trkpt>
      <trkpt lat="44.79895" lon="1.61792">
        <ele>187.11</ele>
        <time>2021-06-06T15:24:57Z</time>
      </trkpt>
      <trkpt lat="44.79898" lon="1.61795">
        <ele>187.11</ele>
        <time>2021-06-06T15:25:14Z</time>
      </trkpt>
      <trkpt lat="44.79896" lon="1.61796">
        <ele>187.11</ele>
        <time>2021-06-06T15:25:32Z</time>
      </trkpt>
      <trkpt lat="44.79895" lon="1.61792">
        <ele>187.11</ele>
        <time>2021-06-06T15:25:55Z</time>
      </trkpt>
      <trkpt lat="44.79894" lon="1.61791">
        <ele>187.11</ele>
        <time>2021-06-06T15:26:19Z</time>
      </trkpt>
      <trkpt lat="44.79891" lon="1.61791">
        <ele>187.11</ele>
        <time>2021-06-06T15:26:37Z</time>
      </trkpt>
      <trkpt lat="44.79893" lon="1.61789">
        <ele>187.11</ele>
        <time>2021-06-06T15:26:55Z</time>
      </trkpt>
      <trkpt lat="44.7989" lon="1.61786">
        <ele>187.11</ele>
        <time>2021-06-06T15:27:19Z</time>
      </trkpt>
      <trkpt lat="44.79874" lon="1.61769">
        <ele>187.11</ele>
        <time>2021-06-06T15:27:44Z</time>
      </trkpt>
      <trkpt lat="44.79888" lon="1.61779">
        <ele>188.08</ele>
        <time>2021-06-06T15:28:30Z</time>
      </trkpt>
      <trkpt lat="44.79893" lon="1.61788">
        <ele>188.08</ele>
        <time>2021-06-06T15:28:59Z</time>
      </trkpt>
      <trkpt lat="44.79899" lon="1.61797">
        <ele>188.08</ele>
        <time>2021-06-06T15:29:20Z</time>
      </trkpt>
      <trkpt lat="44.79898" lon="1.61804">
        <ele>188.08</ele>
        <time>2021-06-06T15:29:42Z</time>
      </trkpt>
      <trkpt lat="44.79898" lon="1.61799">
        <ele>190.48</ele>
        <time>2021-06-06T15:29:52Z</time>
      </trkpt>
      <trkpt lat="44.79899" lon="1.61791">
        <ele>187.59</ele>
        <time>2021-06-06T15:29:55Z</time>
      </trkpt>
      <trkpt lat="44.79898" lon="1.61798">
        <ele>187.11</ele>
        <time>2021-06-06T15:30:12Z</time>
      </trkpt>
    </trkseg>
  </trk>
</gpx>